<?xml version="1.0" encoding="UTF-8" standalone="no" ?>
<gpx xmlns="http://www.topografix.com/GPX/1/1" xmlns:xsi="http://www.w3.org/2001/XMLSchema-instance" xsi:schemaLocation="http://www.topografix.com/GPX/1/1 http://www.topografix.com/GPX/1/1/gpx.xsd" version="1.1" creator="VisuGPX - https://www.visugpx.com">
  <metadata>
    <name>Tracé actuel: 29 AVR 2016 09:24</name>
  </metadata>
  <trk>
    <name><![CDATA[Tracé actuel: 29 AVR 2016 09:24]]></name>
    <trkseg>
      <trkpt lat="43.8452" lon="-1.34755">
        <ele>26.57</ele>
        <time>2016-04-29T07:25:16Z</time>
      </trkpt>
      <trkpt lat="43.84536" lon="-1.34736">
        <ele>26.57</ele>
        <time>2016-04-29T07:25:21Z</time>
      </trkpt>
      <trkpt lat="43.8454" lon="-1.34732">
        <ele>26.57</ele>
        <time>2016-04-29T07:25:22Z</time>
      </trkpt>
      <trkpt lat="43.84544" lon="-1.34729">
        <ele>27.05</ele>
        <time>2016-04-29T07:25:23Z</time>
      </trkpt>
      <trkpt lat="43.84581" lon="-1.34694">
        <ele>26.57</ele>
        <time>2016-04-29T07:25:32Z</time>
      </trkpt>
      <trkpt lat="43.84607" lon="-1.34669">
        <ele>27.53</ele>
        <time>2016-04-29T07:25:38Z</time>
      </trkpt>
      <trkpt lat="43.8464" lon="-1.34629">
        <ele>26.57</ele>
        <time>2016-04-29T07:25:46Z</time>
      </trkpt>
      <trkpt lat="43.8466" lon="-1.34606">
        <ele>27.05</ele>
        <time>2016-04-29T07:25:51Z</time>
      </trkpt>
      <trkpt lat="43.84691" lon="-1.34569">
        <ele>27.53</ele>
        <time>2016-04-29T07:25:59Z</time>
      </trkpt>
      <trkpt lat="43.84712" lon="-1.34538">
        <ele>27.53</ele>
        <time>2016-04-29T07:26:05Z</time>
      </trkpt>
      <trkpt lat="43.84723" lon="-1.34523">
        <ele>27.53</ele>
        <time>2016-04-29T07:26:08Z</time>
      </trkpt>
      <trkpt lat="43.84728" lon="-1.34518">
        <ele>27.53</ele>
        <time>2016-04-29T07:26:09Z</time>
      </trkpt>
      <trkpt lat="43.84733" lon="-1.34515">
        <ele>27.05</ele>
        <time>2016-04-29T07:26:10Z</time>
      </trkpt>
      <trkpt lat="43.84738" lon="-1.34512">
        <ele>26.57</ele>
        <time>2016-04-29T07:26:11Z</time>
      </trkpt>
      <trkpt lat="43.84744" lon="-1.34511">
        <ele>26.57</ele>
        <time>2016-04-29T07:26:12Z</time>
      </trkpt>
      <trkpt lat="43.84749" lon="-1.34511">
        <ele>26.09</ele>
        <time>2016-04-29T07:26:13Z</time>
      </trkpt>
      <trkpt lat="43.84755" lon="-1.34511">
        <ele>26.57</ele>
        <time>2016-04-29T07:26:14Z</time>
      </trkpt>
      <trkpt lat="43.84788" lon="-1.34503">
        <ele>26.57</ele>
        <time>2016-04-29T07:26:20Z</time>
      </trkpt>
      <trkpt lat="43.84811" lon="-1.34497">
        <ele>27.05</ele>
        <time>2016-04-29T07:26:24Z</time>
      </trkpt>
      <trkpt lat="43.84816" lon="-1.34496">
        <ele>26.57</ele>
        <time>2016-04-29T07:26:25Z</time>
      </trkpt>
      <trkpt lat="43.84854" lon="-1.3449">
        <ele>26.57</ele>
        <time>2016-04-29T07:26:32Z</time>
      </trkpt>
      <trkpt lat="43.84858" lon="-1.34488">
        <ele>26.09</ele>
        <time>2016-04-29T07:26:33Z</time>
      </trkpt>
      <trkpt lat="43.84862" lon="-1.34484">
        <ele>27.05</ele>
        <time>2016-04-29T07:26:34Z</time>
      </trkpt>
      <trkpt lat="43.84864" lon="-1.34479">
        <ele>27.05</ele>
        <time>2016-04-29T07:26:35Z</time>
      </trkpt>
      <trkpt lat="43.84865" lon="-1.34473">
        <ele>27.05</ele>
        <time>2016-04-29T07:26:36Z</time>
      </trkpt>
      <trkpt lat="43.84865" lon="-1.34466">
        <ele>26.57</ele>
        <time>2016-04-29T07:26:37Z</time>
      </trkpt>
      <trkpt lat="43.84865" lon="-1.34459">
        <ele>26.09</ele>
        <time>2016-04-29T07:26:38Z</time>
      </trkpt>
      <trkpt lat="43.84864" lon="-1.34452">
        <ele>27.05</ele>
        <time>2016-04-29T07:26:39Z</time>
      </trkpt>
      <trkpt lat="43.84858" lon="-1.34373">
        <ele>27.05</ele>
        <time>2016-04-29T07:26:50Z</time>
      </trkpt>
      <trkpt lat="43.84852" lon="-1.34324">
        <ele>27.05</ele>
        <time>2016-04-29T07:26:57Z</time>
      </trkpt>
      <trkpt lat="43.84852" lon="-1.34318">
        <ele>27.53</ele>
        <time>2016-04-29T07:26:58Z</time>
      </trkpt>
      <trkpt lat="43.84853" lon="-1.34311">
        <ele>28.02</ele>
        <time>2016-04-29T07:26:59Z</time>
      </trkpt>
      <trkpt lat="43.84855" lon="-1.34306">
        <ele>27.53</ele>
        <time>2016-04-29T07:27:00Z</time>
      </trkpt>
      <trkpt lat="43.84859" lon="-1.34302">
        <ele>28.02</ele>
        <time>2016-04-29T07:27:01Z</time>
      </trkpt>
      <trkpt lat="43.84862" lon="-1.34299">
        <ele>27.53</ele>
        <time>2016-04-29T07:27:02Z</time>
      </trkpt>
      <trkpt lat="43.84866" lon="-1.34296">
        <ele>27.53</ele>
        <time>2016-04-29T07:27:03Z</time>
      </trkpt>
      <trkpt lat="43.84871" lon="-1.34295">
        <ele>27.53</ele>
        <time>2016-04-29T07:27:04Z</time>
      </trkpt>
      <trkpt lat="43.84875" lon="-1.34293">
        <ele>28.02</ele>
        <time>2016-04-29T07:27:05Z</time>
      </trkpt>
      <trkpt lat="43.84891" lon="-1.34289">
        <ele>27.53</ele>
        <time>2016-04-29T07:27:08Z</time>
      </trkpt>
      <trkpt lat="43.84896" lon="-1.3429">
        <ele>27.05</ele>
        <time>2016-04-29T07:27:09Z</time>
      </trkpt>
      <trkpt lat="43.8491" lon="-1.34293">
        <ele>27.05</ele>
        <time>2016-04-29T07:27:13Z</time>
      </trkpt>
      <trkpt lat="43.8491" lon="-1.34295">
        <ele>26.09</ele>
        <time>2016-04-29T07:27:21Z</time>
      </trkpt>
      <trkpt lat="43.8491" lon="-1.34293">
        <ele>26.57</ele>
        <time>2016-04-29T07:27:43Z</time>
      </trkpt>
      <trkpt lat="43.84909" lon="-1.34291">
        <ele>26.09</ele>
        <time>2016-04-29T07:28:11Z</time>
      </trkpt>
      <trkpt lat="43.8491" lon="-1.34292">
        <ele>25.61</ele>
        <time>2016-04-29T07:28:31Z</time>
      </trkpt>
      <trkpt lat="43.84913" lon="-1.34291">
        <ele>26.57</ele>
        <time>2016-04-29T07:28:40Z</time>
      </trkpt>
      <trkpt lat="43.84915" lon="-1.34291">
        <ele>26.57</ele>
        <time>2016-04-29T07:28:41Z</time>
      </trkpt>
      <trkpt lat="43.84917" lon="-1.34292">
        <ele>26.57</ele>
        <time>2016-04-29T07:28:42Z</time>
      </trkpt>
      <trkpt lat="43.8492" lon="-1.34292">
        <ele>26.09</ele>
        <time>2016-04-29T07:28:43Z</time>
      </trkpt>
      <trkpt lat="43.84924" lon="-1.34292">
        <ele>26.57</ele>
        <time>2016-04-29T07:28:44Z</time>
      </trkpt>
      <trkpt lat="43.84933" lon="-1.34294">
        <ele>26.57</ele>
        <time>2016-04-29T07:28:46Z</time>
      </trkpt>
      <trkpt lat="43.84975" lon="-1.34305">
        <ele>27.05</ele>
        <time>2016-04-29T07:28:54Z</time>
      </trkpt>
      <trkpt lat="43.85012" lon="-1.34315">
        <ele>26.57</ele>
        <time>2016-04-29T07:29:01Z</time>
      </trkpt>
      <trkpt lat="43.85037" lon="-1.34322">
        <ele>26.57</ele>
        <time>2016-04-29T07:29:06Z</time>
      </trkpt>
      <trkpt lat="43.85077" lon="-1.34325">
        <ele>26.57</ele>
        <time>2016-04-29T07:29:13Z</time>
      </trkpt>
      <trkpt lat="43.85083" lon="-1.34326">
        <ele>26.57</ele>
        <time>2016-04-29T07:29:14Z</time>
      </trkpt>
      <trkpt lat="43.85089" lon="-1.34328">
        <ele>27.05</ele>
        <time>2016-04-29T07:29:15Z</time>
      </trkpt>
      <trkpt lat="43.85133" lon="-1.34347">
        <ele>26.09</ele>
        <time>2016-04-29T07:29:22Z</time>
      </trkpt>
      <trkpt lat="43.85175" lon="-1.34355">
        <ele>26.57</ele>
        <time>2016-04-29T07:29:29Z</time>
      </trkpt>
      <trkpt lat="43.85211" lon="-1.3435">
        <ele>25.61</ele>
        <time>2016-04-29T07:29:35Z</time>
      </trkpt>
      <trkpt lat="43.85216" lon="-1.3435">
        <ele>26.57</ele>
        <time>2016-04-29T07:29:36Z</time>
      </trkpt>
      <trkpt lat="43.85221" lon="-1.34351">
        <ele>26.09</ele>
        <time>2016-04-29T07:29:37Z</time>
      </trkpt>
      <trkpt lat="43.85226" lon="-1.34353">
        <ele>26.09</ele>
        <time>2016-04-29T07:29:38Z</time>
      </trkpt>
      <trkpt lat="43.85231" lon="-1.34355">
        <ele>26.09</ele>
        <time>2016-04-29T07:29:39Z</time>
      </trkpt>
      <trkpt lat="43.85269" lon="-1.3437">
        <ele>25.61</ele>
        <time>2016-04-29T07:29:47Z</time>
      </trkpt>
      <trkpt lat="43.85273" lon="-1.34369">
        <ele>25.61</ele>
        <time>2016-04-29T07:29:48Z</time>
      </trkpt>
      <trkpt lat="43.85278" lon="-1.34369">
        <ele>26.09</ele>
        <time>2016-04-29T07:29:49Z</time>
      </trkpt>
      <trkpt lat="43.85282" lon="-1.34369">
        <ele>25.61</ele>
        <time>2016-04-29T07:29:50Z</time>
      </trkpt>
      <trkpt lat="43.85288" lon="-1.34369">
        <ele>26.09</ele>
        <time>2016-04-29T07:29:51Z</time>
      </trkpt>
      <trkpt lat="43.85293" lon="-1.3437">
        <ele>25.61</ele>
        <time>2016-04-29T07:29:52Z</time>
      </trkpt>
      <trkpt lat="43.85304" lon="-1.34373">
        <ele>25.61</ele>
        <time>2016-04-29T07:29:54Z</time>
      </trkpt>
      <trkpt lat="43.85314" lon="-1.34379">
        <ele>25.61</ele>
        <time>2016-04-29T07:29:56Z</time>
      </trkpt>
      <trkpt lat="43.85319" lon="-1.34383">
        <ele>25.61</ele>
        <time>2016-04-29T07:29:57Z</time>
      </trkpt>
      <trkpt lat="43.85342" lon="-1.344">
        <ele>25.13</ele>
        <time>2016-04-29T07:30:02Z</time>
      </trkpt>
      <trkpt lat="43.85374" lon="-1.34413">
        <ele>26.57</ele>
        <time>2016-04-29T07:30:08Z</time>
      </trkpt>
      <trkpt lat="43.8539" lon="-1.34421">
        <ele>25.61</ele>
        <time>2016-04-29T07:30:11Z</time>
      </trkpt>
      <trkpt lat="43.85395" lon="-1.34425">
        <ele>25.61</ele>
        <time>2016-04-29T07:30:12Z</time>
      </trkpt>
      <trkpt lat="43.854" lon="-1.34429">
        <ele>25.61</ele>
        <time>2016-04-29T07:30:13Z</time>
      </trkpt>
      <trkpt lat="43.85433" lon="-1.34459">
        <ele>25.13</ele>
        <time>2016-04-29T07:30:20Z</time>
      </trkpt>
      <trkpt lat="43.85466" lon="-1.34493">
        <ele>24.65</ele>
        <time>2016-04-29T07:30:27Z</time>
      </trkpt>
      <trkpt lat="43.85485" lon="-1.34515">
        <ele>24.65</ele>
        <time>2016-04-29T07:30:33Z</time>
      </trkpt>
      <trkpt lat="43.85506" lon="-1.34542">
        <ele>26.09</ele>
        <time>2016-04-29T07:30:39Z</time>
      </trkpt>
      <trkpt lat="43.85513" lon="-1.34553">
        <ele>25.61</ele>
        <time>2016-04-29T07:30:41Z</time>
      </trkpt>
      <trkpt lat="43.85525" lon="-1.34579">
        <ele>24.65</ele>
        <time>2016-04-29T07:30:45Z</time>
      </trkpt>
      <trkpt lat="43.85547" lon="-1.34608">
        <ele>25.13</ele>
        <time>2016-04-29T07:30:50Z</time>
      </trkpt>
      <trkpt lat="43.85551" lon="-1.34613">
        <ele>24.65</ele>
        <time>2016-04-29T07:30:51Z</time>
      </trkpt>
      <trkpt lat="43.8558" lon="-1.34636">
        <ele>24.17</ele>
        <time>2016-04-29T07:30:57Z</time>
      </trkpt>
      <trkpt lat="43.85605" lon="-1.34659">
        <ele>24.17</ele>
        <time>2016-04-29T07:31:02Z</time>
      </trkpt>
      <trkpt lat="43.85638" lon="-1.34684">
        <ele>24.17</ele>
        <time>2016-04-29T07:31:08Z</time>
      </trkpt>
      <trkpt lat="43.85676" lon="-1.34713">
        <ele>23.69</ele>
        <time>2016-04-29T07:31:15Z</time>
      </trkpt>
      <trkpt lat="43.85718" lon="-1.34746">
        <ele>24.65</ele>
        <time>2016-04-29T07:31:23Z</time>
      </trkpt>
      <trkpt lat="43.85726" lon="-1.3476">
        <ele>24.17</ele>
        <time>2016-04-29T07:31:39Z</time>
      </trkpt>
      <trkpt lat="43.85727" lon="-1.34764">
        <ele>23.69</ele>
        <time>2016-04-29T07:31:40Z</time>
      </trkpt>
      <trkpt lat="43.85728" lon="-1.34768">
        <ele>23.69</ele>
        <time>2016-04-29T07:31:41Z</time>
      </trkpt>
      <trkpt lat="43.8573" lon="-1.34772">
        <ele>23.69</ele>
        <time>2016-04-29T07:31:42Z</time>
      </trkpt>
      <trkpt lat="43.85732" lon="-1.34777">
        <ele>23.21</ele>
        <time>2016-04-29T07:31:43Z</time>
      </trkpt>
      <trkpt lat="43.85737" lon="-1.34787">
        <ele>23.69</ele>
        <time>2016-04-29T07:31:45Z</time>
      </trkpt>
      <trkpt lat="43.85741" lon="-1.34804">
        <ele>23.69</ele>
        <time>2016-04-29T07:31:48Z</time>
      </trkpt>
      <trkpt lat="43.85742" lon="-1.3481">
        <ele>24.17</ele>
        <time>2016-04-29T07:31:49Z</time>
      </trkpt>
      <trkpt lat="43.85741" lon="-1.34816">
        <ele>24.17</ele>
        <time>2016-04-29T07:31:50Z</time>
      </trkpt>
      <trkpt lat="43.8574" lon="-1.34822">
        <ele>23.69</ele>
        <time>2016-04-29T07:31:51Z</time>
      </trkpt>
      <trkpt lat="43.85738" lon="-1.34827">
        <ele>23.69</ele>
        <time>2016-04-29T07:31:52Z</time>
      </trkpt>
      <trkpt lat="43.85735" lon="-1.34832">
        <ele>23.69</ele>
        <time>2016-04-29T07:31:53Z</time>
      </trkpt>
      <trkpt lat="43.85732" lon="-1.34837">
        <ele>23.21</ele>
        <time>2016-04-29T07:31:54Z</time>
      </trkpt>
      <trkpt lat="43.85725" lon="-1.3485">
        <ele>23.69</ele>
        <time>2016-04-29T07:31:56Z</time>
      </trkpt>
      <trkpt lat="43.85715" lon="-1.34878">
        <ele>23.69</ele>
        <time>2016-04-29T07:32:00Z</time>
      </trkpt>
      <trkpt lat="43.85708" lon="-1.34891">
        <ele>23.21</ele>
        <time>2016-04-29T07:32:02Z</time>
      </trkpt>
      <trkpt lat="43.85689" lon="-1.34922">
        <ele>23.21</ele>
        <time>2016-04-29T07:32:07Z</time>
      </trkpt>
      <trkpt lat="43.85686" lon="-1.34929">
        <ele>22.73</ele>
        <time>2016-04-29T07:32:08Z</time>
      </trkpt>
      <trkpt lat="43.85685" lon="-1.34936">
        <ele>23.21</ele>
        <time>2016-04-29T07:32:09Z</time>
      </trkpt>
      <trkpt lat="43.85672" lon="-1.3498">
        <ele>22.25</ele>
        <time>2016-04-29T07:32:16Z</time>
      </trkpt>
      <trkpt lat="43.85686" lon="-1.3498">
        <ele>22.25</ele>
        <time>2016-04-29T07:32:34Z</time>
      </trkpt>
      <trkpt lat="43.8569" lon="-1.3498">
        <ele>22.73</ele>
        <time>2016-04-29T07:32:35Z</time>
      </trkpt>
      <trkpt lat="43.85705" lon="-1.34982">
        <ele>22.73</ele>
        <time>2016-04-29T07:32:38Z</time>
      </trkpt>
      <trkpt lat="43.85735" lon="-1.34986">
        <ele>22.73</ele>
        <time>2016-04-29T07:32:45Z</time>
      </trkpt>
      <trkpt lat="43.85739" lon="-1.34986">
        <ele>23.21</ele>
        <time>2016-04-29T07:32:46Z</time>
      </trkpt>
      <trkpt lat="43.85744" lon="-1.34986">
        <ele>22.73</ele>
        <time>2016-04-29T07:32:47Z</time>
      </trkpt>
      <trkpt lat="43.85749" lon="-1.34985">
        <ele>22.73</ele>
        <time>2016-04-29T07:32:48Z</time>
      </trkpt>
      <trkpt lat="43.85755" lon="-1.34985">
        <ele>22.25</ele>
        <time>2016-04-29T07:32:49Z</time>
      </trkpt>
      <trkpt lat="43.8576" lon="-1.34985">
        <ele>22.73</ele>
        <time>2016-04-29T07:32:50Z</time>
      </trkpt>
      <trkpt lat="43.85766" lon="-1.34986">
        <ele>21.77</ele>
        <time>2016-04-29T07:32:51Z</time>
      </trkpt>
      <trkpt lat="43.85771" lon="-1.34988">
        <ele>22.73</ele>
        <time>2016-04-29T07:32:52Z</time>
      </trkpt>
      <trkpt lat="43.85776" lon="-1.34992">
        <ele>22.73</ele>
        <time>2016-04-29T07:32:53Z</time>
      </trkpt>
      <trkpt lat="43.85779" lon="-1.34997">
        <ele>22.73</ele>
        <time>2016-04-29T07:32:54Z</time>
      </trkpt>
      <trkpt lat="43.85781" lon="-1.35003">
        <ele>22.73</ele>
        <time>2016-04-29T07:32:55Z</time>
      </trkpt>
      <trkpt lat="43.85783" lon="-1.35009">
        <ele>23.21</ele>
        <time>2016-04-29T07:32:56Z</time>
      </trkpt>
      <trkpt lat="43.85787" lon="-1.35022">
        <ele>23.21</ele>
        <time>2016-04-29T07:32:58Z</time>
      </trkpt>
      <trkpt lat="43.8579" lon="-1.35028">
        <ele>23.21</ele>
        <time>2016-04-29T07:32:59Z</time>
      </trkpt>
      <trkpt lat="43.85796" lon="-1.35042">
        <ele>23.69</ele>
        <time>2016-04-29T07:33:01Z</time>
      </trkpt>
      <trkpt lat="43.85806" lon="-1.35083">
        <ele>24.17</ele>
        <time>2016-04-29T07:33:07Z</time>
      </trkpt>
      <trkpt lat="43.85807" lon="-1.3509">
        <ele>24.17</ele>
        <time>2016-04-29T07:33:08Z</time>
      </trkpt>
      <trkpt lat="43.85812" lon="-1.35127">
        <ele>24.17</ele>
        <time>2016-04-29T07:33:13Z</time>
      </trkpt>
      <trkpt lat="43.85818" lon="-1.35148">
        <ele>23.69</ele>
        <time>2016-04-29T07:33:16Z</time>
      </trkpt>
      <trkpt lat="43.85824" lon="-1.35196">
        <ele>24.65</ele>
        <time>2016-04-29T07:33:22Z</time>
      </trkpt>
      <trkpt lat="43.85823" lon="-1.35203">
        <ele>23.69</ele>
        <time>2016-04-29T07:33:23Z</time>
      </trkpt>
      <trkpt lat="43.85822" lon="-1.35211">
        <ele>23.69</ele>
        <time>2016-04-29T07:33:24Z</time>
      </trkpt>
      <trkpt lat="43.85821" lon="-1.35219">
        <ele>23.69</ele>
        <time>2016-04-29T07:33:25Z</time>
      </trkpt>
      <trkpt lat="43.8582" lon="-1.35227">
        <ele>24.65</ele>
        <time>2016-04-29T07:33:26Z</time>
      </trkpt>
      <trkpt lat="43.8582" lon="-1.35236">
        <ele>24.17</ele>
        <time>2016-04-29T07:33:27Z</time>
      </trkpt>
      <trkpt lat="43.8582" lon="-1.35245">
        <ele>23.69</ele>
        <time>2016-04-29T07:33:28Z</time>
      </trkpt>
      <trkpt lat="43.8582" lon="-1.35253">
        <ele>24.17</ele>
        <time>2016-04-29T07:33:29Z</time>
      </trkpt>
      <trkpt lat="43.85822" lon="-1.35309">
        <ele>24.17</ele>
        <time>2016-04-29T07:33:36Z</time>
      </trkpt>
      <trkpt lat="43.85824" lon="-1.35342">
        <ele>24.17</ele>
        <time>2016-04-29T07:33:40Z</time>
      </trkpt>
      <trkpt lat="43.85824" lon="-1.3535">
        <ele>23.69</ele>
        <time>2016-04-29T07:33:41Z</time>
      </trkpt>
      <trkpt lat="43.85823" lon="-1.35358">
        <ele>23.69</ele>
        <time>2016-04-29T07:33:42Z</time>
      </trkpt>
      <trkpt lat="43.85821" lon="-1.35365">
        <ele>23.69</ele>
        <time>2016-04-29T07:33:43Z</time>
      </trkpt>
      <trkpt lat="43.85819" lon="-1.35372">
        <ele>23.69</ele>
        <time>2016-04-29T07:33:44Z</time>
      </trkpt>
      <trkpt lat="43.85818" lon="-1.35379">
        <ele>23.69</ele>
        <time>2016-04-29T07:33:45Z</time>
      </trkpt>
      <trkpt lat="43.85812" lon="-1.35408">
        <ele>23.21</ele>
        <time>2016-04-29T07:33:49Z</time>
      </trkpt>
      <trkpt lat="43.8581" lon="-1.35431">
        <ele>23.21</ele>
        <time>2016-04-29T07:33:52Z</time>
      </trkpt>
      <trkpt lat="43.85802" lon="-1.35473">
        <ele>21.77</ele>
        <time>2016-04-29T07:33:57Z</time>
      </trkpt>
      <trkpt lat="43.858" lon="-1.35491">
        <ele>21.29</ele>
        <time>2016-04-29T07:33:59Z</time>
      </trkpt>
      <trkpt lat="43.858" lon="-1.35499">
        <ele>21.29</ele>
        <time>2016-04-29T07:34:00Z</time>
      </trkpt>
      <trkpt lat="43.85801" lon="-1.35508">
        <ele>21.29</ele>
        <time>2016-04-29T07:34:01Z</time>
      </trkpt>
      <trkpt lat="43.85802" lon="-1.35517">
        <ele>21.29</ele>
        <time>2016-04-29T07:34:02Z</time>
      </trkpt>
      <trkpt lat="43.85804" lon="-1.35525">
        <ele>21.29</ele>
        <time>2016-04-29T07:34:03Z</time>
      </trkpt>
      <trkpt lat="43.85806" lon="-1.35533">
        <ele>21.29</ele>
        <time>2016-04-29T07:34:04Z</time>
      </trkpt>
      <trkpt lat="43.85808" lon="-1.3554">
        <ele>21.29</ele>
        <time>2016-04-29T07:34:05Z</time>
      </trkpt>
      <trkpt lat="43.85825" lon="-1.35601">
        <ele>21.29</ele>
        <time>2016-04-29T07:34:13Z</time>
      </trkpt>
      <trkpt lat="43.85826" lon="-1.35609">
        <ele>20.81</ele>
        <time>2016-04-29T07:34:14Z</time>
      </trkpt>
      <trkpt lat="43.85831" lon="-1.3565">
        <ele>20.81</ele>
        <time>2016-04-29T07:34:19Z</time>
      </trkpt>
      <trkpt lat="43.85828" lon="-1.35716">
        <ele>19.84</ele>
        <time>2016-04-29T07:34:27Z</time>
      </trkpt>
      <trkpt lat="43.85829" lon="-1.35758">
        <ele>19.36</ele>
        <time>2016-04-29T07:34:32Z</time>
      </trkpt>
      <trkpt lat="43.85827" lon="-1.35774">
        <ele>19.36</ele>
        <time>2016-04-29T07:34:34Z</time>
      </trkpt>
      <trkpt lat="43.85825" lon="-1.3582">
        <ele>18.88</ele>
        <time>2016-04-29T07:34:41Z</time>
      </trkpt>
      <trkpt lat="43.85819" lon="-1.35835">
        <ele>17.92</ele>
        <time>2016-04-29T07:34:45Z</time>
      </trkpt>
      <trkpt lat="43.85816" lon="-1.35837">
        <ele>18.4</ele>
        <time>2016-04-29T07:34:46Z</time>
      </trkpt>
      <trkpt lat="43.85811" lon="-1.35838">
        <ele>17.92</ele>
        <time>2016-04-29T07:34:47Z</time>
      </trkpt>
      <trkpt lat="43.85807" lon="-1.35839">
        <ele>17.92</ele>
        <time>2016-04-29T07:34:48Z</time>
      </trkpt>
      <trkpt lat="43.85802" lon="-1.35839">
        <ele>18.4</ele>
        <time>2016-04-29T07:34:49Z</time>
      </trkpt>
      <trkpt lat="43.85796" lon="-1.35838">
        <ele>17.92</ele>
        <time>2016-04-29T07:34:50Z</time>
      </trkpt>
      <trkpt lat="43.85764" lon="-1.35834">
        <ele>18.4</ele>
        <time>2016-04-29T07:34:56Z</time>
      </trkpt>
      <trkpt lat="43.85711" lon="-1.35824">
        <ele>20.32</ele>
        <time>2016-04-29T07:35:06Z</time>
      </trkpt>
      <trkpt lat="43.8568" lon="-1.35821">
        <ele>21.77</ele>
        <time>2016-04-29T07:35:12Z</time>
      </trkpt>
      <trkpt lat="43.85675" lon="-1.35822">
        <ele>21.29</ele>
        <time>2016-04-29T07:35:13Z</time>
      </trkpt>
      <trkpt lat="43.8567" lon="-1.35823">
        <ele>21.77</ele>
        <time>2016-04-29T07:35:14Z</time>
      </trkpt>
      <trkpt lat="43.85633" lon="-1.35835">
        <ele>22.25</ele>
        <time>2016-04-29T07:35:21Z</time>
      </trkpt>
      <trkpt lat="43.85586" lon="-1.35851">
        <ele>20.81</ele>
        <time>2016-04-29T07:35:28Z</time>
      </trkpt>
      <trkpt lat="43.85528" lon="-1.35857">
        <ele>19.84</ele>
        <time>2016-04-29T07:35:36Z</time>
      </trkpt>
      <trkpt lat="43.85514" lon="-1.35859">
        <ele>19.36</ele>
        <time>2016-04-29T07:35:38Z</time>
      </trkpt>
      <trkpt lat="43.85508" lon="-1.35862">
        <ele>19.36</ele>
        <time>2016-04-29T07:35:39Z</time>
      </trkpt>
      <trkpt lat="43.85465" lon="-1.35885">
        <ele>19.36</ele>
        <time>2016-04-29T07:35:46Z</time>
      </trkpt>
      <trkpt lat="43.85432" lon="-1.35906">
        <ele>17.92</ele>
        <time>2016-04-29T07:35:51Z</time>
      </trkpt>
      <trkpt lat="43.85425" lon="-1.35909">
        <ele>17.92</ele>
        <time>2016-04-29T07:35:52Z</time>
      </trkpt>
      <trkpt lat="43.85418" lon="-1.35911">
        <ele>18.4</ele>
        <time>2016-04-29T07:35:53Z</time>
      </trkpt>
      <trkpt lat="43.85365" lon="-1.35917">
        <ele>17.92</ele>
        <time>2016-04-29T07:36:01Z</time>
      </trkpt>
      <trkpt lat="43.85318" lon="-1.35908">
        <ele>18.4</ele>
        <time>2016-04-29T07:36:09Z</time>
      </trkpt>
      <trkpt lat="43.8527" lon="-1.35907">
        <ele>18.88</ele>
        <time>2016-04-29T07:36:17Z</time>
      </trkpt>
      <trkpt lat="43.85231" lon="-1.35925">
        <ele>19.36</ele>
        <time>2016-04-29T07:36:24Z</time>
      </trkpt>
      <trkpt lat="43.85178" lon="-1.35953">
        <ele>20.81</ele>
        <time>2016-04-29T07:36:34Z</time>
      </trkpt>
      <trkpt lat="43.85168" lon="-1.35962">
        <ele>20.32</ele>
        <time>2016-04-29T07:36:36Z</time>
      </trkpt>
      <trkpt lat="43.85163" lon="-1.35968">
        <ele>19.84</ele>
        <time>2016-04-29T07:36:37Z</time>
      </trkpt>
      <trkpt lat="43.85159" lon="-1.35974">
        <ele>19.84</ele>
        <time>2016-04-29T07:36:38Z</time>
      </trkpt>
      <trkpt lat="43.85156" lon="-1.35982">
        <ele>19.84</ele>
        <time>2016-04-29T07:36:39Z</time>
      </trkpt>
      <trkpt lat="43.85155" lon="-1.3599">
        <ele>19.84</ele>
        <time>2016-04-29T07:36:40Z</time>
      </trkpt>
      <trkpt lat="43.85155" lon="-1.35998">
        <ele>19.84</ele>
        <time>2016-04-29T07:36:41Z</time>
      </trkpt>
      <trkpt lat="43.85157" lon="-1.36007">
        <ele>19.84</ele>
        <time>2016-04-29T07:36:42Z</time>
      </trkpt>
      <trkpt lat="43.8516" lon="-1.36015">
        <ele>19.84</ele>
        <time>2016-04-29T07:36:43Z</time>
      </trkpt>
      <trkpt lat="43.85188" lon="-1.36091">
        <ele>18.88</ele>
        <time>2016-04-29T07:36:52Z</time>
      </trkpt>
      <trkpt lat="43.85213" lon="-1.36162">
        <ele>18.88</ele>
        <time>2016-04-29T07:37:00Z</time>
      </trkpt>
      <trkpt lat="43.85232" lon="-1.36244">
        <ele>18.88</ele>
        <time>2016-04-29T07:37:09Z</time>
      </trkpt>
      <trkpt lat="43.85237" lon="-1.36319">
        <ele>18.88</ele>
        <time>2016-04-29T07:37:17Z</time>
      </trkpt>
      <trkpt lat="43.85234" lon="-1.36395">
        <ele>16.96</ele>
        <time>2016-04-29T07:37:25Z</time>
      </trkpt>
      <trkpt lat="43.85231" lon="-1.36486">
        <ele>16</ele>
        <time>2016-04-29T07:37:34Z</time>
      </trkpt>
      <trkpt lat="43.85235" lon="-1.36563">
        <ele>16.48</ele>
        <time>2016-04-29T07:37:42Z</time>
      </trkpt>
      <trkpt lat="43.85239" lon="-1.36581">
        <ele>16.48</ele>
        <time>2016-04-29T07:37:44Z</time>
      </trkpt>
      <trkpt lat="43.85268" lon="-1.36655">
        <ele>16.96</ele>
        <time>2016-04-29T07:37:53Z</time>
      </trkpt>
      <trkpt lat="43.85291" lon="-1.36719">
        <ele>18.88</ele>
        <time>2016-04-29T07:38:01Z</time>
      </trkpt>
      <trkpt lat="43.85296" lon="-1.36776">
        <ele>20.32</ele>
        <time>2016-04-29T07:38:08Z</time>
      </trkpt>
      <trkpt lat="43.85297" lon="-1.3685">
        <ele>22.25</ele>
        <time>2016-04-29T07:38:17Z</time>
      </trkpt>
      <trkpt lat="43.85298" lon="-1.36888">
        <ele>22.73</ele>
        <time>2016-04-29T07:38:22Z</time>
      </trkpt>
      <trkpt lat="43.85299" lon="-1.36895">
        <ele>22.73</ele>
        <time>2016-04-29T07:38:23Z</time>
      </trkpt>
      <trkpt lat="43.85302" lon="-1.36902">
        <ele>22.25</ele>
        <time>2016-04-29T07:38:24Z</time>
      </trkpt>
      <trkpt lat="43.85305" lon="-1.36909">
        <ele>22.25</ele>
        <time>2016-04-29T07:38:25Z</time>
      </trkpt>
      <trkpt lat="43.85309" lon="-1.36916">
        <ele>21.77</ele>
        <time>2016-04-29T07:38:26Z</time>
      </trkpt>
      <trkpt lat="43.85313" lon="-1.36923">
        <ele>21.29</ele>
        <time>2016-04-29T07:38:27Z</time>
      </trkpt>
      <trkpt lat="43.85317" lon="-1.3693">
        <ele>20.81</ele>
        <time>2016-04-29T07:38:28Z</time>
      </trkpt>
      <trkpt lat="43.85322" lon="-1.36939">
        <ele>20.32</ele>
        <time>2016-04-29T07:38:29Z</time>
      </trkpt>
      <trkpt lat="43.85344" lon="-1.36973">
        <ele>16.96</ele>
        <time>2016-04-29T07:38:33Z</time>
      </trkpt>
      <trkpt lat="43.8535" lon="-1.36979">
        <ele>16.48</ele>
        <time>2016-04-29T07:38:34Z</time>
      </trkpt>
      <trkpt lat="43.85357" lon="-1.36983">
        <ele>16</ele>
        <time>2016-04-29T07:38:35Z</time>
      </trkpt>
      <trkpt lat="43.85364" lon="-1.36986">
        <ele>15.52</ele>
        <time>2016-04-29T07:38:36Z</time>
      </trkpt>
      <trkpt lat="43.85372" lon="-1.36987">
        <ele>15.04</ele>
        <time>2016-04-29T07:38:37Z</time>
      </trkpt>
      <trkpt lat="43.8538" lon="-1.36986">
        <ele>15.52</ele>
        <time>2016-04-29T07:38:38Z</time>
      </trkpt>
      <trkpt lat="43.85387" lon="-1.36986">
        <ele>15.04</ele>
        <time>2016-04-29T07:38:39Z</time>
      </trkpt>
      <trkpt lat="43.85435" lon="-1.36987">
        <ele>13.6</ele>
        <time>2016-04-29T07:38:46Z</time>
      </trkpt>
      <trkpt lat="43.85484" lon="-1.36999">
        <ele>14.56</ele>
        <time>2016-04-29T07:38:53Z</time>
      </trkpt>
      <trkpt lat="43.8553" lon="-1.37016">
        <ele>13.6</ele>
        <time>2016-04-29T07:39:01Z</time>
      </trkpt>
      <trkpt lat="43.85567" lon="-1.37037">
        <ele>13.12</ele>
        <time>2016-04-29T07:39:08Z</time>
      </trkpt>
      <trkpt lat="43.85573" lon="-1.37039">
        <ele>13.12</ele>
        <time>2016-04-29T07:39:09Z</time>
      </trkpt>
      <trkpt lat="43.85586" lon="-1.37049">
        <ele>13.12</ele>
        <time>2016-04-29T07:39:12Z</time>
      </trkpt>
      <trkpt lat="43.85591" lon="-1.37053">
        <ele>13.12</ele>
        <time>2016-04-29T07:39:13Z</time>
      </trkpt>
      <trkpt lat="43.85595" lon="-1.37057">
        <ele>13.12</ele>
        <time>2016-04-29T07:39:14Z</time>
      </trkpt>
      <trkpt lat="43.85608" lon="-1.3707">
        <ele>13.12</ele>
        <time>2016-04-29T07:39:17Z</time>
      </trkpt>
      <trkpt lat="43.85612" lon="-1.37072">
        <ele>13.12</ele>
        <time>2016-04-29T07:39:18Z</time>
      </trkpt>
      <trkpt lat="43.85657" lon="-1.37121">
        <ele>14.08</ele>
        <time>2016-04-29T07:40:27Z</time>
      </trkpt>
      <trkpt lat="43.85659" lon="-1.37128">
        <ele>14.56</ele>
        <time>2016-04-29T07:40:28Z</time>
      </trkpt>
      <trkpt lat="43.85677" lon="-1.3718">
        <ele>13.6</ele>
        <time>2016-04-29T07:40:35Z</time>
      </trkpt>
      <trkpt lat="43.85694" lon="-1.37224">
        <ele>11.67</ele>
        <time>2016-04-29T07:40:41Z</time>
      </trkpt>
      <trkpt lat="43.85699" lon="-1.3723">
        <ele>12.15</ele>
        <time>2016-04-29T07:40:42Z</time>
      </trkpt>
      <trkpt lat="43.85704" lon="-1.37236">
        <ele>12.15</ele>
        <time>2016-04-29T07:40:43Z</time>
      </trkpt>
      <trkpt lat="43.85744" lon="-1.37264">
        <ele>12.15</ele>
        <time>2016-04-29T07:40:50Z</time>
      </trkpt>
      <trkpt lat="43.85753" lon="-1.37274">
        <ele>11.67</ele>
        <time>2016-04-29T07:40:52Z</time>
      </trkpt>
      <trkpt lat="43.85774" lon="-1.37308">
        <ele>12.15</ele>
        <time>2016-04-29T07:40:58Z</time>
      </trkpt>
      <trkpt lat="43.85799" lon="-1.3734">
        <ele>11.67</ele>
        <time>2016-04-29T07:41:05Z</time>
      </trkpt>
      <trkpt lat="43.85802" lon="-1.37347">
        <ele>12.15</ele>
        <time>2016-04-29T07:41:06Z</time>
      </trkpt>
      <trkpt lat="43.85811" lon="-1.37374">
        <ele>12.15</ele>
        <time>2016-04-29T07:41:10Z</time>
      </trkpt>
      <trkpt lat="43.85813" lon="-1.37382">
        <ele>12.15</ele>
        <time>2016-04-29T07:41:11Z</time>
      </trkpt>
      <trkpt lat="43.85814" lon="-1.37389">
        <ele>12.15</ele>
        <time>2016-04-29T07:41:12Z</time>
      </trkpt>
      <trkpt lat="43.85814" lon="-1.37396">
        <ele>12.15</ele>
        <time>2016-04-29T07:41:13Z</time>
      </trkpt>
      <trkpt lat="43.85815" lon="-1.37404">
        <ele>12.15</ele>
        <time>2016-04-29T07:41:14Z</time>
      </trkpt>
      <trkpt lat="43.85815" lon="-1.37446">
        <ele>12.63</ele>
        <time>2016-04-29T07:41:20Z</time>
      </trkpt>
      <trkpt lat="43.85818" lon="-1.37472">
        <ele>13.6</ele>
        <time>2016-04-29T07:41:24Z</time>
      </trkpt>
      <trkpt lat="43.8582" lon="-1.37479">
        <ele>14.08</ele>
        <time>2016-04-29T07:41:25Z</time>
      </trkpt>
      <trkpt lat="43.85828" lon="-1.37501">
        <ele>14.08</ele>
        <time>2016-04-29T07:41:29Z</time>
      </trkpt>
      <trkpt lat="43.85831" lon="-1.37506">
        <ele>13.6</ele>
        <time>2016-04-29T07:41:30Z</time>
      </trkpt>
      <trkpt lat="43.85834" lon="-1.37511">
        <ele>13.12</ele>
        <time>2016-04-29T07:41:31Z</time>
      </trkpt>
      <trkpt lat="43.85839" lon="-1.37515">
        <ele>14.08</ele>
        <time>2016-04-29T07:41:32Z</time>
      </trkpt>
      <trkpt lat="43.85844" lon="-1.37518">
        <ele>14.08</ele>
        <time>2016-04-29T07:41:33Z</time>
      </trkpt>
      <trkpt lat="43.85849" lon="-1.3752">
        <ele>13.6</ele>
        <time>2016-04-29T07:41:34Z</time>
      </trkpt>
      <trkpt lat="43.85855" lon="-1.37522">
        <ele>13.6</ele>
        <time>2016-04-29T07:41:35Z</time>
      </trkpt>
      <trkpt lat="43.85874" lon="-1.37527">
        <ele>11.67</ele>
        <time>2016-04-29T07:41:38Z</time>
      </trkpt>
      <trkpt lat="43.8588" lon="-1.37531">
        <ele>11.19</ele>
        <time>2016-04-29T07:41:39Z</time>
      </trkpt>
      <trkpt lat="43.85885" lon="-1.37537">
        <ele>10.71</ele>
        <time>2016-04-29T07:41:40Z</time>
      </trkpt>
      <trkpt lat="43.85896" lon="-1.37548">
        <ele>11.19</ele>
        <time>2016-04-29T07:41:42Z</time>
      </trkpt>
      <trkpt lat="43.85902" lon="-1.3755">
        <ele>10.71</ele>
        <time>2016-04-29T07:41:43Z</time>
      </trkpt>
      <trkpt lat="43.85909" lon="-1.37552">
        <ele>11.19</ele>
        <time>2016-04-29T07:41:44Z</time>
      </trkpt>
      <trkpt lat="43.85915" lon="-1.37553">
        <ele>11.19</ele>
        <time>2016-04-29T07:41:45Z</time>
      </trkpt>
      <trkpt lat="43.85922" lon="-1.37555">
        <ele>11.19</ele>
        <time>2016-04-29T07:41:46Z</time>
      </trkpt>
      <trkpt lat="43.85928" lon="-1.37558">
        <ele>11.19</ele>
        <time>2016-04-29T07:41:47Z</time>
      </trkpt>
      <trkpt lat="43.85934" lon="-1.37563">
        <ele>10.71</ele>
        <time>2016-04-29T07:41:48Z</time>
      </trkpt>
      <trkpt lat="43.8594" lon="-1.37567">
        <ele>10.71</ele>
        <time>2016-04-29T07:41:49Z</time>
      </trkpt>
      <trkpt lat="43.85945" lon="-1.37573">
        <ele>11.19</ele>
        <time>2016-04-29T07:41:50Z</time>
      </trkpt>
      <trkpt lat="43.8595" lon="-1.37581">
        <ele>10.71</ele>
        <time>2016-04-29T07:41:51Z</time>
      </trkpt>
      <trkpt lat="43.85955" lon="-1.37587">
        <ele>10.71</ele>
        <time>2016-04-29T07:41:52Z</time>
      </trkpt>
      <trkpt lat="43.85959" lon="-1.37592">
        <ele>11.19</ele>
        <time>2016-04-29T07:41:53Z</time>
      </trkpt>
      <trkpt lat="43.85962" lon="-1.37598">
        <ele>11.19</ele>
        <time>2016-04-29T07:41:54Z</time>
      </trkpt>
      <trkpt lat="43.85966" lon="-1.37603">
        <ele>10.71</ele>
        <time>2016-04-29T07:41:55Z</time>
      </trkpt>
      <trkpt lat="43.85974" lon="-1.37614">
        <ele>11.19</ele>
        <time>2016-04-29T07:41:57Z</time>
      </trkpt>
      <trkpt lat="43.8598" lon="-1.37626">
        <ele>10.71</ele>
        <time>2016-04-29T07:41:59Z</time>
      </trkpt>
      <trkpt lat="43.85982" lon="-1.37633">
        <ele>11.19</ele>
        <time>2016-04-29T07:42:00Z</time>
      </trkpt>
      <trkpt lat="43.85984" lon="-1.3764">
        <ele>11.19</ele>
        <time>2016-04-29T07:42:01Z</time>
      </trkpt>
      <trkpt lat="43.85986" lon="-1.37647">
        <ele>11.67</ele>
        <time>2016-04-29T07:42:02Z</time>
      </trkpt>
      <trkpt lat="43.85988" lon="-1.37655">
        <ele>11.19</ele>
        <time>2016-04-29T07:42:03Z</time>
      </trkpt>
      <trkpt lat="43.85989" lon="-1.37662">
        <ele>11.19</ele>
        <time>2016-04-29T07:42:04Z</time>
      </trkpt>
      <trkpt lat="43.85992" lon="-1.3767">
        <ele>11.19</ele>
        <time>2016-04-29T07:42:05Z</time>
      </trkpt>
      <trkpt lat="43.85996" lon="-1.37676">
        <ele>10.71</ele>
        <time>2016-04-29T07:42:06Z</time>
      </trkpt>
      <trkpt lat="43.86004" lon="-1.37699">
        <ele>10.71</ele>
        <time>2016-04-29T07:42:21Z</time>
      </trkpt>
      <trkpt lat="43.86003" lon="-1.37701">
        <ele>10.71</ele>
        <time>2016-04-29T07:42:22Z</time>
      </trkpt>
      <trkpt lat="43.86003" lon="-1.37704">
        <ele>11.19</ele>
        <time>2016-04-29T07:42:23Z</time>
      </trkpt>
      <trkpt lat="43.86003" lon="-1.37707">
        <ele>11.19</ele>
        <time>2016-04-29T07:42:24Z</time>
      </trkpt>
      <trkpt lat="43.86004" lon="-1.37711">
        <ele>10.71</ele>
        <time>2016-04-29T07:42:25Z</time>
      </trkpt>
      <trkpt lat="43.86005" lon="-1.37729">
        <ele>11.19</ele>
        <time>2016-04-29T07:42:28Z</time>
      </trkpt>
      <trkpt lat="43.86008" lon="-1.37741">
        <ele>11.67</ele>
        <time>2016-04-29T07:42:30Z</time>
      </trkpt>
      <trkpt lat="43.86012" lon="-1.37752">
        <ele>11.67</ele>
        <time>2016-04-29T07:42:32Z</time>
      </trkpt>
      <trkpt lat="43.86015" lon="-1.37764">
        <ele>11.19</ele>
        <time>2016-04-29T07:42:34Z</time>
      </trkpt>
      <trkpt lat="43.86016" lon="-1.37771">
        <ele>11.67</ele>
        <time>2016-04-29T07:42:35Z</time>
      </trkpt>
      <trkpt lat="43.86017" lon="-1.37778">
        <ele>11.67</ele>
        <time>2016-04-29T07:42:36Z</time>
      </trkpt>
      <trkpt lat="43.86018" lon="-1.37783">
        <ele>11.19</ele>
        <time>2016-04-29T07:42:37Z</time>
      </trkpt>
      <trkpt lat="43.8602" lon="-1.37789">
        <ele>11.67</ele>
        <time>2016-04-29T07:42:38Z</time>
      </trkpt>
      <trkpt lat="43.86021" lon="-1.37795">
        <ele>11.67</ele>
        <time>2016-04-29T07:42:39Z</time>
      </trkpt>
      <trkpt lat="43.86023" lon="-1.37801">
        <ele>11.67</ele>
        <time>2016-04-29T07:42:40Z</time>
      </trkpt>
      <trkpt lat="43.86027" lon="-1.37813">
        <ele>12.15</ele>
        <time>2016-04-29T07:42:42Z</time>
      </trkpt>
      <trkpt lat="43.8603" lon="-1.37818">
        <ele>12.15</ele>
        <time>2016-04-29T07:42:43Z</time>
      </trkpt>
      <trkpt lat="43.86033" lon="-1.37823">
        <ele>12.15</ele>
        <time>2016-04-29T07:42:44Z</time>
      </trkpt>
      <trkpt lat="43.86036" lon="-1.37828">
        <ele>12.15</ele>
        <time>2016-04-29T07:42:45Z</time>
      </trkpt>
      <trkpt lat="43.8604" lon="-1.37831">
        <ele>11.67</ele>
        <time>2016-04-29T07:42:46Z</time>
      </trkpt>
      <trkpt lat="43.86043" lon="-1.37835">
        <ele>11.67</ele>
        <time>2016-04-29T07:42:47Z</time>
      </trkpt>
      <trkpt lat="43.86068" lon="-1.37869">
        <ele>10.71</ele>
        <time>2016-04-29T07:42:55Z</time>
      </trkpt>
      <trkpt lat="43.86075" lon="-1.37878">
        <ele>11.19</ele>
        <time>2016-04-29T07:42:57Z</time>
      </trkpt>
      <trkpt lat="43.86081" lon="-1.37886">
        <ele>11.19</ele>
        <time>2016-04-29T07:42:59Z</time>
      </trkpt>
      <trkpt lat="43.86085" lon="-1.37887">
        <ele>11.19</ele>
        <time>2016-04-29T07:43:00Z</time>
      </trkpt>
      <trkpt lat="43.86088" lon="-1.37887">
        <ele>11.19</ele>
        <time>2016-04-29T07:43:01Z</time>
      </trkpt>
      <trkpt lat="43.86091" lon="-1.37885">
        <ele>10.71</ele>
        <time>2016-04-29T07:43:02Z</time>
      </trkpt>
      <trkpt lat="43.86095" lon="-1.37882">
        <ele>11.19</ele>
        <time>2016-04-29T07:43:03Z</time>
      </trkpt>
      <trkpt lat="43.86121" lon="-1.3787">
        <ele>11.19</ele>
        <time>2016-04-29T07:43:09Z</time>
      </trkpt>
      <trkpt lat="43.86131" lon="-1.37866">
        <ele>10.71</ele>
        <time>2016-04-29T07:43:11Z</time>
      </trkpt>
      <trkpt lat="43.86158" lon="-1.37846">
        <ele>11.67</ele>
        <time>2016-04-29T07:43:17Z</time>
      </trkpt>
      <trkpt lat="43.86184" lon="-1.37818">
        <ele>11.67</ele>
        <time>2016-04-29T07:43:23Z</time>
      </trkpt>
      <trkpt lat="43.86188" lon="-1.37814">
        <ele>11.19</ele>
        <time>2016-04-29T07:43:24Z</time>
      </trkpt>
      <trkpt lat="43.86193" lon="-1.37811">
        <ele>11.67</ele>
        <time>2016-04-29T07:43:25Z</time>
      </trkpt>
      <trkpt lat="43.86219" lon="-1.37802">
        <ele>11.67</ele>
        <time>2016-04-29T07:43:30Z</time>
      </trkpt>
      <trkpt lat="43.86233" lon="-1.37795">
        <ele>12.15</ele>
        <time>2016-04-29T07:43:33Z</time>
      </trkpt>
      <trkpt lat="43.86237" lon="-1.37792">
        <ele>12.15</ele>
        <time>2016-04-29T07:43:34Z</time>
      </trkpt>
      <trkpt lat="43.86247" lon="-1.37781">
        <ele>12.63</ele>
        <time>2016-04-29T07:43:37Z</time>
      </trkpt>
      <trkpt lat="43.86252" lon="-1.37778">
        <ele>12.15</ele>
        <time>2016-04-29T07:43:38Z</time>
      </trkpt>
      <trkpt lat="43.86256" lon="-1.37775">
        <ele>12.15</ele>
        <time>2016-04-29T07:43:39Z</time>
      </trkpt>
      <trkpt lat="43.86262" lon="-1.37772">
        <ele>12.15</ele>
        <time>2016-04-29T07:43:40Z</time>
      </trkpt>
      <trkpt lat="43.86267" lon="-1.37769">
        <ele>11.67</ele>
        <time>2016-04-29T07:43:41Z</time>
      </trkpt>
      <trkpt lat="43.86272" lon="-1.37767">
        <ele>12.15</ele>
        <time>2016-04-29T07:43:42Z</time>
      </trkpt>
      <trkpt lat="43.86277" lon="-1.37767">
        <ele>11.67</ele>
        <time>2016-04-29T07:43:43Z</time>
      </trkpt>
      <trkpt lat="43.86282" lon="-1.37769">
        <ele>11.67</ele>
        <time>2016-04-29T07:43:44Z</time>
      </trkpt>
      <trkpt lat="43.86286" lon="-1.37772">
        <ele>12.15</ele>
        <time>2016-04-29T07:43:45Z</time>
      </trkpt>
      <trkpt lat="43.8629" lon="-1.37775">
        <ele>11.67</ele>
        <time>2016-04-29T07:43:46Z</time>
      </trkpt>
      <trkpt lat="43.86294" lon="-1.37779">
        <ele>12.15</ele>
        <time>2016-04-29T07:43:47Z</time>
      </trkpt>
      <trkpt lat="43.86309" lon="-1.37795">
        <ele>12.63</ele>
        <time>2016-04-29T07:43:51Z</time>
      </trkpt>
      <trkpt lat="43.86322" lon="-1.37812">
        <ele>12.15</ele>
        <time>2016-04-29T07:43:55Z</time>
      </trkpt>
      <trkpt lat="43.86331" lon="-1.37822">
        <ele>13.12</ele>
        <time>2016-04-29T07:43:59Z</time>
      </trkpt>
      <trkpt lat="43.86333" lon="-1.37821">
        <ele>12.63</ele>
        <time>2016-04-29T07:44:00Z</time>
      </trkpt>
      <trkpt lat="43.86335" lon="-1.37817">
        <ele>12.63</ele>
        <time>2016-04-29T07:44:01Z</time>
      </trkpt>
      <trkpt lat="43.86337" lon="-1.37814">
        <ele>12.63</ele>
        <time>2016-04-29T07:44:02Z</time>
      </trkpt>
      <trkpt lat="43.8634" lon="-1.37809">
        <ele>12.63</ele>
        <time>2016-04-29T07:44:03Z</time>
      </trkpt>
      <trkpt lat="43.86359" lon="-1.37779">
        <ele>13.12</ele>
        <time>2016-04-29T07:44:09Z</time>
      </trkpt>
      <trkpt lat="43.86361" lon="-1.37774">
        <ele>12.63</ele>
        <time>2016-04-29T07:44:10Z</time>
      </trkpt>
      <trkpt lat="43.86375" lon="-1.37747">
        <ele>12.63</ele>
        <time>2016-04-29T07:44:15Z</time>
      </trkpt>
      <trkpt lat="43.86379" lon="-1.37743">
        <ele>12.15</ele>
        <time>2016-04-29T07:44:16Z</time>
      </trkpt>
      <trkpt lat="43.86395" lon="-1.37727">
        <ele>12.63</ele>
        <time>2016-04-29T07:44:20Z</time>
      </trkpt>
      <trkpt lat="43.864" lon="-1.37724">
        <ele>12.63</ele>
        <time>2016-04-29T07:44:21Z</time>
      </trkpt>
      <trkpt lat="43.86404" lon="-1.37722">
        <ele>12.15</ele>
        <time>2016-04-29T07:44:22Z</time>
      </trkpt>
      <trkpt lat="43.86435" lon="-1.37708">
        <ele>12.63</ele>
        <time>2016-04-29T07:44:28Z</time>
      </trkpt>
      <trkpt lat="43.86447" lon="-1.37705">
        <ele>11.67</ele>
        <time>2016-04-29T07:44:30Z</time>
      </trkpt>
      <trkpt lat="43.8648" lon="-1.37688">
        <ele>11.67</ele>
        <time>2016-04-29T07:44:36Z</time>
      </trkpt>
      <trkpt lat="43.86514" lon="-1.37665">
        <ele>11.67</ele>
        <time>2016-04-29T07:44:43Z</time>
      </trkpt>
      <trkpt lat="43.86522" lon="-1.37658">
        <ele>12.15</ele>
        <time>2016-04-29T07:44:45Z</time>
      </trkpt>
      <trkpt lat="43.86526" lon="-1.37653">
        <ele>11.67</ele>
        <time>2016-04-29T07:44:46Z</time>
      </trkpt>
      <trkpt lat="43.8653" lon="-1.37648">
        <ele>12.63</ele>
        <time>2016-04-29T07:44:47Z</time>
      </trkpt>
      <trkpt lat="43.86559" lon="-1.376">
        <ele>12.63</ele>
        <time>2016-04-29T07:44:56Z</time>
      </trkpt>
      <trkpt lat="43.86566" lon="-1.37591">
        <ele>12.63</ele>
        <time>2016-04-29T07:45:00Z</time>
      </trkpt>
      <trkpt lat="43.86569" lon="-1.37589">
        <ele>12.63</ele>
        <time>2016-04-29T07:45:11Z</time>
      </trkpt>
      <trkpt lat="43.86573" lon="-1.37585">
        <ele>12.63</ele>
        <time>2016-04-29T07:45:17Z</time>
      </trkpt>
      <trkpt lat="43.86573" lon="-1.37586">
        <ele>12.15</ele>
        <time>2016-04-29T07:45:22Z</time>
      </trkpt>
      <trkpt lat="43.86572" lon="-1.37589">
        <ele>12.63</ele>
        <time>2016-04-29T07:45:50Z</time>
      </trkpt>
      <trkpt lat="43.86574" lon="-1.37588">
        <ele>12.15</ele>
        <time>2016-04-29T07:46:14Z</time>
      </trkpt>
      <trkpt lat="43.86573" lon="-1.37588">
        <ele>12.15</ele>
        <time>2016-04-29T07:46:29Z</time>
      </trkpt>
      <trkpt lat="43.86573" lon="-1.37586">
        <ele>12.15</ele>
        <time>2016-04-29T07:46:30Z</time>
      </trkpt>
      <trkpt lat="43.86574" lon="-1.37585">
        <ele>12.63</ele>
        <time>2016-04-29T07:46:31Z</time>
      </trkpt>
      <trkpt lat="43.86575" lon="-1.37585">
        <ele>12.63</ele>
        <time>2016-04-29T07:46:32Z</time>
      </trkpt>
      <trkpt lat="43.86576" lon="-1.37584">
        <ele>12.63</ele>
        <time>2016-04-29T07:46:33Z</time>
      </trkpt>
      <trkpt lat="43.86578" lon="-1.37583">
        <ele>12.63</ele>
        <time>2016-04-29T07:46:34Z</time>
      </trkpt>
      <trkpt lat="43.86579" lon="-1.37582">
        <ele>12.63</ele>
        <time>2016-04-29T07:46:35Z</time>
      </trkpt>
      <trkpt lat="43.8658" lon="-1.37582">
        <ele>12.63</ele>
        <time>2016-04-29T07:46:36Z</time>
      </trkpt>
      <trkpt lat="43.86581" lon="-1.37582">
        <ele>12.15</ele>
        <time>2016-04-29T07:46:41Z</time>
      </trkpt>
      <trkpt lat="43.86582" lon="-1.37582">
        <ele>12.15</ele>
        <time>2016-04-29T07:47:08Z</time>
      </trkpt>
      <trkpt lat="43.86582" lon="-1.37582">
        <ele>11.67</ele>
        <time>2016-04-29T07:47:31Z</time>
      </trkpt>
      <trkpt lat="43.86582" lon="-1.37582">
        <ele>11.67</ele>
        <time>2016-04-29T07:47:51Z</time>
      </trkpt>
      <trkpt lat="43.86583" lon="-1.3758">
        <ele>12.63</ele>
        <time>2016-04-29T07:48:07Z</time>
      </trkpt>
      <trkpt lat="43.86584" lon="-1.37579">
        <ele>12.63</ele>
        <time>2016-04-29T07:48:08Z</time>
      </trkpt>
      <trkpt lat="43.86585" lon="-1.37579">
        <ele>12.63</ele>
        <time>2016-04-29T07:48:09Z</time>
      </trkpt>
      <trkpt lat="43.86587" lon="-1.37578">
        <ele>12.63</ele>
        <time>2016-04-29T07:48:10Z</time>
      </trkpt>
      <trkpt lat="43.8659" lon="-1.37577">
        <ele>12.63</ele>
        <time>2016-04-29T07:48:11Z</time>
      </trkpt>
      <trkpt lat="43.86593" lon="-1.37576">
        <ele>12.63</ele>
        <time>2016-04-29T07:48:12Z</time>
      </trkpt>
      <trkpt lat="43.86607" lon="-1.37558">
        <ele>13.6</ele>
        <time>2016-04-29T07:48:18Z</time>
      </trkpt>
      <trkpt lat="43.8662" lon="-1.37554">
        <ele>13.6</ele>
        <time>2016-04-29T07:48:23Z</time>
      </trkpt>
      <trkpt lat="43.86636" lon="-1.37563">
        <ele>13.6</ele>
        <time>2016-04-29T07:48:29Z</time>
      </trkpt>
      <trkpt lat="43.86638" lon="-1.37564">
        <ele>13.12</ele>
        <time>2016-04-29T07:48:35Z</time>
      </trkpt>
      <trkpt lat="43.86646" lon="-1.37571">
        <ele>13.12</ele>
        <time>2016-04-29T07:48:40Z</time>
      </trkpt>
      <trkpt lat="43.86654" lon="-1.37577">
        <ele>12.15</ele>
        <time>2016-04-29T07:48:42Z</time>
      </trkpt>
      <trkpt lat="43.86688" lon="-1.37586">
        <ele>10.71</ele>
        <time>2016-04-29T07:48:48Z</time>
      </trkpt>
      <trkpt lat="43.86709" lon="-1.37591">
        <ele>10.71</ele>
        <time>2016-04-29T07:48:52Z</time>
      </trkpt>
      <trkpt lat="43.86736" lon="-1.37593">
        <ele>10.23</ele>
        <time>2016-04-29T07:48:57Z</time>
      </trkpt>
      <trkpt lat="43.86741" lon="-1.37592">
        <ele>10.23</ele>
        <time>2016-04-29T07:48:58Z</time>
      </trkpt>
      <trkpt lat="43.86747" lon="-1.37592">
        <ele>10.71</ele>
        <time>2016-04-29T07:48:59Z</time>
      </trkpt>
      <trkpt lat="43.86752" lon="-1.37592">
        <ele>10.23</ele>
        <time>2016-04-29T07:49:00Z</time>
      </trkpt>
      <trkpt lat="43.86757" lon="-1.37593">
        <ele>9.75</ele>
        <time>2016-04-29T07:49:01Z</time>
      </trkpt>
      <trkpt lat="43.86762" lon="-1.37592">
        <ele>10.71</ele>
        <time>2016-04-29T07:49:02Z</time>
      </trkpt>
      <trkpt lat="43.86766" lon="-1.37591">
        <ele>11.19</ele>
        <time>2016-04-29T07:49:03Z</time>
      </trkpt>
      <trkpt lat="43.86781" lon="-1.37585">
        <ele>10.71</ele>
        <time>2016-04-29T07:49:06Z</time>
      </trkpt>
      <trkpt lat="43.86791" lon="-1.37582">
        <ele>11.19</ele>
        <time>2016-04-29T07:49:08Z</time>
      </trkpt>
      <trkpt lat="43.86796" lon="-1.37581">
        <ele>11.19</ele>
        <time>2016-04-29T07:49:09Z</time>
      </trkpt>
      <trkpt lat="43.86819" lon="-1.37572">
        <ele>12.15</ele>
        <time>2016-04-29T07:49:14Z</time>
      </trkpt>
      <trkpt lat="43.86823" lon="-1.37568">
        <ele>12.15</ele>
        <time>2016-04-29T07:49:15Z</time>
      </trkpt>
      <trkpt lat="43.86826" lon="-1.37563">
        <ele>12.63</ele>
        <time>2016-04-29T07:49:16Z</time>
      </trkpt>
      <trkpt lat="43.8683" lon="-1.37559">
        <ele>11.67</ele>
        <time>2016-04-29T07:49:17Z</time>
      </trkpt>
      <trkpt lat="43.86834" lon="-1.37555">
        <ele>11.67</ele>
        <time>2016-04-29T07:49:18Z</time>
      </trkpt>
      <trkpt lat="43.8684" lon="-1.37549">
        <ele>11.67</ele>
        <time>2016-04-29T07:49:20Z</time>
      </trkpt>
      <trkpt lat="43.86844" lon="-1.37546">
        <ele>11.67</ele>
        <time>2016-04-29T07:49:21Z</time>
      </trkpt>
      <trkpt lat="43.86848" lon="-1.37545">
        <ele>11.19</ele>
        <time>2016-04-29T07:49:22Z</time>
      </trkpt>
      <trkpt lat="43.86853" lon="-1.37544">
        <ele>11.19</ele>
        <time>2016-04-29T07:49:23Z</time>
      </trkpt>
      <trkpt lat="43.86858" lon="-1.37544">
        <ele>11.19</ele>
        <time>2016-04-29T07:49:24Z</time>
      </trkpt>
      <trkpt lat="43.86862" lon="-1.37545">
        <ele>11.19</ele>
        <time>2016-04-29T07:49:25Z</time>
      </trkpt>
      <trkpt lat="43.86866" lon="-1.37546">
        <ele>11.19</ele>
        <time>2016-04-29T07:49:26Z</time>
      </trkpt>
      <trkpt lat="43.86889" lon="-1.37544">
        <ele>12.15</ele>
        <time>2016-04-29T07:49:32Z</time>
      </trkpt>
      <trkpt lat="43.86912" lon="-1.37545">
        <ele>12.15</ele>
        <time>2016-04-29T07:49:38Z</time>
      </trkpt>
      <trkpt lat="43.86926" lon="-1.37532">
        <ele>11.67</ele>
        <time>2016-04-29T07:49:43Z</time>
      </trkpt>
      <trkpt lat="43.86935" lon="-1.37502">
        <ele>11.67</ele>
        <time>2016-04-29T07:49:49Z</time>
      </trkpt>
      <trkpt lat="43.86938" lon="-1.3748">
        <ele>12.15</ele>
        <time>2016-04-29T07:49:53Z</time>
      </trkpt>
      <trkpt lat="43.86939" lon="-1.37474">
        <ele>11.19</ele>
        <time>2016-04-29T07:49:54Z</time>
      </trkpt>
      <trkpt lat="43.86939" lon="-1.37469">
        <ele>11.67</ele>
        <time>2016-04-29T07:49:55Z</time>
      </trkpt>
      <trkpt lat="43.8694" lon="-1.37463">
        <ele>11.67</ele>
        <time>2016-04-29T07:49:56Z</time>
      </trkpt>
      <trkpt lat="43.8694" lon="-1.37456">
        <ele>11.67</ele>
        <time>2016-04-29T07:49:57Z</time>
      </trkpt>
      <trkpt lat="43.86941" lon="-1.3745">
        <ele>11.67</ele>
        <time>2016-04-29T07:49:58Z</time>
      </trkpt>
      <trkpt lat="43.86943" lon="-1.37437">
        <ele>11.19</ele>
        <time>2016-04-29T07:50:00Z</time>
      </trkpt>
      <trkpt lat="43.86944" lon="-1.3743">
        <ele>10.71</ele>
        <time>2016-04-29T07:50:01Z</time>
      </trkpt>
      <trkpt lat="43.86945" lon="-1.37418">
        <ele>11.67</ele>
        <time>2016-04-29T07:50:03Z</time>
      </trkpt>
      <trkpt lat="43.86947" lon="-1.37392">
        <ele>10.71</ele>
        <time>2016-04-29T07:50:07Z</time>
      </trkpt>
      <trkpt lat="43.86948" lon="-1.37385">
        <ele>10.71</ele>
        <time>2016-04-29T07:50:08Z</time>
      </trkpt>
      <trkpt lat="43.86951" lon="-1.37372">
        <ele>11.19</ele>
        <time>2016-04-29T07:50:10Z</time>
      </trkpt>
      <trkpt lat="43.86952" lon="-1.37335">
        <ele>11.19</ele>
        <time>2016-04-29T07:50:16Z</time>
      </trkpt>
      <trkpt lat="43.86952" lon="-1.37328">
        <ele>11.19</ele>
        <time>2016-04-29T07:50:17Z</time>
      </trkpt>
      <trkpt lat="43.8694" lon="-1.37296">
        <ele>10.71</ele>
        <time>2016-04-29T07:50:23Z</time>
      </trkpt>
      <trkpt lat="43.86923" lon="-1.37268">
        <ele>11.67</ele>
        <time>2016-04-29T07:50:29Z</time>
      </trkpt>
      <trkpt lat="43.86921" lon="-1.37262">
        <ele>11.19</ele>
        <time>2016-04-29T07:50:30Z</time>
      </trkpt>
      <trkpt lat="43.86911" lon="-1.37222">
        <ele>11.19</ele>
        <time>2016-04-29T07:50:37Z</time>
      </trkpt>
      <trkpt lat="43.86904" lon="-1.37201">
        <ele>11.67</ele>
        <time>2016-04-29T07:50:41Z</time>
      </trkpt>
      <trkpt lat="43.86897" lon="-1.37164">
        <ele>11.67</ele>
        <time>2016-04-29T07:50:47Z</time>
      </trkpt>
      <trkpt lat="43.86895" lon="-1.37159">
        <ele>12.15</ele>
        <time>2016-04-29T07:50:48Z</time>
      </trkpt>
      <trkpt lat="43.86883" lon="-1.37119">
        <ele>12.15</ele>
        <time>2016-04-29T07:50:55Z</time>
      </trkpt>
      <trkpt lat="43.86879" lon="-1.37102">
        <ele>12.15</ele>
        <time>2016-04-29T07:50:59Z</time>
      </trkpt>
      <trkpt lat="43.86877" lon="-1.37098">
        <ele>12.63</ele>
        <time>2016-04-29T07:51:00Z</time>
      </trkpt>
      <trkpt lat="43.86859" lon="-1.37072">
        <ele>12.15</ele>
        <time>2016-04-29T07:51:07Z</time>
      </trkpt>
      <trkpt lat="43.86856" lon="-1.37068">
        <ele>12.15</ele>
        <time>2016-04-29T07:51:08Z</time>
      </trkpt>
      <trkpt lat="43.86854" lon="-1.37063">
        <ele>12.63</ele>
        <time>2016-04-29T07:51:09Z</time>
      </trkpt>
      <trkpt lat="43.86851" lon="-1.37057">
        <ele>12.15</ele>
        <time>2016-04-29T07:51:10Z</time>
      </trkpt>
      <trkpt lat="43.86848" lon="-1.37051">
        <ele>12.15</ele>
        <time>2016-04-29T07:51:11Z</time>
      </trkpt>
      <trkpt lat="43.86845" lon="-1.37044">
        <ele>12.15</ele>
        <time>2016-04-29T07:51:12Z</time>
      </trkpt>
      <trkpt lat="43.86844" lon="-1.37037">
        <ele>12.15</ele>
        <time>2016-04-29T07:51:13Z</time>
      </trkpt>
      <trkpt lat="43.86842" lon="-1.37031">
        <ele>11.67</ele>
        <time>2016-04-29T07:51:14Z</time>
      </trkpt>
      <trkpt lat="43.8684" lon="-1.37024">
        <ele>11.67</ele>
        <time>2016-04-29T07:51:15Z</time>
      </trkpt>
      <trkpt lat="43.86835" lon="-1.3699">
        <ele>12.15</ele>
        <time>2016-04-29T07:51:20Z</time>
      </trkpt>
      <trkpt lat="43.86834" lon="-1.36984">
        <ele>11.67</ele>
        <time>2016-04-29T07:51:21Z</time>
      </trkpt>
      <trkpt lat="43.86828" lon="-1.3694">
        <ele>12.15</ele>
        <time>2016-04-29T07:51:28Z</time>
      </trkpt>
      <trkpt lat="43.86823" lon="-1.36903">
        <ele>12.15</ele>
        <time>2016-04-29T07:51:35Z</time>
      </trkpt>
      <trkpt lat="43.86813" lon="-1.36876">
        <ele>12.63</ele>
        <time>2016-04-29T07:51:41Z</time>
      </trkpt>
      <trkpt lat="43.86801" lon="-1.36845">
        <ele>12.15</ele>
        <time>2016-04-29T07:51:47Z</time>
      </trkpt>
      <trkpt lat="43.86795" lon="-1.36809">
        <ele>12.15</ele>
        <time>2016-04-29T07:51:53Z</time>
      </trkpt>
      <trkpt lat="43.86792" lon="-1.36769">
        <ele>12.63</ele>
        <time>2016-04-29T07:52:00Z</time>
      </trkpt>
      <trkpt lat="43.86792" lon="-1.36728">
        <ele>14.56</ele>
        <time>2016-04-29T07:52:08Z</time>
      </trkpt>
      <trkpt lat="43.86792" lon="-1.36695">
        <ele>16.48</ele>
        <time>2016-04-29T07:52:15Z</time>
      </trkpt>
      <trkpt lat="43.8679" lon="-1.36652">
        <ele>15.52</ele>
        <time>2016-04-29T07:52:22Z</time>
      </trkpt>
      <trkpt lat="43.86787" lon="-1.3662">
        <ele>14.08</ele>
        <time>2016-04-29T07:52:27Z</time>
      </trkpt>
      <trkpt lat="43.86781" lon="-1.36582">
        <ele>13.12</ele>
        <time>2016-04-29T07:52:33Z</time>
      </trkpt>
      <trkpt lat="43.8678" lon="-1.36575">
        <ele>12.63</ele>
        <time>2016-04-29T07:52:34Z</time>
      </trkpt>
      <trkpt lat="43.8678" lon="-1.36569">
        <ele>13.12</ele>
        <time>2016-04-29T07:52:35Z</time>
      </trkpt>
      <trkpt lat="43.86781" lon="-1.36563">
        <ele>13.6</ele>
        <time>2016-04-29T07:52:36Z</time>
      </trkpt>
      <trkpt lat="43.86782" lon="-1.36558">
        <ele>13.12</ele>
        <time>2016-04-29T07:52:37Z</time>
      </trkpt>
      <trkpt lat="43.86782" lon="-1.36552">
        <ele>13.12</ele>
        <time>2016-04-29T07:52:38Z</time>
      </trkpt>
      <trkpt lat="43.86782" lon="-1.36548">
        <ele>13.12</ele>
        <time>2016-04-29T07:52:39Z</time>
      </trkpt>
      <trkpt lat="43.86781" lon="-1.36543">
        <ele>13.12</ele>
        <time>2016-04-29T07:52:40Z</time>
      </trkpt>
      <trkpt lat="43.86779" lon="-1.36539">
        <ele>13.6</ele>
        <time>2016-04-29T07:52:41Z</time>
      </trkpt>
      <trkpt lat="43.86777" lon="-1.36535">
        <ele>14.08</ele>
        <time>2016-04-29T07:52:42Z</time>
      </trkpt>
      <trkpt lat="43.86768" lon="-1.36507">
        <ele>13.6</ele>
        <time>2016-04-29T07:52:49Z</time>
      </trkpt>
      <trkpt lat="43.86767" lon="-1.3647">
        <ele>14.08</ele>
        <time>2016-04-29T07:52:55Z</time>
      </trkpt>
      <trkpt lat="43.8678" lon="-1.36446">
        <ele>14.56</ele>
        <time>2016-04-29T07:53:01Z</time>
      </trkpt>
      <trkpt lat="43.86805" lon="-1.36429">
        <ele>14.56</ele>
        <time>2016-04-29T07:53:09Z</time>
      </trkpt>
      <trkpt lat="43.86823" lon="-1.3641">
        <ele>15.04</ele>
        <time>2016-04-29T07:53:16Z</time>
      </trkpt>
      <trkpt lat="43.8684" lon="-1.36387">
        <ele>15.52</ele>
        <time>2016-04-29T07:53:23Z</time>
      </trkpt>
      <trkpt lat="43.86857" lon="-1.36365">
        <ele>16.48</ele>
        <time>2016-04-29T07:53:30Z</time>
      </trkpt>
      <trkpt lat="43.86872" lon="-1.36348">
        <ele>16.48</ele>
        <time>2016-04-29T07:53:38Z</time>
      </trkpt>
      <trkpt lat="43.86885" lon="-1.36324">
        <ele>15.52</ele>
        <time>2016-04-29T07:53:44Z</time>
      </trkpt>
      <trkpt lat="43.86894" lon="-1.36293">
        <ele>15.52</ele>
        <time>2016-04-29T07:53:51Z</time>
      </trkpt>
      <trkpt lat="43.86901" lon="-1.36273">
        <ele>16</ele>
        <time>2016-04-29T07:53:58Z</time>
      </trkpt>
      <trkpt lat="43.86908" lon="-1.36261">
        <ele>16.96</ele>
        <time>2016-04-29T07:54:04Z</time>
      </trkpt>
      <trkpt lat="43.86909" lon="-1.36257">
        <ele>16.48</ele>
        <time>2016-04-29T07:54:12Z</time>
      </trkpt>
      <trkpt lat="43.86911" lon="-1.36255">
        <ele>16.96</ele>
        <time>2016-04-29T07:54:17Z</time>
      </trkpt>
      <trkpt lat="43.86918" lon="-1.36247">
        <ele>16.48</ele>
        <time>2016-04-29T07:54:24Z</time>
      </trkpt>
      <trkpt lat="43.8692" lon="-1.36247">
        <ele>16.48</ele>
        <time>2016-04-29T07:54:31Z</time>
      </trkpt>
      <trkpt lat="43.86927" lon="-1.3624">
        <ele>16.96</ele>
        <time>2016-04-29T07:54:37Z</time>
      </trkpt>
      <trkpt lat="43.86947" lon="-1.36227">
        <ele>16.48</ele>
        <time>2016-04-29T07:54:44Z</time>
      </trkpt>
      <trkpt lat="43.86967" lon="-1.36219">
        <ele>16.48</ele>
        <time>2016-04-29T07:54:50Z</time>
      </trkpt>
      <trkpt lat="43.86981" lon="-1.36207">
        <ele>16</ele>
        <time>2016-04-29T07:54:55Z</time>
      </trkpt>
      <trkpt lat="43.86996" lon="-1.3619">
        <ele>16.48</ele>
        <time>2016-04-29T07:55:02Z</time>
      </trkpt>
      <trkpt lat="43.87011" lon="-1.3618">
        <ele>16.48</ele>
        <time>2016-04-29T07:55:09Z</time>
      </trkpt>
      <trkpt lat="43.87026" lon="-1.36177">
        <ele>17.44</ele>
        <time>2016-04-29T07:55:15Z</time>
      </trkpt>
      <trkpt lat="43.87041" lon="-1.36184">
        <ele>16.96</ele>
        <time>2016-04-29T07:55:20Z</time>
      </trkpt>
      <trkpt lat="43.87059" lon="-1.36187">
        <ele>17.44</ele>
        <time>2016-04-29T07:55:25Z</time>
      </trkpt>
      <trkpt lat="43.87075" lon="-1.36197">
        <ele>16.96</ele>
        <time>2016-04-29T07:55:30Z</time>
      </trkpt>
      <trkpt lat="43.8708" lon="-1.36198">
        <ele>16.48</ele>
        <time>2016-04-29T07:55:31Z</time>
      </trkpt>
      <trkpt lat="43.87084" lon="-1.36198">
        <ele>16.96</ele>
        <time>2016-04-29T07:55:32Z</time>
      </trkpt>
      <trkpt lat="43.87089" lon="-1.36196">
        <ele>16.48</ele>
        <time>2016-04-29T07:55:33Z</time>
      </trkpt>
      <trkpt lat="43.87093" lon="-1.36193">
        <ele>16.48</ele>
        <time>2016-04-29T07:55:34Z</time>
      </trkpt>
      <trkpt lat="43.87097" lon="-1.3619">
        <ele>16.96</ele>
        <time>2016-04-29T07:55:35Z</time>
      </trkpt>
      <trkpt lat="43.871" lon="-1.36185">
        <ele>16.48</ele>
        <time>2016-04-29T07:55:36Z</time>
      </trkpt>
      <trkpt lat="43.87102" lon="-1.3618">
        <ele>16.96</ele>
        <time>2016-04-29T07:55:37Z</time>
      </trkpt>
      <trkpt lat="43.87104" lon="-1.36174">
        <ele>16.48</ele>
        <time>2016-04-29T07:55:38Z</time>
      </trkpt>
      <trkpt lat="43.87112" lon="-1.36151">
        <ele>16.48</ele>
        <time>2016-04-29T07:55:42Z</time>
      </trkpt>
      <trkpt lat="43.87115" lon="-1.36145">
        <ele>16.96</ele>
        <time>2016-04-29T07:55:43Z</time>
      </trkpt>
      <trkpt lat="43.87119" lon="-1.3614">
        <ele>16.96</ele>
        <time>2016-04-29T07:55:44Z</time>
      </trkpt>
      <trkpt lat="43.87125" lon="-1.36131">
        <ele>16.96</ele>
        <time>2016-04-29T07:55:46Z</time>
      </trkpt>
      <trkpt lat="43.87127" lon="-1.36125">
        <ele>16.96</ele>
        <time>2016-04-29T07:55:47Z</time>
      </trkpt>
      <trkpt lat="43.87129" lon="-1.36119">
        <ele>17.44</ele>
        <time>2016-04-29T07:55:48Z</time>
      </trkpt>
      <trkpt lat="43.87136" lon="-1.36105">
        <ele>17.92</ele>
        <time>2016-04-29T07:55:51Z</time>
      </trkpt>
      <trkpt lat="43.87139" lon="-1.36102">
        <ele>17.44</ele>
        <time>2016-04-29T07:55:52Z</time>
      </trkpt>
      <trkpt lat="43.87143" lon="-1.36101">
        <ele>17.92</ele>
        <time>2016-04-29T07:55:53Z</time>
      </trkpt>
      <trkpt lat="43.87147" lon="-1.36101">
        <ele>17.92</ele>
        <time>2016-04-29T07:55:54Z</time>
      </trkpt>
      <trkpt lat="43.87152" lon="-1.36102">
        <ele>17.92</ele>
        <time>2016-04-29T07:55:55Z</time>
      </trkpt>
      <trkpt lat="43.87156" lon="-1.36103">
        <ele>17.92</ele>
        <time>2016-04-29T07:55:56Z</time>
      </trkpt>
      <trkpt lat="43.87161" lon="-1.36103">
        <ele>17.92</ele>
        <time>2016-04-29T07:55:57Z</time>
      </trkpt>
      <trkpt lat="43.8717" lon="-1.36104">
        <ele>17.92</ele>
        <time>2016-04-29T07:55:59Z</time>
      </trkpt>
      <trkpt lat="43.87174" lon="-1.36105">
        <ele>17.92</ele>
        <time>2016-04-29T07:56:00Z</time>
      </trkpt>
      <trkpt lat="43.87179" lon="-1.36108">
        <ele>17.92</ele>
        <time>2016-04-29T07:56:01Z</time>
      </trkpt>
      <trkpt lat="43.87193" lon="-1.36115">
        <ele>17.92</ele>
        <time>2016-04-29T07:56:04Z</time>
      </trkpt>
      <trkpt lat="43.87198" lon="-1.36116">
        <ele>17.44</ele>
        <time>2016-04-29T07:56:05Z</time>
      </trkpt>
      <trkpt lat="43.87202" lon="-1.36115">
        <ele>17.44</ele>
        <time>2016-04-29T07:56:06Z</time>
      </trkpt>
      <trkpt lat="43.87205" lon="-1.36114">
        <ele>17.44</ele>
        <time>2016-04-29T07:56:07Z</time>
      </trkpt>
      <trkpt lat="43.87207" lon="-1.36112">
        <ele>17.44</ele>
        <time>2016-04-29T07:56:08Z</time>
      </trkpt>
      <trkpt lat="43.87209" lon="-1.36111">
        <ele>17.44</ele>
        <time>2016-04-29T07:56:09Z</time>
      </trkpt>
      <trkpt lat="43.87225" lon="-1.36104">
        <ele>17.92</ele>
        <time>2016-04-29T07:56:14Z</time>
      </trkpt>
      <trkpt lat="43.87241" lon="-1.36082">
        <ele>18.4</ele>
        <time>2016-04-29T07:56:20Z</time>
      </trkpt>
      <trkpt lat="43.87255" lon="-1.36066">
        <ele>18.88</ele>
        <time>2016-04-29T07:56:26Z</time>
      </trkpt>
      <trkpt lat="43.87267" lon="-1.3605">
        <ele>19.36</ele>
        <time>2016-04-29T07:56:33Z</time>
      </trkpt>
      <trkpt lat="43.8727" lon="-1.36047">
        <ele>20.32</ele>
        <time>2016-04-29T07:56:40Z</time>
      </trkpt>
      <trkpt lat="43.8728" lon="-1.36049">
        <ele>20.32</ele>
        <time>2016-04-29T07:56:48Z</time>
      </trkpt>
      <trkpt lat="43.87284" lon="-1.36051">
        <ele>19.84</ele>
        <time>2016-04-29T07:56:56Z</time>
      </trkpt>
      <trkpt lat="43.87286" lon="-1.36053">
        <ele>19.36</ele>
        <time>2016-04-29T07:56:58Z</time>
      </trkpt>
      <trkpt lat="43.87288" lon="-1.36054">
        <ele>19.84</ele>
        <time>2016-04-29T07:57:01Z</time>
      </trkpt>
      <trkpt lat="43.87296" lon="-1.36056">
        <ele>19.36</ele>
        <time>2016-04-29T07:57:06Z</time>
      </trkpt>
      <trkpt lat="43.87321" lon="-1.36063">
        <ele>19.84</ele>
        <time>2016-04-29T07:57:13Z</time>
      </trkpt>
      <trkpt lat="43.87345" lon="-1.36071">
        <ele>19.84</ele>
        <time>2016-04-29T07:57:21Z</time>
      </trkpt>
      <trkpt lat="43.87347" lon="-1.36072">
        <ele>19.84</ele>
        <time>2016-04-29T07:57:22Z</time>
      </trkpt>
      <trkpt lat="43.87348" lon="-1.36073">
        <ele>20.32</ele>
        <time>2016-04-29T07:57:25Z</time>
      </trkpt>
      <trkpt lat="43.8735" lon="-1.36072">
        <ele>20.81</ele>
        <time>2016-04-29T07:57:27Z</time>
      </trkpt>
      <trkpt lat="43.87351" lon="-1.36072">
        <ele>20.32</ele>
        <time>2016-04-29T07:57:28Z</time>
      </trkpt>
      <trkpt lat="43.87361" lon="-1.36074">
        <ele>21.29</ele>
        <time>2016-04-29T07:57:36Z</time>
      </trkpt>
      <trkpt lat="43.87373" lon="-1.36076">
        <ele>22.73</ele>
        <time>2016-04-29T07:57:46Z</time>
      </trkpt>
      <trkpt lat="43.8738" lon="-1.36081">
        <ele>24.17</ele>
        <time>2016-04-29T07:57:55Z</time>
      </trkpt>
      <trkpt lat="43.87378" lon="-1.36081">
        <ele>22.73</ele>
        <time>2016-04-29T07:58:06Z</time>
      </trkpt>
      <trkpt lat="43.87384" lon="-1.36085">
        <ele>24.65</ele>
        <time>2016-04-29T07:58:13Z</time>
      </trkpt>
      <trkpt lat="43.87391" lon="-1.3609">
        <ele>25.13</ele>
        <time>2016-04-29T07:58:22Z</time>
      </trkpt>
      <trkpt lat="43.874" lon="-1.361">
        <ele>26.57</ele>
        <time>2016-04-29T07:58:33Z</time>
      </trkpt>
      <trkpt lat="43.87406" lon="-1.36106">
        <ele>27.53</ele>
        <time>2016-04-29T07:58:42Z</time>
      </trkpt>
      <trkpt lat="43.87411" lon="-1.36107">
        <ele>28.98</ele>
        <time>2016-04-29T07:58:51Z</time>
      </trkpt>
      <trkpt lat="43.87415" lon="-1.36102">
        <ele>27.53</ele>
        <time>2016-04-29T07:58:59Z</time>
      </trkpt>
      <trkpt lat="43.87425" lon="-1.36089">
        <ele>27.53</ele>
        <time>2016-04-29T07:59:05Z</time>
      </trkpt>
      <trkpt lat="43.87437" lon="-1.36072">
        <ele>26.57</ele>
        <time>2016-04-29T07:59:11Z</time>
      </trkpt>
      <trkpt lat="43.87452" lon="-1.3605">
        <ele>26.57</ele>
        <time>2016-04-29T07:59:17Z</time>
      </trkpt>
      <trkpt lat="43.87455" lon="-1.36046">
        <ele>26.09</ele>
        <time>2016-04-29T07:59:18Z</time>
      </trkpt>
      <trkpt lat="43.87458" lon="-1.36041">
        <ele>25.61</ele>
        <time>2016-04-29T07:59:19Z</time>
      </trkpt>
      <trkpt lat="43.8746" lon="-1.36036">
        <ele>25.61</ele>
        <time>2016-04-29T07:59:20Z</time>
      </trkpt>
      <trkpt lat="43.87463" lon="-1.36032">
        <ele>25.61</ele>
        <time>2016-04-29T07:59:21Z</time>
      </trkpt>
      <trkpt lat="43.87466" lon="-1.36026">
        <ele>25.13</ele>
        <time>2016-04-29T07:59:22Z</time>
      </trkpt>
      <trkpt lat="43.8747" lon="-1.36012">
        <ele>24.65</ele>
        <time>2016-04-29T07:59:24Z</time>
      </trkpt>
      <trkpt lat="43.87471" lon="-1.36005">
        <ele>23.69</ele>
        <time>2016-04-29T07:59:25Z</time>
      </trkpt>
      <trkpt lat="43.87471" lon="-1.35997">
        <ele>23.21</ele>
        <time>2016-04-29T07:59:26Z</time>
      </trkpt>
      <trkpt lat="43.8747" lon="-1.35989">
        <ele>23.21</ele>
        <time>2016-04-29T07:59:27Z</time>
      </trkpt>
      <trkpt lat="43.87468" lon="-1.35982">
        <ele>22.73</ele>
        <time>2016-04-29T07:59:28Z</time>
      </trkpt>
      <trkpt lat="43.87467" lon="-1.35975">
        <ele>22.73</ele>
        <time>2016-04-29T07:59:29Z</time>
      </trkpt>
      <trkpt lat="43.87456" lon="-1.35932">
        <ele>22.25</ele>
        <time>2016-04-29T07:59:36Z</time>
      </trkpt>
      <trkpt lat="43.87452" lon="-1.35913">
        <ele>21.29</ele>
        <time>2016-04-29T07:59:39Z</time>
      </trkpt>
      <trkpt lat="43.8745" lon="-1.35906">
        <ele>20.81</ele>
        <time>2016-04-29T07:59:40Z</time>
      </trkpt>
      <trkpt lat="43.87443" lon="-1.35875">
        <ele>18.88</ele>
        <time>2016-04-29T07:59:44Z</time>
      </trkpt>
      <trkpt lat="43.87442" lon="-1.35867">
        <ele>18.4</ele>
        <time>2016-04-29T07:59:45Z</time>
      </trkpt>
      <trkpt lat="43.87442" lon="-1.35859">
        <ele>18.88</ele>
        <time>2016-04-29T07:59:46Z</time>
      </trkpt>
      <trkpt lat="43.87442" lon="-1.3585">
        <ele>18.4</ele>
        <time>2016-04-29T07:59:47Z</time>
      </trkpt>
      <trkpt lat="43.87443" lon="-1.35842">
        <ele>17.92</ele>
        <time>2016-04-29T07:59:48Z</time>
      </trkpt>
      <trkpt lat="43.87444" lon="-1.35834">
        <ele>17.92</ele>
        <time>2016-04-29T07:59:49Z</time>
      </trkpt>
      <trkpt lat="43.87446" lon="-1.35827">
        <ele>17.92</ele>
        <time>2016-04-29T07:59:50Z</time>
      </trkpt>
      <trkpt lat="43.87448" lon="-1.35819">
        <ele>17.92</ele>
        <time>2016-04-29T07:59:51Z</time>
      </trkpt>
      <trkpt lat="43.87467" lon="-1.35771">
        <ele>18.4</ele>
        <time>2016-04-29T07:59:59Z</time>
      </trkpt>
      <trkpt lat="43.87468" lon="-1.35765">
        <ele>18.4</ele>
        <time>2016-04-29T08:00:00Z</time>
      </trkpt>
      <trkpt lat="43.87484" lon="-1.35711">
        <ele>18.88</ele>
        <time>2016-04-29T08:00:09Z</time>
      </trkpt>
      <trkpt lat="43.87487" lon="-1.35706">
        <ele>18.88</ele>
        <time>2016-04-29T08:00:10Z</time>
      </trkpt>
      <trkpt lat="43.87498" lon="-1.35683">
        <ele>19.36</ele>
        <time>2016-04-29T08:00:16Z</time>
      </trkpt>
      <trkpt lat="43.87499" lon="-1.35678">
        <ele>19.84</ele>
        <time>2016-04-29T08:00:21Z</time>
      </trkpt>
      <trkpt lat="43.875" lon="-1.35679">
        <ele>19.36</ele>
        <time>2016-04-29T08:00:31Z</time>
      </trkpt>
      <trkpt lat="43.87499" lon="-1.35677">
        <ele>19.84</ele>
        <time>2016-04-29T08:00:34Z</time>
      </trkpt>
      <trkpt lat="43.87501" lon="-1.35676">
        <ele>20.32</ele>
        <time>2016-04-29T08:00:36Z</time>
      </trkpt>
      <trkpt lat="43.87505" lon="-1.35674">
        <ele>19.84</ele>
        <time>2016-04-29T08:00:43Z</time>
      </trkpt>
      <trkpt lat="43.8751" lon="-1.3567">
        <ele>20.32</ele>
        <time>2016-04-29T08:00:47Z</time>
      </trkpt>
      <trkpt lat="43.87511" lon="-1.35669">
        <ele>20.32</ele>
        <time>2016-04-29T08:00:48Z</time>
      </trkpt>
      <trkpt lat="43.87513" lon="-1.35668">
        <ele>20.81</ele>
        <time>2016-04-29T08:00:49Z</time>
      </trkpt>
      <trkpt lat="43.87515" lon="-1.35667">
        <ele>21.29</ele>
        <time>2016-04-29T08:00:50Z</time>
      </trkpt>
      <trkpt lat="43.87516" lon="-1.35666">
        <ele>21.29</ele>
        <time>2016-04-29T08:00:51Z</time>
      </trkpt>
      <trkpt lat="43.87517" lon="-1.35665">
        <ele>21.77</ele>
        <time>2016-04-29T08:00:52Z</time>
      </trkpt>
      <trkpt lat="43.87519" lon="-1.35664">
        <ele>21.29</ele>
        <time>2016-04-29T08:00:53Z</time>
      </trkpt>
      <trkpt lat="43.87527" lon="-1.35658">
        <ele>23.69</ele>
        <time>2016-04-29T08:01:00Z</time>
      </trkpt>
      <trkpt lat="43.87538" lon="-1.35656">
        <ele>24.65</ele>
        <time>2016-04-29T08:01:07Z</time>
      </trkpt>
      <trkpt lat="43.87545" lon="-1.35658">
        <ele>25.61</ele>
        <time>2016-04-29T08:01:14Z</time>
      </trkpt>
      <trkpt lat="43.87555" lon="-1.35656">
        <ele>27.05</ele>
        <time>2016-04-29T08:01:21Z</time>
      </trkpt>
      <trkpt lat="43.87565" lon="-1.35653">
        <ele>28.02</ele>
        <time>2016-04-29T08:01:31Z</time>
      </trkpt>
      <trkpt lat="43.87574" lon="-1.35649">
        <ele>29.46</ele>
        <time>2016-04-29T08:01:39Z</time>
      </trkpt>
      <trkpt lat="43.87584" lon="-1.35635">
        <ele>29.46</ele>
        <time>2016-04-29T08:03:00Z</time>
      </trkpt>
      <trkpt lat="43.87585" lon="-1.35626">
        <ele>28.02</ele>
        <time>2016-04-29T08:03:08Z</time>
      </trkpt>
      <trkpt lat="43.87585" lon="-1.35625">
        <ele>28.5</ele>
        <time>2016-04-29T08:03:09Z</time>
      </trkpt>
      <trkpt lat="43.87586" lon="-1.3561">
        <ele>26.09</ele>
        <time>2016-04-29T08:03:18Z</time>
      </trkpt>
      <trkpt lat="43.87597" lon="-1.35568">
        <ele>19.84</ele>
        <time>2016-04-29T08:05:28Z</time>
      </trkpt>
      <trkpt lat="43.87604" lon="-1.35558">
        <ele>19.36</ele>
        <time>2016-04-29T08:05:37Z</time>
      </trkpt>
      <trkpt lat="43.87603" lon="-1.3556">
        <ele>19.84</ele>
        <time>2016-04-29T08:05:51Z</time>
      </trkpt>
      <trkpt lat="43.87604" lon="-1.35557">
        <ele>18.88</ele>
        <time>2016-04-29T08:06:01Z</time>
      </trkpt>
      <trkpt lat="43.87605" lon="-1.35556">
        <ele>19.36</ele>
        <time>2016-04-29T08:06:02Z</time>
      </trkpt>
      <trkpt lat="43.87619" lon="-1.35548">
        <ele>19.84</ele>
        <time>2016-04-29T08:06:08Z</time>
      </trkpt>
      <trkpt lat="43.87652" lon="-1.35536">
        <ele>19.84</ele>
        <time>2016-04-29T08:06:17Z</time>
      </trkpt>
      <trkpt lat="43.8768" lon="-1.35521">
        <ele>19.36</ele>
        <time>2016-04-29T08:06:24Z</time>
      </trkpt>
      <trkpt lat="43.87684" lon="-1.35518">
        <ele>19.36</ele>
        <time>2016-04-29T08:06:25Z</time>
      </trkpt>
      <trkpt lat="43.87691" lon="-1.35512">
        <ele>18.88</ele>
        <time>2016-04-29T08:06:27Z</time>
      </trkpt>
      <trkpt lat="43.87712" lon="-1.35497">
        <ele>18.88</ele>
        <time>2016-04-29T08:06:33Z</time>
      </trkpt>
      <trkpt lat="43.87715" lon="-1.35496">
        <ele>18.88</ele>
        <time>2016-04-29T08:06:34Z</time>
      </trkpt>
      <trkpt lat="43.87728" lon="-1.35485">
        <ele>18.88</ele>
        <time>2016-04-29T08:06:39Z</time>
      </trkpt>
      <trkpt lat="43.87729" lon="-1.35479">
        <ele>19.36</ele>
        <time>2016-04-29T08:06:41Z</time>
      </trkpt>
      <trkpt lat="43.8773" lon="-1.35473">
        <ele>18.88</ele>
        <time>2016-04-29T08:06:42Z</time>
      </trkpt>
      <trkpt lat="43.87741" lon="-1.3543">
        <ele>19.84</ele>
        <time>2016-04-29T08:06:50Z</time>
      </trkpt>
      <trkpt lat="43.87747" lon="-1.35401">
        <ele>19.36</ele>
        <time>2016-04-29T08:06:56Z</time>
      </trkpt>
      <trkpt lat="43.87757" lon="-1.35363">
        <ele>20.81</ele>
        <time>2016-04-29T08:07:04Z</time>
      </trkpt>
      <trkpt lat="43.87765" lon="-1.35332">
        <ele>21.29</ele>
        <time>2016-04-29T08:07:11Z</time>
      </trkpt>
      <trkpt lat="43.87766" lon="-1.35321">
        <ele>21.29</ele>
        <time>2016-04-29T08:07:14Z</time>
      </trkpt>
      <trkpt lat="43.87767" lon="-1.35317">
        <ele>21.29</ele>
        <time>2016-04-29T08:07:15Z</time>
      </trkpt>
      <trkpt lat="43.87768" lon="-1.35313">
        <ele>21.77</ele>
        <time>2016-04-29T08:07:16Z</time>
      </trkpt>
      <trkpt lat="43.8777" lon="-1.35309">
        <ele>22.25</ele>
        <time>2016-04-29T08:07:17Z</time>
      </trkpt>
      <trkpt lat="43.87771" lon="-1.35305">
        <ele>22.73</ele>
        <time>2016-04-29T08:07:18Z</time>
      </trkpt>
      <trkpt lat="43.87772" lon="-1.35301">
        <ele>23.21</ele>
        <time>2016-04-29T08:07:19Z</time>
      </trkpt>
      <trkpt lat="43.87777" lon="-1.35288">
        <ele>22.73</ele>
        <time>2016-04-29T08:07:23Z</time>
      </trkpt>
      <trkpt lat="43.87783" lon="-1.35269">
        <ele>24.65</ele>
        <time>2016-04-29T08:07:30Z</time>
      </trkpt>
      <trkpt lat="43.87788" lon="-1.35257">
        <ele>25.61</ele>
        <time>2016-04-29T08:07:37Z</time>
      </trkpt>
      <trkpt lat="43.8779" lon="-1.35244">
        <ele>28.02</ele>
        <time>2016-04-29T08:07:46Z</time>
      </trkpt>
      <trkpt lat="43.87785" lon="-1.35241">
        <ele>28.02</ele>
        <time>2016-04-29T08:07:51Z</time>
      </trkpt>
      <trkpt lat="43.87784" lon="-1.3524">
        <ele>28.02</ele>
        <time>2016-04-29T08:07:52Z</time>
      </trkpt>
      <trkpt lat="43.87781" lon="-1.35237">
        <ele>28.02</ele>
        <time>2016-04-29T08:07:59Z</time>
      </trkpt>
      <trkpt lat="43.87773" lon="-1.35236">
        <ele>28.02</ele>
        <time>2016-04-29T08:08:04Z</time>
      </trkpt>
      <trkpt lat="43.87758" lon="-1.35235">
        <ele>28.5</ele>
        <time>2016-04-29T08:08:11Z</time>
      </trkpt>
      <trkpt lat="43.87741" lon="-1.35223">
        <ele>28.5</ele>
        <time>2016-04-29T08:08:19Z</time>
      </trkpt>
      <trkpt lat="43.87734" lon="-1.35217">
        <ele>29.46</ele>
        <time>2016-04-29T08:08:25Z</time>
      </trkpt>
      <trkpt lat="43.87725" lon="-1.35212">
        <ele>29.46</ele>
        <time>2016-04-29T08:08:34Z</time>
      </trkpt>
      <trkpt lat="43.87717" lon="-1.35207">
        <ele>29.94</ele>
        <time>2016-04-29T08:08:43Z</time>
      </trkpt>
      <trkpt lat="43.87706" lon="-1.35204">
        <ele>30.9</ele>
        <time>2016-04-29T08:08:53Z</time>
      </trkpt>
      <trkpt lat="43.87695" lon="-1.35201">
        <ele>31.38</ele>
        <time>2016-04-29T08:09:04Z</time>
      </trkpt>
      <trkpt lat="43.87681" lon="-1.35198">
        <ele>31.38</ele>
        <time>2016-04-29T08:09:14Z</time>
      </trkpt>
      <trkpt lat="43.87669" lon="-1.35194">
        <ele>30.9</ele>
        <time>2016-04-29T08:09:24Z</time>
      </trkpt>
      <trkpt lat="43.87659" lon="-1.35192">
        <ele>32.82</ele>
        <time>2016-04-29T08:09:33Z</time>
      </trkpt>
      <trkpt lat="43.87649" lon="-1.3519">
        <ele>34.74</ele>
        <time>2016-04-29T08:09:43Z</time>
      </trkpt>
      <trkpt lat="43.87641" lon="-1.35188">
        <ele>36.19</ele>
        <time>2016-04-29T08:09:51Z</time>
      </trkpt>
      <trkpt lat="43.87632" lon="-1.35186">
        <ele>37.15</ele>
        <time>2016-04-29T08:10:00Z</time>
      </trkpt>
      <trkpt lat="43.87621" lon="-1.35184">
        <ele>38.11</ele>
        <time>2016-04-29T08:10:09Z</time>
      </trkpt>
      <trkpt lat="43.87619" lon="-1.35182">
        <ele>37.63</ele>
        <time>2016-04-29T08:10:15Z</time>
      </trkpt>
      <trkpt lat="43.87617" lon="-1.35182">
        <ele>37.15</ele>
        <time>2016-04-29T08:10:18Z</time>
      </trkpt>
      <trkpt lat="43.87615" lon="-1.35181">
        <ele>37.63</ele>
        <time>2016-04-29T08:10:19Z</time>
      </trkpt>
      <trkpt lat="43.87597" lon="-1.35178">
        <ele>36.67</ele>
        <time>2016-04-29T08:10:27Z</time>
      </trkpt>
      <trkpt lat="43.87572" lon="-1.35177">
        <ele>34.74</ele>
        <time>2016-04-29T08:10:37Z</time>
      </trkpt>
      <trkpt lat="43.87564" lon="-1.35179">
        <ele>33.78</ele>
        <time>2016-04-29T08:10:43Z</time>
      </trkpt>
      <trkpt lat="43.87554" lon="-1.35183">
        <ele>34.26</ele>
        <time>2016-04-29T08:10:49Z</time>
      </trkpt>
      <trkpt lat="43.87552" lon="-1.35183">
        <ele>34.26</ele>
        <time>2016-04-29T08:10:50Z</time>
      </trkpt>
      <trkpt lat="43.87551" lon="-1.35184">
        <ele>34.74</ele>
        <time>2016-04-29T08:10:51Z</time>
      </trkpt>
      <trkpt lat="43.87549" lon="-1.35184">
        <ele>34.26</ele>
        <time>2016-04-29T08:10:52Z</time>
      </trkpt>
      <trkpt lat="43.87547" lon="-1.35185">
        <ele>34.74</ele>
        <time>2016-04-29T08:10:53Z</time>
      </trkpt>
      <trkpt lat="43.87545" lon="-1.35186">
        <ele>34.26</ele>
        <time>2016-04-29T08:10:54Z</time>
      </trkpt>
      <trkpt lat="43.87544" lon="-1.35187">
        <ele>34.26</ele>
        <time>2016-04-29T08:10:55Z</time>
      </trkpt>
      <trkpt lat="43.87542" lon="-1.35188">
        <ele>34.26</ele>
        <time>2016-04-29T08:10:56Z</time>
      </trkpt>
      <trkpt lat="43.87532" lon="-1.35192">
        <ele>35.23</ele>
        <time>2016-04-29T08:11:03Z</time>
      </trkpt>
      <trkpt lat="43.87523" lon="-1.35196">
        <ele>35.71</ele>
        <time>2016-04-29T08:11:10Z</time>
      </trkpt>
      <trkpt lat="43.87515" lon="-1.35195">
        <ele>36.19</ele>
        <time>2016-04-29T08:11:18Z</time>
      </trkpt>
      <trkpt lat="43.87512" lon="-1.35193">
        <ele>36.67</ele>
        <time>2016-04-29T08:11:21Z</time>
      </trkpt>
      <trkpt lat="43.87503" lon="-1.35187">
        <ele>39.07</ele>
        <time>2016-04-29T08:11:31Z</time>
      </trkpt>
      <trkpt lat="43.87497" lon="-1.35183">
        <ele>39.07</ele>
        <time>2016-04-29T08:11:36Z</time>
      </trkpt>
      <trkpt lat="43.87488" lon="-1.35181">
        <ele>40.99</ele>
        <time>2016-04-29T08:11:45Z</time>
      </trkpt>
      <trkpt lat="43.87481" lon="-1.35181">
        <ele>41.95</ele>
        <time>2016-04-29T08:11:53Z</time>
      </trkpt>
      <trkpt lat="43.87471" lon="-1.35184">
        <ele>43.4</ele>
        <time>2016-04-29T08:12:01Z</time>
      </trkpt>
      <trkpt lat="43.87459" lon="-1.35185">
        <ele>45.32</ele>
        <time>2016-04-29T08:12:10Z</time>
      </trkpt>
      <trkpt lat="43.87455" lon="-1.35183">
        <ele>45.32</ele>
        <time>2016-04-29T08:12:14Z</time>
      </trkpt>
      <trkpt lat="43.87449" lon="-1.35181">
        <ele>45.32</ele>
        <time>2016-04-29T08:12:22Z</time>
      </trkpt>
      <trkpt lat="43.87445" lon="-1.3518">
        <ele>46.28</ele>
        <time>2016-04-29T08:12:33Z</time>
      </trkpt>
      <trkpt lat="43.87444" lon="-1.35179">
        <ele>45.8</ele>
        <time>2016-04-29T08:12:40Z</time>
      </trkpt>
      <trkpt lat="43.87431" lon="-1.35183">
        <ele>45.8</ele>
        <time>2016-04-29T08:12:48Z</time>
      </trkpt>
      <trkpt lat="43.87412" lon="-1.35187">
        <ele>46.76</ele>
        <time>2016-04-29T08:12:56Z</time>
      </trkpt>
      <trkpt lat="43.87401" lon="-1.35193">
        <ele>47.72</ele>
        <time>2016-04-29T08:13:02Z</time>
      </trkpt>
      <trkpt lat="43.87381" lon="-1.35204">
        <ele>46.28</ele>
        <time>2016-04-29T08:13:09Z</time>
      </trkpt>
      <trkpt lat="43.87362" lon="-1.35211">
        <ele>45.8</ele>
        <time>2016-04-29T08:13:14Z</time>
      </trkpt>
      <trkpt lat="43.87339" lon="-1.35216">
        <ele>45.8</ele>
        <time>2016-04-29T08:13:21Z</time>
      </trkpt>
      <trkpt lat="43.87322" lon="-1.35213">
        <ele>45.32</ele>
        <time>2016-04-29T08:13:27Z</time>
      </trkpt>
      <trkpt lat="43.87304" lon="-1.35194">
        <ele>44.84</ele>
        <time>2016-04-29T08:13:33Z</time>
      </trkpt>
      <trkpt lat="43.87285" lon="-1.35167">
        <ele>45.8</ele>
        <time>2016-04-29T08:13:40Z</time>
      </trkpt>
      <trkpt lat="43.87273" lon="-1.35145">
        <ele>45.32</ele>
        <time>2016-04-29T08:13:45Z</time>
      </trkpt>
      <trkpt lat="43.87265" lon="-1.35113">
        <ele>44.84</ele>
        <time>2016-04-29T08:13:51Z</time>
      </trkpt>
      <trkpt lat="43.87258" lon="-1.35089">
        <ele>43.88</ele>
        <time>2016-04-29T08:13:55Z</time>
      </trkpt>
      <trkpt lat="43.87249" lon="-1.35069">
        <ele>43.4</ele>
        <time>2016-04-29T08:13:58Z</time>
      </trkpt>
      <trkpt lat="43.87247" lon="-1.35063">
        <ele>42.44</ele>
        <time>2016-04-29T08:13:59Z</time>
      </trkpt>
      <trkpt lat="43.87245" lon="-1.35058">
        <ele>42.44</ele>
        <time>2016-04-29T08:14:00Z</time>
      </trkpt>
      <trkpt lat="43.87244" lon="-1.35054">
        <ele>42.92</ele>
        <time>2016-04-29T08:14:01Z</time>
      </trkpt>
      <trkpt lat="43.87234" lon="-1.35023">
        <ele>41.47</ele>
        <time>2016-04-29T08:14:07Z</time>
      </trkpt>
      <trkpt lat="43.87228" lon="-1.35002">
        <ele>38.11</ele>
        <time>2016-04-29T08:14:12Z</time>
      </trkpt>
      <trkpt lat="43.87218" lon="-1.34985">
        <ele>35.23</ele>
        <time>2016-04-29T08:14:16Z</time>
      </trkpt>
      <trkpt lat="43.87216" lon="-1.34981">
        <ele>34.74</ele>
        <time>2016-04-29T08:14:17Z</time>
      </trkpt>
      <trkpt lat="43.8721" lon="-1.34971">
        <ele>33.78</ele>
        <time>2016-04-29T08:14:19Z</time>
      </trkpt>
      <trkpt lat="43.87191" lon="-1.3494">
        <ele>31.86</ele>
        <time>2016-04-29T08:14:24Z</time>
      </trkpt>
      <trkpt lat="43.87187" lon="-1.34934">
        <ele>31.38</ele>
        <time>2016-04-29T08:14:25Z</time>
      </trkpt>
      <trkpt lat="43.87182" lon="-1.3493">
        <ele>31.38</ele>
        <time>2016-04-29T08:14:26Z</time>
      </trkpt>
      <trkpt lat="43.87177" lon="-1.34927">
        <ele>31.38</ele>
        <time>2016-04-29T08:14:27Z</time>
      </trkpt>
      <trkpt lat="43.87171" lon="-1.34926">
        <ele>31.38</ele>
        <time>2016-04-29T08:14:28Z</time>
      </trkpt>
      <trkpt lat="43.87165" lon="-1.34925">
        <ele>30.9</ele>
        <time>2016-04-29T08:14:29Z</time>
      </trkpt>
      <trkpt lat="43.87161" lon="-1.34925">
        <ele>31.38</ele>
        <time>2016-04-29T08:14:30Z</time>
      </trkpt>
      <trkpt lat="43.87131" lon="-1.34926">
        <ele>33.3</ele>
        <time>2016-04-29T08:14:37Z</time>
      </trkpt>
      <trkpt lat="43.87122" lon="-1.34925">
        <ele>32.34</ele>
        <time>2016-04-29T08:14:39Z</time>
      </trkpt>
      <trkpt lat="43.87117" lon="-1.34924">
        <ele>32.34</ele>
        <time>2016-04-29T08:14:40Z</time>
      </trkpt>
      <trkpt lat="43.87106" lon="-1.34923">
        <ele>31.86</ele>
        <time>2016-04-29T08:14:42Z</time>
      </trkpt>
      <trkpt lat="43.87101" lon="-1.34924">
        <ele>31.86</ele>
        <time>2016-04-29T08:14:43Z</time>
      </trkpt>
      <trkpt lat="43.87096" lon="-1.34926">
        <ele>31.86</ele>
        <time>2016-04-29T08:14:44Z</time>
      </trkpt>
      <trkpt lat="43.87091" lon="-1.34928">
        <ele>31.38</ele>
        <time>2016-04-29T08:14:45Z</time>
      </trkpt>
      <trkpt lat="43.87087" lon="-1.3493">
        <ele>31.38</ele>
        <time>2016-04-29T08:14:46Z</time>
      </trkpt>
      <trkpt lat="43.87082" lon="-1.34933">
        <ele>30.9</ele>
        <time>2016-04-29T08:14:47Z</time>
      </trkpt>
      <trkpt lat="43.87053" lon="-1.34954">
        <ele>29.94</ele>
        <time>2016-04-29T08:14:53Z</time>
      </trkpt>
      <trkpt lat="43.87016" lon="-1.34978">
        <ele>28.98</ele>
        <time>2016-04-29T08:15:01Z</time>
      </trkpt>
      <trkpt lat="43.87011" lon="-1.34982">
        <ele>29.46</ele>
        <time>2016-04-29T08:15:02Z</time>
      </trkpt>
      <trkpt lat="43.87007" lon="-1.34987">
        <ele>28.5</ele>
        <time>2016-04-29T08:15:03Z</time>
      </trkpt>
      <trkpt lat="43.87002" lon="-1.34991">
        <ele>28.02</ele>
        <time>2016-04-29T08:15:04Z</time>
      </trkpt>
      <trkpt lat="43.86998" lon="-1.34996">
        <ele>28.5</ele>
        <time>2016-04-29T08:15:05Z</time>
      </trkpt>
      <trkpt lat="43.86976" lon="-1.35015">
        <ele>27.53</ele>
        <time>2016-04-29T08:15:10Z</time>
      </trkpt>
      <trkpt lat="43.86971" lon="-1.35017">
        <ele>27.53</ele>
        <time>2016-04-29T08:15:11Z</time>
      </trkpt>
      <trkpt lat="43.86967" lon="-1.35019">
        <ele>27.53</ele>
        <time>2016-04-29T08:15:12Z</time>
      </trkpt>
      <trkpt lat="43.86962" lon="-1.35021">
        <ele>28.02</ele>
        <time>2016-04-29T08:15:13Z</time>
      </trkpt>
      <trkpt lat="43.86957" lon="-1.35023">
        <ele>27.53</ele>
        <time>2016-04-29T08:15:14Z</time>
      </trkpt>
      <trkpt lat="43.86947" lon="-1.35026">
        <ele>27.53</ele>
        <time>2016-04-29T08:15:16Z</time>
      </trkpt>
      <trkpt lat="43.86911" lon="-1.35037">
        <ele>27.05</ele>
        <time>2016-04-29T08:15:23Z</time>
      </trkpt>
      <trkpt lat="43.86886" lon="-1.35043">
        <ele>25.61</ele>
        <time>2016-04-29T08:15:28Z</time>
      </trkpt>
      <trkpt lat="43.86849" lon="-1.35047">
        <ele>25.13</ele>
        <time>2016-04-29T08:15:35Z</time>
      </trkpt>
      <trkpt lat="43.86825" lon="-1.35045">
        <ele>24.65</ele>
        <time>2016-04-29T08:15:39Z</time>
      </trkpt>
      <trkpt lat="43.86783" lon="-1.35029">
        <ele>24.65</ele>
        <time>2016-04-29T08:15:46Z</time>
      </trkpt>
      <trkpt lat="43.86776" lon="-1.35027">
        <ele>24.17</ele>
        <time>2016-04-29T08:15:47Z</time>
      </trkpt>
      <trkpt lat="43.86727" lon="-1.35007">
        <ele>23.69</ele>
        <time>2016-04-29T08:15:55Z</time>
      </trkpt>
      <trkpt lat="43.86721" lon="-1.35004">
        <ele>23.69</ele>
        <time>2016-04-29T08:15:56Z</time>
      </trkpt>
      <trkpt lat="43.86665" lon="-1.34981">
        <ele>23.21</ele>
        <time>2016-04-29T08:16:05Z</time>
      </trkpt>
      <trkpt lat="43.86622" lon="-1.34969">
        <ele>23.69</ele>
        <time>2016-04-29T08:16:13Z</time>
      </trkpt>
      <trkpt lat="43.86614" lon="-1.34964">
        <ele>23.69</ele>
        <time>2016-04-29T08:16:15Z</time>
      </trkpt>
      <trkpt lat="43.8661" lon="-1.34961">
        <ele>24.17</ele>
        <time>2016-04-29T08:16:16Z</time>
      </trkpt>
      <trkpt lat="43.86584" lon="-1.34947">
        <ele>23.69</ele>
        <time>2016-04-29T08:16:22Z</time>
      </trkpt>
      <trkpt lat="43.86543" lon="-1.34921">
        <ele>24.65</ele>
        <time>2016-04-29T08:16:29Z</time>
      </trkpt>
      <trkpt lat="43.865" lon="-1.34893">
        <ele>24.65</ele>
        <time>2016-04-29T08:16:37Z</time>
      </trkpt>
      <trkpt lat="43.86471" lon="-1.34878">
        <ele>24.65</ele>
        <time>2016-04-29T08:16:42Z</time>
      </trkpt>
      <trkpt lat="43.86465" lon="-1.34877">
        <ele>24.17</ele>
        <time>2016-04-29T08:16:43Z</time>
      </trkpt>
      <trkpt lat="43.86459" lon="-1.34876">
        <ele>24.65</ele>
        <time>2016-04-29T08:16:44Z</time>
      </trkpt>
      <trkpt lat="43.86453" lon="-1.34877">
        <ele>24.17</ele>
        <time>2016-04-29T08:16:45Z</time>
      </trkpt>
      <trkpt lat="43.86447" lon="-1.34877">
        <ele>24.17</ele>
        <time>2016-04-29T08:16:46Z</time>
      </trkpt>
      <trkpt lat="43.86407" lon="-1.34887">
        <ele>24.17</ele>
        <time>2016-04-29T08:16:54Z</time>
      </trkpt>
      <trkpt lat="43.864" lon="-1.34883">
        <ele>24.65</ele>
        <time>2016-04-29T08:16:56Z</time>
      </trkpt>
      <trkpt lat="43.86398" lon="-1.34879">
        <ele>24.65</ele>
        <time>2016-04-29T08:16:57Z</time>
      </trkpt>
      <trkpt lat="43.86398" lon="-1.34875">
        <ele>24.17</ele>
        <time>2016-04-29T08:16:58Z</time>
      </trkpt>
      <trkpt lat="43.86399" lon="-1.34871">
        <ele>24.65</ele>
        <time>2016-04-29T08:16:59Z</time>
      </trkpt>
      <trkpt lat="43.86401" lon="-1.34866">
        <ele>24.65</ele>
        <time>2016-04-29T08:17:00Z</time>
      </trkpt>
      <trkpt lat="43.86402" lon="-1.3486">
        <ele>24.65</ele>
        <time>2016-04-29T08:17:01Z</time>
      </trkpt>
      <trkpt lat="43.86416" lon="-1.34811">
        <ele>25.13</ele>
        <time>2016-04-29T08:17:08Z</time>
      </trkpt>
      <trkpt lat="43.86425" lon="-1.34772">
        <ele>25.13</ele>
        <time>2016-04-29T08:17:13Z</time>
      </trkpt>
      <trkpt lat="43.86431" lon="-1.34726">
        <ele>21.77</ele>
        <time>2016-04-29T08:17:19Z</time>
      </trkpt>
      <trkpt lat="43.86431" lon="-1.34718">
        <ele>27.53</ele>
        <time>2016-04-29T08:17:20Z</time>
      </trkpt>
      <trkpt lat="43.86432" lon="-1.3471">
        <ele>24.65</ele>
        <time>2016-04-29T08:17:21Z</time>
      </trkpt>
      <trkpt lat="43.86436" lon="-1.34659">
        <ele>26.57</ele>
        <time>2016-04-29T08:17:28Z</time>
      </trkpt>
      <trkpt lat="43.86439" lon="-1.34638">
        <ele>25.13</ele>
        <time>2016-04-29T08:17:31Z</time>
      </trkpt>
      <trkpt lat="43.8644" lon="-1.34615">
        <ele>26.09</ele>
        <time>2016-04-29T08:17:34Z</time>
      </trkpt>
      <trkpt lat="43.86442" lon="-1.34608">
        <ele>25.61</ele>
        <time>2016-04-29T08:17:35Z</time>
      </trkpt>
      <trkpt lat="43.86443" lon="-1.346">
        <ele>26.09</ele>
        <time>2016-04-29T08:17:36Z</time>
      </trkpt>
      <trkpt lat="43.8645" lon="-1.34546">
        <ele>26.09</ele>
        <time>2016-04-29T08:17:43Z</time>
      </trkpt>
      <trkpt lat="43.86455" lon="-1.34531">
        <ele>26.57</ele>
        <time>2016-04-29T08:17:45Z</time>
      </trkpt>
      <trkpt lat="43.86463" lon="-1.34509">
        <ele>26.57</ele>
        <time>2016-04-29T08:17:48Z</time>
      </trkpt>
      <trkpt lat="43.86465" lon="-1.34502">
        <ele>26.09</ele>
        <time>2016-04-29T08:17:49Z</time>
      </trkpt>
      <trkpt lat="43.86468" lon="-1.34495">
        <ele>26.09</ele>
        <time>2016-04-29T08:17:50Z</time>
      </trkpt>
      <trkpt lat="43.86469" lon="-1.34488">
        <ele>26.09</ele>
        <time>2016-04-29T08:17:51Z</time>
      </trkpt>
      <trkpt lat="43.86481" lon="-1.34451">
        <ele>26.09</ele>
        <time>2016-04-29T08:19:44Z</time>
      </trkpt>
      <trkpt lat="43.86486" lon="-1.34435">
        <ele>25.61</ele>
        <time>2016-04-29T08:19:47Z</time>
      </trkpt>
      <trkpt lat="43.86503" lon="-1.34394">
        <ele>26.57</ele>
        <time>2016-04-29T08:19:54Z</time>
      </trkpt>
      <trkpt lat="43.86511" lon="-1.34376">
        <ele>27.05</ele>
        <time>2016-04-29T08:19:57Z</time>
      </trkpt>
      <trkpt lat="43.86531" lon="-1.34333">
        <ele>26.09</ele>
        <time>2016-04-29T08:20:03Z</time>
      </trkpt>
      <trkpt lat="43.86536" lon="-1.34326">
        <ele>26.09</ele>
        <time>2016-04-29T08:20:04Z</time>
      </trkpt>
      <trkpt lat="43.86561" lon="-1.34294">
        <ele>26.09</ele>
        <time>2016-04-29T08:20:10Z</time>
      </trkpt>
      <trkpt lat="43.86565" lon="-1.34289">
        <ele>25.61</ele>
        <time>2016-04-29T08:20:11Z</time>
      </trkpt>
      <trkpt lat="43.86569" lon="-1.34285">
        <ele>25.61</ele>
        <time>2016-04-29T08:20:12Z</time>
      </trkpt>
      <trkpt lat="43.86589" lon="-1.34267">
        <ele>25.61</ele>
        <time>2016-04-29T08:20:17Z</time>
      </trkpt>
      <trkpt lat="43.86614" lon="-1.34252">
        <ele>27.05</ele>
        <time>2016-04-29T08:20:24Z</time>
      </trkpt>
      <trkpt lat="43.86625" lon="-1.3425">
        <ele>27.05</ele>
        <time>2016-04-29T08:20:30Z</time>
      </trkpt>
      <trkpt lat="43.86634" lon="-1.34248">
        <ele>28.02</ele>
        <time>2016-04-29T08:20:37Z</time>
      </trkpt>
      <trkpt lat="43.86646" lon="-1.34245">
        <ele>28.98</ele>
        <time>2016-04-29T08:20:47Z</time>
      </trkpt>
      <trkpt lat="43.86654" lon="-1.34245">
        <ele>29.94</ele>
        <time>2016-04-29T08:20:55Z</time>
      </trkpt>
      <trkpt lat="43.86668" lon="-1.34245">
        <ele>31.38</ele>
        <time>2016-04-29T08:21:05Z</time>
      </trkpt>
      <trkpt lat="43.86678" lon="-1.34246">
        <ele>32.34</ele>
        <time>2016-04-29T08:21:14Z</time>
      </trkpt>
      <trkpt lat="43.86686" lon="-1.34246">
        <ele>33.78</ele>
        <time>2016-04-29T08:21:21Z</time>
      </trkpt>
      <trkpt lat="43.86697" lon="-1.34248">
        <ele>34.74</ele>
        <time>2016-04-29T08:21:32Z</time>
      </trkpt>
      <trkpt lat="43.86706" lon="-1.3425">
        <ele>35.71</ele>
        <time>2016-04-29T08:21:40Z</time>
      </trkpt>
      <trkpt lat="43.86718" lon="-1.34245">
        <ele>34.74</ele>
        <time>2016-04-29T08:21:46Z</time>
      </trkpt>
      <trkpt lat="43.86732" lon="-1.34234">
        <ele>32.82</ele>
        <time>2016-04-29T08:21:50Z</time>
      </trkpt>
      <trkpt lat="43.86736" lon="-1.34229">
        <ele>32.34</ele>
        <time>2016-04-29T08:21:51Z</time>
      </trkpt>
      <trkpt lat="43.86743" lon="-1.34219">
        <ele>31.38</ele>
        <time>2016-04-29T08:21:53Z</time>
      </trkpt>
      <trkpt lat="43.86746" lon="-1.34213">
        <ele>29.94</ele>
        <time>2016-04-29T08:21:54Z</time>
      </trkpt>
      <trkpt lat="43.86748" lon="-1.34207">
        <ele>29.94</ele>
        <time>2016-04-29T08:21:55Z</time>
      </trkpt>
      <trkpt lat="43.86753" lon="-1.34195">
        <ele>28.98</ele>
        <time>2016-04-29T08:21:57Z</time>
      </trkpt>
      <trkpt lat="43.86755" lon="-1.3419">
        <ele>28.5</ele>
        <time>2016-04-29T08:21:58Z</time>
      </trkpt>
      <trkpt lat="43.86758" lon="-1.34184">
        <ele>27.05</ele>
        <time>2016-04-29T08:21:59Z</time>
      </trkpt>
      <trkpt lat="43.86765" lon="-1.34172">
        <ele>26.09</ele>
        <time>2016-04-29T08:22:01Z</time>
      </trkpt>
      <trkpt lat="43.86783" lon="-1.34142">
        <ele>23.69</ele>
        <time>2016-04-29T08:22:07Z</time>
      </trkpt>
      <trkpt lat="43.86803" lon="-1.34117">
        <ele>24.17</ele>
        <time>2016-04-29T08:22:13Z</time>
      </trkpt>
      <trkpt lat="43.86838" lon="-1.34077">
        <ele>24.17</ele>
        <time>2016-04-29T08:22:23Z</time>
      </trkpt>
      <trkpt lat="43.8685" lon="-1.34064">
        <ele>23.21</ele>
        <time>2016-04-29T08:22:29Z</time>
      </trkpt>
      <trkpt lat="43.86857" lon="-1.34052">
        <ele>22.73</ele>
        <time>2016-04-29T08:22:36Z</time>
      </trkpt>
      <trkpt lat="43.86858" lon="-1.34049">
        <ele>23.21</ele>
        <time>2016-04-29T08:22:39Z</time>
      </trkpt>
      <trkpt lat="43.86859" lon="-1.34047">
        <ele>23.21</ele>
        <time>2016-04-29T08:22:40Z</time>
      </trkpt>
      <trkpt lat="43.8686" lon="-1.34035">
        <ele>23.21</ele>
        <time>2016-04-29T08:22:48Z</time>
      </trkpt>
      <trkpt lat="43.8686" lon="-1.34028">
        <ele>23.21</ele>
        <time>2016-04-29T08:22:54Z</time>
      </trkpt>
      <trkpt lat="43.86861" lon="-1.34012">
        <ele>23.69</ele>
        <time>2016-04-29T08:22:59Z</time>
      </trkpt>
      <trkpt lat="43.86867" lon="-1.33982">
        <ele>24.17</ele>
        <time>2016-04-29T08:23:06Z</time>
      </trkpt>
      <trkpt lat="43.86868" lon="-1.33951">
        <ele>24.17</ele>
        <time>2016-04-29T08:23:13Z</time>
      </trkpt>
      <trkpt lat="43.86869" lon="-1.33946">
        <ele>23.69</ele>
        <time>2016-04-29T08:23:17Z</time>
      </trkpt>
      <trkpt lat="43.8687" lon="-1.33945">
        <ele>24.65</ele>
        <time>2016-04-29T08:23:18Z</time>
      </trkpt>
      <trkpt lat="43.8687" lon="-1.33943">
        <ele>24.17</ele>
        <time>2016-04-29T08:23:19Z</time>
      </trkpt>
      <trkpt lat="43.86868" lon="-1.3393">
        <ele>24.65</ele>
        <time>2016-04-29T08:23:28Z</time>
      </trkpt>
      <trkpt lat="43.86868" lon="-1.33917">
        <ele>25.13</ele>
        <time>2016-04-29T08:23:37Z</time>
      </trkpt>
      <trkpt lat="43.86867" lon="-1.33906">
        <ele>25.13</ele>
        <time>2016-04-29T08:23:44Z</time>
      </trkpt>
      <trkpt lat="43.86866" lon="-1.33889">
        <ele>25.61</ele>
        <time>2016-04-29T08:23:54Z</time>
      </trkpt>
      <trkpt lat="43.86866" lon="-1.33887">
        <ele>26.57</ele>
        <time>2016-04-29T08:24:01Z</time>
      </trkpt>
      <trkpt lat="43.86866" lon="-1.33879">
        <ele>26.09</ele>
        <time>2016-04-29T08:24:09Z</time>
      </trkpt>
      <trkpt lat="43.86868" lon="-1.33856">
        <ele>26.57</ele>
        <time>2016-04-29T08:24:15Z</time>
      </trkpt>
      <trkpt lat="43.86876" lon="-1.33811">
        <ele>27.05</ele>
        <time>2016-04-29T08:24:25Z</time>
      </trkpt>
      <trkpt lat="43.86882" lon="-1.33781">
        <ele>27.53</ele>
        <time>2016-04-29T08:24:32Z</time>
      </trkpt>
      <trkpt lat="43.86893" lon="-1.33753">
        <ele>28.5</ele>
        <time>2016-04-29T08:24:40Z</time>
      </trkpt>
      <trkpt lat="43.86911" lon="-1.3372">
        <ele>28.5</ele>
        <time>2016-04-29T08:24:49Z</time>
      </trkpt>
      <trkpt lat="43.86925" lon="-1.33684">
        <ele>28.5</ele>
        <time>2016-04-29T08:24:57Z</time>
      </trkpt>
      <trkpt lat="43.86938" lon="-1.33647">
        <ele>28.98</ele>
        <time>2016-04-29T08:25:05Z</time>
      </trkpt>
      <trkpt lat="43.86945" lon="-1.33632">
        <ele>29.46</ele>
        <time>2016-04-29T08:25:10Z</time>
      </trkpt>
      <trkpt lat="43.86966" lon="-1.33595">
        <ele>30.42</ele>
        <time>2016-04-29T08:25:20Z</time>
      </trkpt>
      <trkpt lat="43.86979" lon="-1.33579">
        <ele>30.42</ele>
        <time>2016-04-29T08:25:27Z</time>
      </trkpt>
      <trkpt lat="43.86993" lon="-1.33557">
        <ele>30.42</ele>
        <time>2016-04-29T08:25:34Z</time>
      </trkpt>
      <trkpt lat="43.86997" lon="-1.33549">
        <ele>29.46</ele>
        <time>2016-04-29T08:25:36Z</time>
      </trkpt>
      <trkpt lat="43.87009" lon="-1.3352">
        <ele>29.46</ele>
        <time>2016-04-29T08:25:43Z</time>
      </trkpt>
      <trkpt lat="43.87022" lon="-1.33479">
        <ele>29.46</ele>
        <time>2016-04-29T08:25:52Z</time>
      </trkpt>
      <trkpt lat="43.87032" lon="-1.33446">
        <ele>29.46</ele>
        <time>2016-04-29T08:25:59Z</time>
      </trkpt>
      <trkpt lat="43.8704" lon="-1.33419">
        <ele>29.94</ele>
        <time>2016-04-29T08:26:05Z</time>
      </trkpt>
      <trkpt lat="43.87046" lon="-1.33388">
        <ele>30.42</ele>
        <time>2016-04-29T08:26:12Z</time>
      </trkpt>
      <trkpt lat="43.8705" lon="-1.33372">
        <ele>30.42</ele>
        <time>2016-04-29T08:26:18Z</time>
      </trkpt>
      <trkpt lat="43.87049" lon="-1.33367">
        <ele>30.9</ele>
        <time>2016-04-29T08:26:24Z</time>
      </trkpt>
      <trkpt lat="43.87053" lon="-1.33354">
        <ele>31.38</ele>
        <time>2016-04-29T08:26:33Z</time>
      </trkpt>
      <trkpt lat="43.87058" lon="-1.33341">
        <ele>31.86</ele>
        <time>2016-04-29T08:26:41Z</time>
      </trkpt>
      <trkpt lat="43.87061" lon="-1.33335">
        <ele>31.86</ele>
        <time>2016-04-29T08:26:46Z</time>
      </trkpt>
      <trkpt lat="43.87067" lon="-1.33316">
        <ele>31.38</ele>
        <time>2016-04-29T08:26:52Z</time>
      </trkpt>
      <trkpt lat="43.87076" lon="-1.3328">
        <ele>30.9</ele>
        <time>2016-04-29T08:27:00Z</time>
      </trkpt>
      <trkpt lat="43.87083" lon="-1.33258">
        <ele>29.94</ele>
        <time>2016-04-29T08:27:06Z</time>
      </trkpt>
      <trkpt lat="43.87085" lon="-1.33231">
        <ele>30.42</ele>
        <time>2016-04-29T08:27:12Z</time>
      </trkpt>
      <trkpt lat="43.87087" lon="-1.33205">
        <ele>30.9</ele>
        <time>2016-04-29T08:27:18Z</time>
      </trkpt>
      <trkpt lat="43.87088" lon="-1.3317">
        <ele>31.86</ele>
        <time>2016-04-29T08:27:26Z</time>
      </trkpt>
      <trkpt lat="43.87082" lon="-1.33138">
        <ele>31.38</ele>
        <time>2016-04-29T08:27:33Z</time>
      </trkpt>
      <trkpt lat="43.87086" lon="-1.33094">
        <ele>30.9</ele>
        <time>2016-04-29T08:27:40Z</time>
      </trkpt>
      <trkpt lat="43.87089" lon="-1.33082">
        <ele>31.38</ele>
        <time>2016-04-29T08:27:43Z</time>
      </trkpt>
      <trkpt lat="43.87091" lon="-1.33081">
        <ele>30.42</ele>
        <time>2016-04-29T08:27:50Z</time>
      </trkpt>
      <trkpt lat="43.87093" lon="-1.33082">
        <ele>30.42</ele>
        <time>2016-04-29T08:28:09Z</time>
      </trkpt>
      <trkpt lat="43.87093" lon="-1.33081">
        <ele>30.9</ele>
        <time>2016-04-29T08:28:25Z</time>
      </trkpt>
      <trkpt lat="43.87092" lon="-1.3308">
        <ele>30.9</ele>
        <time>2016-04-29T08:28:38Z</time>
      </trkpt>
      <trkpt lat="43.87091" lon="-1.33082">
        <ele>31.38</ele>
        <time>2016-04-29T08:28:57Z</time>
      </trkpt>
      <trkpt lat="43.87092" lon="-1.33082">
        <ele>30.9</ele>
        <time>2016-04-29T08:29:13Z</time>
      </trkpt>
      <trkpt lat="43.87093" lon="-1.33081">
        <ele>31.38</ele>
        <time>2016-04-29T08:29:14Z</time>
      </trkpt>
      <trkpt lat="43.87095" lon="-1.33083">
        <ele>30.9</ele>
        <time>2016-04-29T08:29:15Z</time>
      </trkpt>
      <trkpt lat="43.87104" lon="-1.331">
        <ele>30.42</ele>
        <time>2016-04-29T08:29:20Z</time>
      </trkpt>
      <trkpt lat="43.87106" lon="-1.33106">
        <ele>30.42</ele>
        <time>2016-04-29T08:29:21Z</time>
      </trkpt>
      <trkpt lat="43.87118" lon="-1.33125">
        <ele>28.5</ele>
        <time>2016-04-29T08:29:25Z</time>
      </trkpt>
      <trkpt lat="43.8714" lon="-1.33136">
        <ele>27.05</ele>
        <time>2016-04-29T08:29:30Z</time>
      </trkpt>
      <trkpt lat="43.8715" lon="-1.33143">
        <ele>26.57</ele>
        <time>2016-04-29T08:29:32Z</time>
      </trkpt>
      <trkpt lat="43.87156" lon="-1.33147">
        <ele>26.09</ele>
        <time>2016-04-29T08:29:33Z</time>
      </trkpt>
      <trkpt lat="43.87203" lon="-1.33181">
        <ele>25.13</ele>
        <time>2016-04-29T08:29:41Z</time>
      </trkpt>
      <trkpt lat="43.87244" lon="-1.33214">
        <ele>27.05</ele>
        <time>2016-04-29T08:29:49Z</time>
      </trkpt>
      <trkpt lat="43.87299" lon="-1.33256">
        <ele>25.13</ele>
        <time>2016-04-29T08:29:59Z</time>
      </trkpt>
      <trkpt lat="43.87353" lon="-1.33287">
        <ele>24.65</ele>
        <time>2016-04-29T08:30:08Z</time>
      </trkpt>
      <trkpt lat="43.87365" lon="-1.33291">
        <ele>24.65</ele>
        <time>2016-04-29T08:30:10Z</time>
      </trkpt>
      <trkpt lat="43.87391" lon="-1.33297">
        <ele>24.65</ele>
        <time>2016-04-29T08:30:14Z</time>
      </trkpt>
      <trkpt lat="43.87443" lon="-1.3331">
        <ele>24.17</ele>
        <time>2016-04-29T08:30:23Z</time>
      </trkpt>
      <trkpt lat="43.87488" lon="-1.33329">
        <ele>24.17</ele>
        <time>2016-04-29T08:30:32Z</time>
      </trkpt>
      <trkpt lat="43.87497" lon="-1.33333">
        <ele>24.17</ele>
        <time>2016-04-29T08:30:34Z</time>
      </trkpt>
      <trkpt lat="43.8751" lon="-1.33341">
        <ele>24.65</ele>
        <time>2016-04-29T08:30:37Z</time>
      </trkpt>
      <trkpt lat="43.87523" lon="-1.33347">
        <ele>24.17</ele>
        <time>2016-04-29T08:30:40Z</time>
      </trkpt>
      <trkpt lat="43.87559" lon="-1.33377">
        <ele>24.17</ele>
        <time>2016-04-29T08:30:49Z</time>
      </trkpt>
      <trkpt lat="43.87572" lon="-1.33389">
        <ele>24.17</ele>
        <time>2016-04-29T08:30:52Z</time>
      </trkpt>
      <trkpt lat="43.87575" lon="-1.33393">
        <ele>24.17</ele>
        <time>2016-04-29T08:30:53Z</time>
      </trkpt>
      <trkpt lat="43.87585" lon="-1.33405">
        <ele>24.17</ele>
        <time>2016-04-29T08:30:56Z</time>
      </trkpt>
      <trkpt lat="43.87588" lon="-1.3341">
        <ele>24.65</ele>
        <time>2016-04-29T08:30:57Z</time>
      </trkpt>
      <trkpt lat="43.87592" lon="-1.33414">
        <ele>24.65</ele>
        <time>2016-04-29T08:30:58Z</time>
      </trkpt>
      <trkpt lat="43.876" lon="-1.33422">
        <ele>24.65</ele>
        <time>2016-04-29T08:31:00Z</time>
      </trkpt>
      <trkpt lat="43.87604" lon="-1.33427">
        <ele>24.17</ele>
        <time>2016-04-29T08:31:01Z</time>
      </trkpt>
      <trkpt lat="43.87608" lon="-1.3343">
        <ele>24.17</ele>
        <time>2016-04-29T08:31:02Z</time>
      </trkpt>
      <trkpt lat="43.87646" lon="-1.33459">
        <ele>24.17</ele>
        <time>2016-04-29T08:31:10Z</time>
      </trkpt>
      <trkpt lat="43.87678" lon="-1.33483">
        <ele>23.21</ele>
        <time>2016-04-29T08:31:17Z</time>
      </trkpt>
      <trkpt lat="43.87701" lon="-1.33501">
        <ele>22.25</ele>
        <time>2016-04-29T08:31:22Z</time>
      </trkpt>
      <trkpt lat="43.87705" lon="-1.33505">
        <ele>22.25</ele>
        <time>2016-04-29T08:31:23Z</time>
      </trkpt>
      <trkpt lat="43.8771" lon="-1.33509">
        <ele>22.25</ele>
        <time>2016-04-29T08:31:24Z</time>
      </trkpt>
      <trkpt lat="43.87714" lon="-1.33513">
        <ele>22.25</ele>
        <time>2016-04-29T08:31:25Z</time>
      </trkpt>
      <trkpt lat="43.87718" lon="-1.33517">
        <ele>22.25</ele>
        <time>2016-04-29T08:31:26Z</time>
      </trkpt>
      <trkpt lat="43.87722" lon="-1.33522">
        <ele>21.77</ele>
        <time>2016-04-29T08:31:27Z</time>
      </trkpt>
      <trkpt lat="43.8773" lon="-1.33531">
        <ele>22.25</ele>
        <time>2016-04-29T08:31:29Z</time>
      </trkpt>
      <trkpt lat="43.87733" lon="-1.33536">
        <ele>22.73</ele>
        <time>2016-04-29T08:31:30Z</time>
      </trkpt>
      <trkpt lat="43.87737" lon="-1.33541">
        <ele>22.25</ele>
        <time>2016-04-29T08:31:31Z</time>
      </trkpt>
      <trkpt lat="43.87741" lon="-1.33544">
        <ele>22.25</ele>
        <time>2016-04-29T08:31:32Z</time>
      </trkpt>
      <trkpt lat="43.87745" lon="-1.33548">
        <ele>22.73</ele>
        <time>2016-04-29T08:31:33Z</time>
      </trkpt>
      <trkpt lat="43.87757" lon="-1.33557">
        <ele>22.25</ele>
        <time>2016-04-29T08:31:36Z</time>
      </trkpt>
      <trkpt lat="43.87774" lon="-1.33575">
        <ele>20.81</ele>
        <time>2016-04-29T08:31:40Z</time>
      </trkpt>
      <trkpt lat="43.87799" lon="-1.33605">
        <ele>21.29</ele>
        <time>2016-04-29T08:31:46Z</time>
      </trkpt>
      <trkpt lat="43.87804" lon="-1.3361">
        <ele>21.29</ele>
        <time>2016-04-29T08:31:47Z</time>
      </trkpt>
      <trkpt lat="43.87821" lon="-1.33628">
        <ele>20.81</ele>
        <time>2016-04-29T08:31:51Z</time>
      </trkpt>
      <trkpt lat="43.87825" lon="-1.33632">
        <ele>21.29</ele>
        <time>2016-04-29T08:31:52Z</time>
      </trkpt>
      <trkpt lat="43.87829" lon="-1.33637">
        <ele>21.29</ele>
        <time>2016-04-29T08:31:53Z</time>
      </trkpt>
      <trkpt lat="43.87834" lon="-1.33641">
        <ele>20.81</ele>
        <time>2016-04-29T08:31:54Z</time>
      </trkpt>
      <trkpt lat="43.87838" lon="-1.33645">
        <ele>21.29</ele>
        <time>2016-04-29T08:31:55Z</time>
      </trkpt>
      <trkpt lat="43.87856" lon="-1.33658">
        <ele>21.29</ele>
        <time>2016-04-29T08:31:59Z</time>
      </trkpt>
      <trkpt lat="43.87879" lon="-1.33677">
        <ele>21.77</ele>
        <time>2016-04-29T08:32:05Z</time>
      </trkpt>
      <trkpt lat="43.87897" lon="-1.33685">
        <ele>21.29</ele>
        <time>2016-04-29T08:32:09Z</time>
      </trkpt>
      <trkpt lat="43.87901" lon="-1.33687">
        <ele>21.29</ele>
        <time>2016-04-29T08:32:10Z</time>
      </trkpt>
      <trkpt lat="43.87914" lon="-1.33693">
        <ele>21.29</ele>
        <time>2016-04-29T08:32:13Z</time>
      </trkpt>
      <trkpt lat="43.87918" lon="-1.33695">
        <ele>21.29</ele>
        <time>2016-04-29T08:32:14Z</time>
      </trkpt>
      <trkpt lat="43.87933" lon="-1.337">
        <ele>21.29</ele>
        <time>2016-04-29T08:32:17Z</time>
      </trkpt>
      <trkpt lat="43.87937" lon="-1.33701">
        <ele>21.77</ele>
        <time>2016-04-29T08:32:18Z</time>
      </trkpt>
      <trkpt lat="43.87961" lon="-1.337">
        <ele>22.73</ele>
        <time>2016-04-29T08:32:25Z</time>
      </trkpt>
      <trkpt lat="43.87981" lon="-1.33695">
        <ele>23.69</ele>
        <time>2016-04-29T08:32:31Z</time>
      </trkpt>
      <trkpt lat="43.88004" lon="-1.33693">
        <ele>26.09</ele>
        <time>2016-04-29T08:32:38Z</time>
      </trkpt>
      <trkpt lat="43.88032" lon="-1.33693">
        <ele>28.02</ele>
        <time>2016-04-29T08:32:46Z</time>
      </trkpt>
      <trkpt lat="43.88064" lon="-1.33687">
        <ele>28.98</ele>
        <time>2016-04-29T08:32:56Z</time>
      </trkpt>
      <trkpt lat="43.88083" lon="-1.33677">
        <ele>27.53</ele>
        <time>2016-04-29T08:33:01Z</time>
      </trkpt>
      <trkpt lat="43.88108" lon="-1.33673">
        <ele>25.61</ele>
        <time>2016-04-29T08:33:08Z</time>
      </trkpt>
      <trkpt lat="43.88122" lon="-1.33672">
        <ele>23.69</ele>
        <time>2016-04-29T08:33:11Z</time>
      </trkpt>
      <trkpt lat="43.88148" lon="-1.33666">
        <ele>22.25</ele>
        <time>2016-04-29T08:33:16Z</time>
      </trkpt>
      <trkpt lat="43.88183" lon="-1.33654">
        <ele>22.25</ele>
        <time>2016-04-29T08:33:23Z</time>
      </trkpt>
      <trkpt lat="43.88205" lon="-1.33644">
        <ele>21.77</ele>
        <time>2016-04-29T08:33:29Z</time>
      </trkpt>
      <trkpt lat="43.88215" lon="-1.33641">
        <ele>22.73</ele>
        <time>2016-04-29T08:33:32Z</time>
      </trkpt>
      <trkpt lat="43.88223" lon="-1.33643">
        <ele>23.21</ele>
        <time>2016-04-29T08:33:34Z</time>
      </trkpt>
      <trkpt lat="43.88253" lon="-1.33653">
        <ele>22.73</ele>
        <time>2016-04-29T08:33:41Z</time>
      </trkpt>
      <trkpt lat="43.88276" lon="-1.33662">
        <ele>22.73</ele>
        <time>2016-04-29T08:33:47Z</time>
      </trkpt>
      <trkpt lat="43.88305" lon="-1.33666">
        <ele>22.73</ele>
        <time>2016-04-29T08:33:54Z</time>
      </trkpt>
      <trkpt lat="43.88331" lon="-1.33664">
        <ele>23.21</ele>
        <time>2016-04-29T08:34:00Z</time>
      </trkpt>
      <trkpt lat="43.88359" lon="-1.33649">
        <ele>23.69</ele>
        <time>2016-04-29T08:34:07Z</time>
      </trkpt>
      <trkpt lat="43.88383" lon="-1.33641">
        <ele>23.69</ele>
        <time>2016-04-29T08:34:14Z</time>
      </trkpt>
      <trkpt lat="43.88405" lon="-1.33635">
        <ele>24.17</ele>
        <time>2016-04-29T08:34:20Z</time>
      </trkpt>
      <trkpt lat="43.88428" lon="-1.33639">
        <ele>24.17</ele>
        <time>2016-04-29T08:34:26Z</time>
      </trkpt>
      <trkpt lat="43.88462" lon="-1.33645">
        <ele>25.13</ele>
        <time>2016-04-29T08:34:34Z</time>
      </trkpt>
      <trkpt lat="43.88486" lon="-1.33651">
        <ele>25.61</ele>
        <time>2016-04-29T08:34:40Z</time>
      </trkpt>
      <trkpt lat="43.88511" lon="-1.33662">
        <ele>25.13</ele>
        <time>2016-04-29T08:34:47Z</time>
      </trkpt>
      <trkpt lat="43.88532" lon="-1.33678">
        <ele>25.13</ele>
        <time>2016-04-29T08:34:53Z</time>
      </trkpt>
      <trkpt lat="43.88549" lon="-1.33687">
        <ele>24.17</ele>
        <time>2016-04-29T08:34:58Z</time>
      </trkpt>
      <trkpt lat="43.88579" lon="-1.33702">
        <ele>23.69</ele>
        <time>2016-04-29T08:35:06Z</time>
      </trkpt>
      <trkpt lat="43.88601" lon="-1.33712">
        <ele>23.21</ele>
        <time>2016-04-29T08:35:12Z</time>
      </trkpt>
      <trkpt lat="43.88625" lon="-1.33712">
        <ele>22.73</ele>
        <time>2016-04-29T08:35:18Z</time>
      </trkpt>
      <trkpt lat="43.88646" lon="-1.33714">
        <ele>22.73</ele>
        <time>2016-04-29T08:35:24Z</time>
      </trkpt>
      <trkpt lat="43.88666" lon="-1.33726">
        <ele>21.77</ele>
        <time>2016-04-29T08:35:30Z</time>
      </trkpt>
      <trkpt lat="43.88688" lon="-1.33743">
        <ele>22.25</ele>
        <time>2016-04-29T08:35:36Z</time>
      </trkpt>
      <trkpt lat="43.88716" lon="-1.33764">
        <ele>21.29</ele>
        <time>2016-04-29T08:35:43Z</time>
      </trkpt>
      <trkpt lat="43.88742" lon="-1.33778">
        <ele>20.81</ele>
        <time>2016-04-29T08:35:49Z</time>
      </trkpt>
      <trkpt lat="43.88759" lon="-1.33791">
        <ele>20.81</ele>
        <time>2016-04-29T08:35:53Z</time>
      </trkpt>
      <trkpt lat="43.88763" lon="-1.33794">
        <ele>20.81</ele>
        <time>2016-04-29T08:35:54Z</time>
      </trkpt>
      <trkpt lat="43.8879" lon="-1.33812">
        <ele>21.77</ele>
        <time>2016-04-29T08:36:01Z</time>
      </trkpt>
      <trkpt lat="43.88806" lon="-1.33827">
        <ele>22.73</ele>
        <time>2016-04-29T08:36:08Z</time>
      </trkpt>
      <trkpt lat="43.88821" lon="-1.33847">
        <ele>22.73</ele>
        <time>2016-04-29T08:36:14Z</time>
      </trkpt>
      <trkpt lat="43.88836" lon="-1.3387">
        <ele>22.25</ele>
        <time>2016-04-29T08:36:20Z</time>
      </trkpt>
      <trkpt lat="43.88852" lon="-1.33899">
        <ele>22.25</ele>
        <time>2016-04-29T08:36:27Z</time>
      </trkpt>
      <trkpt lat="43.88867" lon="-1.33922">
        <ele>22.73</ele>
        <time>2016-04-29T08:36:33Z</time>
      </trkpt>
      <trkpt lat="43.88878" lon="-1.3394">
        <ele>22.25</ele>
        <time>2016-04-29T08:36:39Z</time>
      </trkpt>
      <trkpt lat="43.88885" lon="-1.33976">
        <ele>21.77</ele>
        <time>2016-04-29T08:36:46Z</time>
      </trkpt>
      <trkpt lat="43.8889" lon="-1.34024">
        <ele>21.77</ele>
        <time>2016-04-29T08:37:31Z</time>
      </trkpt>
      <trkpt lat="43.88892" lon="-1.34026">
        <ele>21.77</ele>
        <time>2016-04-29T08:37:32Z</time>
      </trkpt>
      <trkpt lat="43.88909" lon="-1.34041">
        <ele>21.77</ele>
        <time>2016-04-29T08:37:39Z</time>
      </trkpt>
      <trkpt lat="43.88926" lon="-1.34035">
        <ele>22.25</ele>
        <time>2016-04-29T08:37:45Z</time>
      </trkpt>
      <trkpt lat="43.88939" lon="-1.34018">
        <ele>22.73</ele>
        <time>2016-04-29T08:37:51Z</time>
      </trkpt>
      <trkpt lat="43.88943" lon="-1.34012">
        <ele>23.21</ele>
        <time>2016-04-29T08:37:54Z</time>
      </trkpt>
      <trkpt lat="43.88951" lon="-1.33993">
        <ele>23.21</ele>
        <time>2016-04-29T08:38:00Z</time>
      </trkpt>
      <trkpt lat="43.88959" lon="-1.33978">
        <ele>22.73</ele>
        <time>2016-04-29T08:38:07Z</time>
      </trkpt>
      <trkpt lat="43.88973" lon="-1.33958">
        <ele>23.21</ele>
        <time>2016-04-29T08:38:14Z</time>
      </trkpt>
      <trkpt lat="43.88985" lon="-1.33949">
        <ele>23.21</ele>
        <time>2016-04-29T08:38:18Z</time>
      </trkpt>
      <trkpt lat="43.8901" lon="-1.3394">
        <ele>23.21</ele>
        <time>2016-04-29T08:38:25Z</time>
      </trkpt>
      <trkpt lat="43.89033" lon="-1.33934">
        <ele>23.21</ele>
        <time>2016-04-29T08:38:31Z</time>
      </trkpt>
      <trkpt lat="43.89057" lon="-1.33925">
        <ele>22.25</ele>
        <time>2016-04-29T08:38:38Z</time>
      </trkpt>
      <trkpt lat="43.89074" lon="-1.33913">
        <ele>22.73</ele>
        <time>2016-04-29T08:38:44Z</time>
      </trkpt>
      <trkpt lat="43.89098" lon="-1.33906">
        <ele>22.73</ele>
        <time>2016-04-29T08:38:51Z</time>
      </trkpt>
      <trkpt lat="43.89128" lon="-1.33903">
        <ele>22.25</ele>
        <time>2016-04-29T08:38:59Z</time>
      </trkpt>
      <trkpt lat="43.89151" lon="-1.33899">
        <ele>23.21</ele>
        <time>2016-04-29T08:39:06Z</time>
      </trkpt>
      <trkpt lat="43.89169" lon="-1.33896">
        <ele>28.98</ele>
        <time>2016-04-29T08:46:23Z</time>
      </trkpt>
      <trkpt lat="43.89177" lon="-1.3391">
        <ele>28.98</ele>
        <time>2016-04-29T08:46:31Z</time>
      </trkpt>
      <trkpt lat="43.89189" lon="-1.33917">
        <ele>30.42</ele>
        <time>2016-04-29T08:46:37Z</time>
      </trkpt>
      <trkpt lat="43.89192" lon="-1.33922">
        <ele>30.42</ele>
        <time>2016-04-29T08:46:44Z</time>
      </trkpt>
      <trkpt lat="43.89198" lon="-1.33911">
        <ele>29.46</ele>
        <time>2016-04-29T08:46:48Z</time>
      </trkpt>
      <trkpt lat="43.89203" lon="-1.33896">
        <ele>30.42</ele>
        <time>2016-04-29T08:46:53Z</time>
      </trkpt>
      <trkpt lat="43.89205" lon="-1.33891">
        <ele>29.46</ele>
        <time>2016-04-29T08:46:55Z</time>
      </trkpt>
      <trkpt lat="43.89208" lon="-1.33891">
        <ele>29.46</ele>
        <time>2016-04-29T08:46:56Z</time>
      </trkpt>
      <trkpt lat="43.89211" lon="-1.33892">
        <ele>29.46</ele>
        <time>2016-04-29T08:46:57Z</time>
      </trkpt>
      <trkpt lat="43.89214" lon="-1.33894">
        <ele>29.46</ele>
        <time>2016-04-29T08:46:58Z</time>
      </trkpt>
      <trkpt lat="43.89234" lon="-1.33909">
        <ele>29.94</ele>
        <time>2016-04-29T08:47:05Z</time>
      </trkpt>
      <trkpt lat="43.89255" lon="-1.33923">
        <ele>29.94</ele>
        <time>2016-04-29T08:47:12Z</time>
      </trkpt>
      <trkpt lat="43.89277" lon="-1.33927">
        <ele>29.94</ele>
        <time>2016-04-29T08:47:19Z</time>
      </trkpt>
      <trkpt lat="43.89278" lon="-1.33929">
        <ele>29.94</ele>
        <time>2016-04-29T08:47:20Z</time>
      </trkpt>
      <trkpt lat="43.89287" lon="-1.3394">
        <ele>29.94</ele>
        <time>2016-04-29T08:47:26Z</time>
      </trkpt>
      <trkpt lat="43.89295" lon="-1.33945">
        <ele>28.98</ele>
        <time>2016-04-29T08:47:30Z</time>
      </trkpt>
      <trkpt lat="43.89296" lon="-1.33944">
        <ele>28.5</ele>
        <time>2016-04-29T08:47:31Z</time>
      </trkpt>
      <trkpt lat="43.89296" lon="-1.33941">
        <ele>28.5</ele>
        <time>2016-04-29T08:47:32Z</time>
      </trkpt>
      <trkpt lat="43.89298" lon="-1.33937">
        <ele>28.5</ele>
        <time>2016-04-29T08:47:33Z</time>
      </trkpt>
      <trkpt lat="43.89299" lon="-1.33934">
        <ele>28.02</ele>
        <time>2016-04-29T08:47:34Z</time>
      </trkpt>
      <trkpt lat="43.89301" lon="-1.33931">
        <ele>28.5</ele>
        <time>2016-04-29T08:47:35Z</time>
      </trkpt>
      <trkpt lat="43.89302" lon="-1.33926">
        <ele>28.02</ele>
        <time>2016-04-29T08:47:36Z</time>
      </trkpt>
      <trkpt lat="43.89304" lon="-1.33921">
        <ele>28.02</ele>
        <time>2016-04-29T08:47:37Z</time>
      </trkpt>
      <trkpt lat="43.89305" lon="-1.33917">
        <ele>28.98</ele>
        <time>2016-04-29T08:47:38Z</time>
      </trkpt>
      <trkpt lat="43.89306" lon="-1.33913">
        <ele>29.46</ele>
        <time>2016-04-29T08:47:39Z</time>
      </trkpt>
      <trkpt lat="43.89307" lon="-1.33908">
        <ele>29.46</ele>
        <time>2016-04-29T08:47:40Z</time>
      </trkpt>
      <trkpt lat="43.89317" lon="-1.33881">
        <ele>29.94</ele>
        <time>2016-04-29T08:47:47Z</time>
      </trkpt>
      <trkpt lat="43.8932" lon="-1.33874">
        <ele>29.94</ele>
        <time>2016-04-29T08:47:49Z</time>
      </trkpt>
      <trkpt lat="43.89328" lon="-1.33866">
        <ele>30.42</ele>
        <time>2016-04-29T08:47:53Z</time>
      </trkpt>
      <trkpt lat="43.89329" lon="-1.33864">
        <ele>29.94</ele>
        <time>2016-04-29T08:47:54Z</time>
      </trkpt>
      <trkpt lat="43.8933" lon="-1.33861">
        <ele>29.94</ele>
        <time>2016-04-29T08:47:55Z</time>
      </trkpt>
      <trkpt lat="43.89331" lon="-1.33858">
        <ele>30.42</ele>
        <time>2016-04-29T08:47:56Z</time>
      </trkpt>
      <trkpt lat="43.8933" lon="-1.33855">
        <ele>30.42</ele>
        <time>2016-04-29T08:47:57Z</time>
      </trkpt>
      <trkpt lat="43.89329" lon="-1.33851">
        <ele>30.42</ele>
        <time>2016-04-29T08:47:58Z</time>
      </trkpt>
      <trkpt lat="43.89328" lon="-1.33843">
        <ele>30.42</ele>
        <time>2016-04-29T08:48:00Z</time>
      </trkpt>
      <trkpt lat="43.89329" lon="-1.33837">
        <ele>30.42</ele>
        <time>2016-04-29T08:48:01Z</time>
      </trkpt>
      <trkpt lat="43.89325" lon="-1.33809">
        <ele>30.42</ele>
        <time>2016-04-29T08:48:05Z</time>
      </trkpt>
      <trkpt lat="43.89324" lon="-1.33802">
        <ele>30.42</ele>
        <time>2016-04-29T08:48:06Z</time>
      </trkpt>
      <trkpt lat="43.89324" lon="-1.33789">
        <ele>29.46</ele>
        <time>2016-04-29T08:48:08Z</time>
      </trkpt>
      <trkpt lat="43.89324" lon="-1.33782">
        <ele>29.94</ele>
        <time>2016-04-29T08:48:09Z</time>
      </trkpt>
      <trkpt lat="43.89323" lon="-1.33769">
        <ele>30.42</ele>
        <time>2016-04-29T08:48:11Z</time>
      </trkpt>
      <trkpt lat="43.89323" lon="-1.33762">
        <ele>29.94</ele>
        <time>2016-04-29T08:48:12Z</time>
      </trkpt>
      <trkpt lat="43.89322" lon="-1.33756">
        <ele>29.94</ele>
        <time>2016-04-29T08:48:13Z</time>
      </trkpt>
      <trkpt lat="43.89319" lon="-1.33711">
        <ele>30.42</ele>
        <time>2016-04-29T08:48:20Z</time>
      </trkpt>
      <trkpt lat="43.89318" lon="-1.33704">
        <ele>29.94</ele>
        <time>2016-04-29T08:48:21Z</time>
      </trkpt>
      <trkpt lat="43.89318" lon="-1.33698">
        <ele>29.94</ele>
        <time>2016-04-29T08:48:22Z</time>
      </trkpt>
      <trkpt lat="43.89318" lon="-1.33671">
        <ele>29.94</ele>
        <time>2016-04-29T08:48:26Z</time>
      </trkpt>
      <trkpt lat="43.89319" lon="-1.33665">
        <ele>29.94</ele>
        <time>2016-04-29T08:48:27Z</time>
      </trkpt>
      <trkpt lat="43.89321" lon="-1.33658">
        <ele>29.46</ele>
        <time>2016-04-29T08:48:28Z</time>
      </trkpt>
      <trkpt lat="43.89324" lon="-1.33652">
        <ele>28.5</ele>
        <time>2016-04-29T08:48:29Z</time>
      </trkpt>
      <trkpt lat="43.89327" lon="-1.33646">
        <ele>28.5</ele>
        <time>2016-04-29T08:48:30Z</time>
      </trkpt>
      <trkpt lat="43.89331" lon="-1.33641">
        <ele>28.98</ele>
        <time>2016-04-29T08:48:31Z</time>
      </trkpt>
      <trkpt lat="43.8935" lon="-1.33617">
        <ele>28.02</ele>
        <time>2016-04-29T08:48:36Z</time>
      </trkpt>
      <trkpt lat="43.89359" lon="-1.33609">
        <ele>27.53</ele>
        <time>2016-04-29T08:48:38Z</time>
      </trkpt>
      <trkpt lat="43.89373" lon="-1.33601">
        <ele>28.02</ele>
        <time>2016-04-29T08:48:41Z</time>
      </trkpt>
      <trkpt lat="43.89411" lon="-1.33589">
        <ele>27.53</ele>
        <time>2016-04-29T08:48:48Z</time>
      </trkpt>
      <trkpt lat="43.89426" lon="-1.33584">
        <ele>27.53</ele>
        <time>2016-04-29T08:48:51Z</time>
      </trkpt>
      <trkpt lat="43.89432" lon="-1.33583">
        <ele>27.53</ele>
        <time>2016-04-29T08:48:52Z</time>
      </trkpt>
      <trkpt lat="43.89437" lon="-1.33583">
        <ele>27.53</ele>
        <time>2016-04-29T08:48:53Z</time>
      </trkpt>
      <trkpt lat="43.89474" lon="-1.33583">
        <ele>27.53</ele>
        <time>2016-04-29T08:49:00Z</time>
      </trkpt>
      <trkpt lat="43.89515" lon="-1.33582">
        <ele>27.53</ele>
        <time>2016-04-29T08:49:08Z</time>
      </trkpt>
      <trkpt lat="43.8954" lon="-1.33586">
        <ele>27.05</ele>
        <time>2016-04-29T08:49:13Z</time>
      </trkpt>
      <trkpt lat="43.89545" lon="-1.33587">
        <ele>27.05</ele>
        <time>2016-04-29T08:49:14Z</time>
      </trkpt>
      <trkpt lat="43.8955" lon="-1.33588">
        <ele>27.05</ele>
        <time>2016-04-29T08:49:15Z</time>
      </trkpt>
      <trkpt lat="43.89554" lon="-1.33587">
        <ele>27.53</ele>
        <time>2016-04-29T08:49:16Z</time>
      </trkpt>
      <trkpt lat="43.89559" lon="-1.33584">
        <ele>27.05</ele>
        <time>2016-04-29T08:49:17Z</time>
      </trkpt>
      <trkpt lat="43.89563" lon="-1.33579">
        <ele>27.05</ele>
        <time>2016-04-29T08:49:18Z</time>
      </trkpt>
      <trkpt lat="43.89566" lon="-1.33574">
        <ele>26.57</ele>
        <time>2016-04-29T08:49:19Z</time>
      </trkpt>
      <trkpt lat="43.89569" lon="-1.33568">
        <ele>26.57</ele>
        <time>2016-04-29T08:49:20Z</time>
      </trkpt>
      <trkpt lat="43.89586" lon="-1.33526">
        <ele>26.57</ele>
        <time>2016-04-29T08:49:27Z</time>
      </trkpt>
      <trkpt lat="43.89589" lon="-1.3352">
        <ele>26.57</ele>
        <time>2016-04-29T08:49:28Z</time>
      </trkpt>
      <trkpt lat="43.89596" lon="-1.33504">
        <ele>27.05</ele>
        <time>2016-04-29T08:49:31Z</time>
      </trkpt>
      <trkpt lat="43.89599" lon="-1.33498">
        <ele>27.05</ele>
        <time>2016-04-29T08:49:32Z</time>
      </trkpt>
      <trkpt lat="43.89605" lon="-1.33488">
        <ele>27.05</ele>
        <time>2016-04-29T08:49:34Z</time>
      </trkpt>
      <trkpt lat="43.89628" lon="-1.33454">
        <ele>27.05</ele>
        <time>2016-04-29T08:49:41Z</time>
      </trkpt>
      <trkpt lat="43.89657" lon="-1.3342">
        <ele>26.57</ele>
        <time>2016-04-29T08:49:49Z</time>
      </trkpt>
      <trkpt lat="43.89667" lon="-1.33408">
        <ele>26.57</ele>
        <time>2016-04-29T08:49:52Z</time>
      </trkpt>
      <trkpt lat="43.89671" lon="-1.33405">
        <ele>27.05</ele>
        <time>2016-04-29T08:49:53Z</time>
      </trkpt>
      <trkpt lat="43.89702" lon="-1.33387">
        <ele>27.05</ele>
        <time>2016-04-29T08:50:00Z</time>
      </trkpt>
      <trkpt lat="43.89716" lon="-1.33382">
        <ele>27.05</ele>
        <time>2016-04-29T08:50:03Z</time>
      </trkpt>
      <trkpt lat="43.8973" lon="-1.33376">
        <ele>27.53</ele>
        <time>2016-04-29T08:50:06Z</time>
      </trkpt>
      <trkpt lat="43.89775" lon="-1.33358">
        <ele>28.02</ele>
        <time>2016-04-29T08:50:16Z</time>
      </trkpt>
      <trkpt lat="43.8979" lon="-1.33351">
        <ele>28.02</ele>
        <time>2016-04-29T08:50:20Z</time>
      </trkpt>
      <trkpt lat="43.8983" lon="-1.33332">
        <ele>27.53</ele>
        <time>2016-04-29T08:50:28Z</time>
      </trkpt>
      <trkpt lat="43.89903" lon="-1.33307">
        <ele>26.09</ele>
        <time>2016-04-29T08:51:54Z</time>
      </trkpt>
      <trkpt lat="43.89919" lon="-1.33299">
        <ele>26.57</ele>
        <time>2016-04-29T08:51:58Z</time>
      </trkpt>
      <trkpt lat="43.89954" lon="-1.33286">
        <ele>26.09</ele>
        <time>2016-04-29T08:52:05Z</time>
      </trkpt>
      <trkpt lat="43.89988" lon="-1.33271">
        <ele>26.57</ele>
        <time>2016-04-29T08:52:12Z</time>
      </trkpt>
      <trkpt lat="43.90015" lon="-1.33259">
        <ele>26.09</ele>
        <time>2016-04-29T08:52:18Z</time>
      </trkpt>
      <trkpt lat="43.9005" lon="-1.33237">
        <ele>27.05</ele>
        <time>2016-04-29T08:52:26Z</time>
      </trkpt>
      <trkpt lat="43.90087" lon="-1.33208">
        <ele>26.57</ele>
        <time>2016-04-29T08:52:35Z</time>
      </trkpt>
      <trkpt lat="43.90109" lon="-1.33189">
        <ele>26.57</ele>
        <time>2016-04-29T08:52:41Z</time>
      </trkpt>
      <trkpt lat="43.90134" lon="-1.33168">
        <ele>26.57</ele>
        <time>2016-04-29T08:52:47Z</time>
      </trkpt>
      <trkpt lat="43.90156" lon="-1.33146">
        <ele>26.57</ele>
        <time>2016-04-29T08:52:53Z</time>
      </trkpt>
      <trkpt lat="43.90166" lon="-1.33132">
        <ele>27.05</ele>
        <time>2016-04-29T08:52:56Z</time>
      </trkpt>
      <trkpt lat="43.902" lon="-1.33093">
        <ele>26.57</ele>
        <time>2016-04-29T08:53:04Z</time>
      </trkpt>
      <trkpt lat="43.90204" lon="-1.33088">
        <ele>26.57</ele>
        <time>2016-04-29T08:53:05Z</time>
      </trkpt>
      <trkpt lat="43.90214" lon="-1.33071">
        <ele>26.57</ele>
        <time>2016-04-29T08:53:08Z</time>
      </trkpt>
      <trkpt lat="43.90217" lon="-1.33064">
        <ele>26.57</ele>
        <time>2016-04-29T08:53:09Z</time>
      </trkpt>
      <trkpt lat="43.90223" lon="-1.33051">
        <ele>26.57</ele>
        <time>2016-04-29T08:53:11Z</time>
      </trkpt>
      <trkpt lat="43.90229" lon="-1.3304">
        <ele>26.57</ele>
        <time>2016-04-29T08:53:13Z</time>
      </trkpt>
      <trkpt lat="43.90245" lon="-1.33015">
        <ele>27.05</ele>
        <time>2016-04-29T08:53:18Z</time>
      </trkpt>
      <trkpt lat="43.90252" lon="-1.33007">
        <ele>28.02</ele>
        <time>2016-04-29T08:53:20Z</time>
      </trkpt>
      <trkpt lat="43.90257" lon="-1.33003">
        <ele>27.53</ele>
        <time>2016-04-29T08:53:21Z</time>
      </trkpt>
      <trkpt lat="43.90285" lon="-1.3298">
        <ele>28.02</ele>
        <time>2016-04-29T08:53:28Z</time>
      </trkpt>
      <trkpt lat="43.90303" lon="-1.32976">
        <ele>28.02</ele>
        <time>2016-04-29T08:53:32Z</time>
      </trkpt>
      <trkpt lat="43.90312" lon="-1.32977">
        <ele>28.5</ele>
        <time>2016-04-29T08:53:34Z</time>
      </trkpt>
      <trkpt lat="43.90348" lon="-1.32975">
        <ele>28.5</ele>
        <time>2016-04-29T08:53:42Z</time>
      </trkpt>
      <trkpt lat="43.90385" lon="-1.32969">
        <ele>28.5</ele>
        <time>2016-04-29T08:53:50Z</time>
      </trkpt>
      <trkpt lat="43.90414" lon="-1.32974">
        <ele>28.98</ele>
        <time>2016-04-29T08:53:56Z</time>
      </trkpt>
      <trkpt lat="43.90419" lon="-1.32976">
        <ele>28.98</ele>
        <time>2016-04-29T08:53:57Z</time>
      </trkpt>
      <trkpt lat="43.90431" lon="-1.32985">
        <ele>29.46</ele>
        <time>2016-04-29T08:54:00Z</time>
      </trkpt>
      <trkpt lat="43.90435" lon="-1.32989">
        <ele>28.5</ele>
        <time>2016-04-29T08:54:01Z</time>
      </trkpt>
      <trkpt lat="43.90438" lon="-1.32993">
        <ele>28.5</ele>
        <time>2016-04-29T08:54:02Z</time>
      </trkpt>
      <trkpt lat="43.90441" lon="-1.32997">
        <ele>28.02</ele>
        <time>2016-04-29T08:54:03Z</time>
      </trkpt>
      <trkpt lat="43.90442" lon="-1.33001">
        <ele>28.02</ele>
        <time>2016-04-29T08:54:04Z</time>
      </trkpt>
      <trkpt lat="43.90443" lon="-1.33005">
        <ele>28.02</ele>
        <time>2016-04-29T08:54:08Z</time>
      </trkpt>
      <trkpt lat="43.90443" lon="-1.33006">
        <ele>27.53</ele>
        <time>2016-04-29T08:54:09Z</time>
      </trkpt>
      <trkpt lat="43.90444" lon="-1.33008">
        <ele>27.53</ele>
        <time>2016-04-29T08:54:10Z</time>
      </trkpt>
      <trkpt lat="43.90445" lon="-1.3301">
        <ele>27.05</ele>
        <time>2016-04-29T08:54:11Z</time>
      </trkpt>
      <trkpt lat="43.90447" lon="-1.33012">
        <ele>27.53</ele>
        <time>2016-04-29T08:54:12Z</time>
      </trkpt>
      <trkpt lat="43.90449" lon="-1.33015">
        <ele>27.05</ele>
        <time>2016-04-29T08:54:13Z</time>
      </trkpt>
      <trkpt lat="43.90452" lon="-1.33019">
        <ele>27.53</ele>
        <time>2016-04-29T08:54:14Z</time>
      </trkpt>
      <trkpt lat="43.90468" lon="-1.33039">
        <ele>27.53</ele>
        <time>2016-04-29T08:54:20Z</time>
      </trkpt>
      <trkpt lat="43.90477" lon="-1.33052">
        <ele>27.53</ele>
        <time>2016-04-29T08:54:23Z</time>
      </trkpt>
      <trkpt lat="43.9048" lon="-1.33055">
        <ele>27.53</ele>
        <time>2016-04-29T08:54:24Z</time>
      </trkpt>
      <trkpt lat="43.905" lon="-1.33076">
        <ele>27.53</ele>
        <time>2016-04-29T08:54:29Z</time>
      </trkpt>
      <trkpt lat="43.90504" lon="-1.3308">
        <ele>27.53</ele>
        <time>2016-04-29T08:54:30Z</time>
      </trkpt>
      <trkpt lat="43.90513" lon="-1.33087">
        <ele>27.53</ele>
        <time>2016-04-29T08:54:32Z</time>
      </trkpt>
      <trkpt lat="43.90518" lon="-1.33089">
        <ele>27.53</ele>
        <time>2016-04-29T08:54:33Z</time>
      </trkpt>
      <trkpt lat="43.90527" lon="-1.33095">
        <ele>27.53</ele>
        <time>2016-04-29T08:54:35Z</time>
      </trkpt>
      <trkpt lat="43.90556" lon="-1.33111">
        <ele>27.53</ele>
        <time>2016-04-29T08:54:41Z</time>
      </trkpt>
      <trkpt lat="43.90561" lon="-1.33113">
        <ele>28.5</ele>
        <time>2016-04-29T08:54:42Z</time>
      </trkpt>
      <trkpt lat="43.90572" lon="-1.33116">
        <ele>28.02</ele>
        <time>2016-04-29T08:54:44Z</time>
      </trkpt>
      <trkpt lat="43.90604" lon="-1.33127">
        <ele>28.02</ele>
        <time>2016-04-29T08:54:50Z</time>
      </trkpt>
      <trkpt lat="43.90649" lon="-1.33134">
        <ele>27.53</ele>
        <time>2016-04-29T08:54:58Z</time>
      </trkpt>
      <trkpt lat="43.9069" lon="-1.33135">
        <ele>28.02</ele>
        <time>2016-04-29T08:55:06Z</time>
      </trkpt>
      <trkpt lat="43.90695" lon="-1.33133">
        <ele>28.02</ele>
        <time>2016-04-29T08:55:07Z</time>
      </trkpt>
      <trkpt lat="43.907" lon="-1.3313">
        <ele>28.02</ele>
        <time>2016-04-29T08:55:08Z</time>
      </trkpt>
      <trkpt lat="43.90705" lon="-1.33126">
        <ele>28.02</ele>
        <time>2016-04-29T08:55:09Z</time>
      </trkpt>
      <trkpt lat="43.90709" lon="-1.33121">
        <ele>28.02</ele>
        <time>2016-04-29T08:55:10Z</time>
      </trkpt>
      <trkpt lat="43.90712" lon="-1.33116">
        <ele>28.5</ele>
        <time>2016-04-29T08:55:11Z</time>
      </trkpt>
      <trkpt lat="43.90716" lon="-1.3311">
        <ele>28.02</ele>
        <time>2016-04-29T08:55:12Z</time>
      </trkpt>
      <trkpt lat="43.90719" lon="-1.33106">
        <ele>28.02</ele>
        <time>2016-04-29T08:55:13Z</time>
      </trkpt>
      <trkpt lat="43.90722" lon="-1.33102">
        <ele>28.5</ele>
        <time>2016-04-29T08:55:14Z</time>
      </trkpt>
      <trkpt lat="43.90732" lon="-1.33091">
        <ele>28.5</ele>
        <time>2016-04-29T08:55:17Z</time>
      </trkpt>
      <trkpt lat="43.90735" lon="-1.33085">
        <ele>28.5</ele>
        <time>2016-04-29T08:55:18Z</time>
      </trkpt>
      <trkpt lat="43.90738" lon="-1.33072">
        <ele>28.5</ele>
        <time>2016-04-29T08:55:20Z</time>
      </trkpt>
      <trkpt lat="43.90739" lon="-1.33064">
        <ele>28.98</ele>
        <time>2016-04-29T08:55:21Z</time>
      </trkpt>
      <trkpt lat="43.90742" lon="-1.33028">
        <ele>29.46</ele>
        <time>2016-04-29T08:55:26Z</time>
      </trkpt>
      <trkpt lat="43.90744" lon="-1.33022">
        <ele>29.46</ele>
        <time>2016-04-29T08:55:27Z</time>
      </trkpt>
      <trkpt lat="43.90746" lon="-1.33014">
        <ele>29.46</ele>
        <time>2016-04-29T08:55:28Z</time>
      </trkpt>
      <trkpt lat="43.90748" lon="-1.33007">
        <ele>29.46</ele>
        <time>2016-04-29T08:55:29Z</time>
      </trkpt>
      <trkpt lat="43.9075" lon="-1.33">
        <ele>29.46</ele>
        <time>2016-04-29T08:55:30Z</time>
      </trkpt>
      <trkpt lat="43.90752" lon="-1.32993">
        <ele>28.98</ele>
        <time>2016-04-29T08:55:31Z</time>
      </trkpt>
      <trkpt lat="43.90754" lon="-1.32986">
        <ele>29.46</ele>
        <time>2016-04-29T08:55:32Z</time>
      </trkpt>
      <trkpt lat="43.90756" lon="-1.32979">
        <ele>29.46</ele>
        <time>2016-04-29T08:55:33Z</time>
      </trkpt>
      <trkpt lat="43.90758" lon="-1.32973">
        <ele>29.94</ele>
        <time>2016-04-29T08:55:34Z</time>
      </trkpt>
      <trkpt lat="43.9076" lon="-1.32967">
        <ele>29.94</ele>
        <time>2016-04-29T08:55:35Z</time>
      </trkpt>
      <trkpt lat="43.90763" lon="-1.3296">
        <ele>29.94</ele>
        <time>2016-04-29T08:55:36Z</time>
      </trkpt>
      <trkpt lat="43.90766" lon="-1.32954">
        <ele>29.94</ele>
        <time>2016-04-29T08:55:37Z</time>
      </trkpt>
      <trkpt lat="43.90769" lon="-1.32948">
        <ele>29.94</ele>
        <time>2016-04-29T08:55:38Z</time>
      </trkpt>
      <trkpt lat="43.90772" lon="-1.32941">
        <ele>29.94</ele>
        <time>2016-04-29T08:55:39Z</time>
      </trkpt>
      <trkpt lat="43.90793" lon="-1.32886">
        <ele>28.98</ele>
        <time>2016-04-29T08:55:47Z</time>
      </trkpt>
      <trkpt lat="43.90802" lon="-1.32868">
        <ele>29.46</ele>
        <time>2016-04-29T08:55:50Z</time>
      </trkpt>
      <trkpt lat="43.90806" lon="-1.32863">
        <ele>28.98</ele>
        <time>2016-04-29T08:55:51Z</time>
      </trkpt>
      <trkpt lat="43.90811" lon="-1.32858">
        <ele>29.46</ele>
        <time>2016-04-29T08:55:52Z</time>
      </trkpt>
      <trkpt lat="43.90815" lon="-1.32853">
        <ele>29.46</ele>
        <time>2016-04-29T08:55:53Z</time>
      </trkpt>
      <trkpt lat="43.9083" lon="-1.32827">
        <ele>28.98</ele>
        <time>2016-04-29T08:56:39Z</time>
      </trkpt>
      <trkpt lat="43.90829" lon="-1.32822">
        <ele>29.46</ele>
        <time>2016-04-29T08:56:40Z</time>
      </trkpt>
      <trkpt lat="43.90825" lon="-1.32814">
        <ele>29.94</ele>
        <time>2016-04-29T08:56:42Z</time>
      </trkpt>
      <trkpt lat="43.90822" lon="-1.32786">
        <ele>29.46</ele>
        <time>2016-04-29T08:56:48Z</time>
      </trkpt>
      <trkpt lat="43.90827" lon="-1.32767">
        <ele>28.98</ele>
        <time>2016-04-29T08:56:52Z</time>
      </trkpt>
      <trkpt lat="43.90827" lon="-1.32749">
        <ele>28.98</ele>
        <time>2016-04-29T08:56:56Z</time>
      </trkpt>
      <trkpt lat="43.90817" lon="-1.32719">
        <ele>29.46</ele>
        <time>2016-04-29T08:57:03Z</time>
      </trkpt>
      <trkpt lat="43.90808" lon="-1.32688">
        <ele>30.42</ele>
        <time>2016-04-29T08:57:09Z</time>
      </trkpt>
      <trkpt lat="43.90795" lon="-1.32656">
        <ele>29.94</ele>
        <time>2016-04-29T08:57:16Z</time>
      </trkpt>
      <trkpt lat="43.90788" lon="-1.32623">
        <ele>29.94</ele>
        <time>2016-04-29T08:57:22Z</time>
      </trkpt>
      <trkpt lat="43.90774" lon="-1.32611">
        <ele>28.02</ele>
        <time>2016-04-29T08:57:28Z</time>
      </trkpt>
      <trkpt lat="43.90772" lon="-1.32607">
        <ele>28.02</ele>
        <time>2016-04-29T08:57:29Z</time>
      </trkpt>
      <trkpt lat="43.90771" lon="-1.32603">
        <ele>28.02</ele>
        <time>2016-04-29T08:57:30Z</time>
      </trkpt>
      <trkpt lat="43.90763" lon="-1.3257">
        <ele>28.5</ele>
        <time>2016-04-29T08:57:37Z</time>
      </trkpt>
      <trkpt lat="43.90761" lon="-1.3256">
        <ele>27.53</ele>
        <time>2016-04-29T08:57:39Z</time>
      </trkpt>
      <trkpt lat="43.90757" lon="-1.32517">
        <ele>27.53</ele>
        <time>2016-04-29T08:57:46Z</time>
      </trkpt>
      <trkpt lat="43.90756" lon="-1.32511">
        <ele>28.02</ele>
        <time>2016-04-29T08:57:47Z</time>
      </trkpt>
      <trkpt lat="43.90754" lon="-1.32499">
        <ele>27.53</ele>
        <time>2016-04-29T08:57:49Z</time>
      </trkpt>
      <trkpt lat="43.90748" lon="-1.32479">
        <ele>27.05</ele>
        <time>2016-04-29T08:57:52Z</time>
      </trkpt>
      <trkpt lat="43.9074" lon="-1.32455">
        <ele>27.53</ele>
        <time>2016-04-29T08:57:56Z</time>
      </trkpt>
      <trkpt lat="43.90731" lon="-1.32438">
        <ele>27.05</ele>
        <time>2016-04-29T08:57:59Z</time>
      </trkpt>
      <trkpt lat="43.90704" lon="-1.32409">
        <ele>26.57</ele>
        <time>2016-04-29T08:58:06Z</time>
      </trkpt>
      <trkpt lat="43.90701" lon="-1.32403">
        <ele>26.57</ele>
        <time>2016-04-29T08:58:07Z</time>
      </trkpt>
      <trkpt lat="43.90699" lon="-1.3239">
        <ele>27.05</ele>
        <time>2016-04-29T08:58:09Z</time>
      </trkpt>
      <trkpt lat="43.90699" lon="-1.32376">
        <ele>26.57</ele>
        <time>2016-04-29T08:58:11Z</time>
      </trkpt>
      <trkpt lat="43.907" lon="-1.32369">
        <ele>27.53</ele>
        <time>2016-04-29T08:58:12Z</time>
      </trkpt>
      <trkpt lat="43.90701" lon="-1.32355">
        <ele>27.05</ele>
        <time>2016-04-29T08:58:14Z</time>
      </trkpt>
      <trkpt lat="43.90698" lon="-1.32277">
        <ele>26.57</ele>
        <time>2016-04-29T08:58:25Z</time>
      </trkpt>
      <trkpt lat="43.90697" lon="-1.32255">
        <ele>27.05</ele>
        <time>2016-04-29T08:58:28Z</time>
      </trkpt>
      <trkpt lat="43.90696" lon="-1.32248">
        <ele>26.09</ele>
        <time>2016-04-29T08:58:29Z</time>
      </trkpt>
      <trkpt lat="43.90696" lon="-1.3224">
        <ele>26.09</ele>
        <time>2016-04-29T08:58:30Z</time>
      </trkpt>
      <trkpt lat="43.90695" lon="-1.32233">
        <ele>26.57</ele>
        <time>2016-04-29T08:58:31Z</time>
      </trkpt>
      <trkpt lat="43.90695" lon="-1.32225">
        <ele>26.57</ele>
        <time>2016-04-29T08:58:32Z</time>
      </trkpt>
      <trkpt lat="43.90694" lon="-1.32172">
        <ele>26.57</ele>
        <time>2016-04-29T08:58:39Z</time>
      </trkpt>
      <trkpt lat="43.90695" lon="-1.32165">
        <ele>26.57</ele>
        <time>2016-04-29T08:58:40Z</time>
      </trkpt>
      <trkpt lat="43.90697" lon="-1.32158">
        <ele>26.57</ele>
        <time>2016-04-29T08:58:41Z</time>
      </trkpt>
      <trkpt lat="43.907" lon="-1.32151">
        <ele>26.09</ele>
        <time>2016-04-29T08:58:42Z</time>
      </trkpt>
      <trkpt lat="43.90703" lon="-1.32145">
        <ele>26.57</ele>
        <time>2016-04-29T08:58:43Z</time>
      </trkpt>
      <trkpt lat="43.90725" lon="-1.32103">
        <ele>26.57</ele>
        <time>2016-04-29T08:58:50Z</time>
      </trkpt>
      <trkpt lat="43.90748" lon="-1.32062">
        <ele>26.57</ele>
        <time>2016-04-29T08:58:57Z</time>
      </trkpt>
      <trkpt lat="43.90763" lon="-1.3203">
        <ele>26.57</ele>
        <time>2016-04-29T08:59:02Z</time>
      </trkpt>
      <trkpt lat="43.90766" lon="-1.32023">
        <ele>26.09</ele>
        <time>2016-04-29T08:59:03Z</time>
      </trkpt>
      <trkpt lat="43.90769" lon="-1.32011">
        <ele>25.61</ele>
        <time>2016-04-29T08:59:05Z</time>
      </trkpt>
      <trkpt lat="43.90772" lon="-1.32006">
        <ele>26.57</ele>
        <time>2016-04-29T08:59:06Z</time>
      </trkpt>
      <trkpt lat="43.90777" lon="-1.31996">
        <ele>26.09</ele>
        <time>2016-04-29T08:59:08Z</time>
      </trkpt>
      <trkpt lat="43.9078" lon="-1.31992">
        <ele>26.09</ele>
        <time>2016-04-29T08:59:09Z</time>
      </trkpt>
      <trkpt lat="43.90785" lon="-1.31989">
        <ele>26.09</ele>
        <time>2016-04-29T08:59:10Z</time>
      </trkpt>
      <trkpt lat="43.9079" lon="-1.31988">
        <ele>26.09</ele>
        <time>2016-04-29T08:59:11Z</time>
      </trkpt>
      <trkpt lat="43.90795" lon="-1.31987">
        <ele>26.09</ele>
        <time>2016-04-29T08:59:12Z</time>
      </trkpt>
      <trkpt lat="43.908" lon="-1.31986">
        <ele>26.09</ele>
        <time>2016-04-29T08:59:13Z</time>
      </trkpt>
      <trkpt lat="43.90805" lon="-1.31986">
        <ele>26.09</ele>
        <time>2016-04-29T08:59:14Z</time>
      </trkpt>
      <trkpt lat="43.90928" lon="-1.31965">
        <ele>26.09</ele>
        <time>2016-04-29T09:03:34Z</time>
      </trkpt>
      <trkpt lat="43.90981" lon="-1.31954">
        <ele>26.57</ele>
        <time>2016-04-29T09:03:44Z</time>
      </trkpt>
      <trkpt lat="43.91029" lon="-1.31948">
        <ele>27.05</ele>
        <time>2016-04-29T09:03:53Z</time>
      </trkpt>
      <trkpt lat="43.91085" lon="-1.31938">
        <ele>27.05</ele>
        <time>2016-04-29T09:04:03Z</time>
      </trkpt>
      <trkpt lat="43.91145" lon="-1.31926">
        <ele>27.53</ele>
        <time>2016-04-29T09:04:14Z</time>
      </trkpt>
      <trkpt lat="43.91168" lon="-1.3192">
        <ele>27.05</ele>
        <time>2016-04-29T09:04:19Z</time>
      </trkpt>
      <trkpt lat="43.9117" lon="-1.31921">
        <ele>27.05</ele>
        <time>2016-04-29T09:04:20Z</time>
      </trkpt>
      <trkpt lat="43.91172" lon="-1.31922">
        <ele>26.57</ele>
        <time>2016-04-29T09:04:21Z</time>
      </trkpt>
      <trkpt lat="43.91173" lon="-1.31925">
        <ele>27.05</ele>
        <time>2016-04-29T09:04:23Z</time>
      </trkpt>
      <trkpt lat="43.91181" lon="-1.31942">
        <ele>26.57</ele>
        <time>2016-04-29T09:04:28Z</time>
      </trkpt>
      <trkpt lat="43.91189" lon="-1.31958">
        <ele>27.05</ele>
        <time>2016-04-29T09:04:31Z</time>
      </trkpt>
      <trkpt lat="43.91192" lon="-1.31963">
        <ele>27.53</ele>
        <time>2016-04-29T09:04:32Z</time>
      </trkpt>
      <trkpt lat="43.91195" lon="-1.31969">
        <ele>27.53</ele>
        <time>2016-04-29T09:04:33Z</time>
      </trkpt>
      <trkpt lat="43.91199" lon="-1.31975">
        <ele>27.05</ele>
        <time>2016-04-29T09:04:34Z</time>
      </trkpt>
      <trkpt lat="43.91202" lon="-1.3198">
        <ele>27.53</ele>
        <time>2016-04-29T09:04:35Z</time>
      </trkpt>
      <trkpt lat="43.91205" lon="-1.31986">
        <ele>27.53</ele>
        <time>2016-04-29T09:04:36Z</time>
      </trkpt>
      <trkpt lat="43.91208" lon="-1.31992">
        <ele>27.53</ele>
        <time>2016-04-29T09:04:37Z</time>
      </trkpt>
      <trkpt lat="43.91218" lon="-1.3201">
        <ele>27.05</ele>
        <time>2016-04-29T09:04:40Z</time>
      </trkpt>
      <trkpt lat="43.91221" lon="-1.32017">
        <ele>27.53</ele>
        <time>2016-04-29T09:04:41Z</time>
      </trkpt>
      <trkpt lat="43.91222" lon="-1.32024">
        <ele>27.05</ele>
        <time>2016-04-29T09:04:42Z</time>
      </trkpt>
      <trkpt lat="43.91223" lon="-1.32033">
        <ele>27.53</ele>
        <time>2016-04-29T09:04:43Z</time>
      </trkpt>
      <trkpt lat="43.91224" lon="-1.32041">
        <ele>27.53</ele>
        <time>2016-04-29T09:04:44Z</time>
      </trkpt>
      <trkpt lat="43.9122" lon="-1.32099">
        <ele>27.53</ele>
        <time>2016-04-29T09:04:51Z</time>
      </trkpt>
      <trkpt lat="43.91218" lon="-1.32125">
        <ele>27.53</ele>
        <time>2016-04-29T09:04:54Z</time>
      </trkpt>
      <trkpt lat="43.91218" lon="-1.32133">
        <ele>27.53</ele>
        <time>2016-04-29T09:04:55Z</time>
      </trkpt>
      <trkpt lat="43.9122" lon="-1.32142">
        <ele>27.05</ele>
        <time>2016-04-29T09:04:56Z</time>
      </trkpt>
      <trkpt lat="43.91222" lon="-1.3215">
        <ele>27.53</ele>
        <time>2016-04-29T09:04:57Z</time>
      </trkpt>
      <trkpt lat="43.91223" lon="-1.32158">
        <ele>27.05</ele>
        <time>2016-04-29T09:04:58Z</time>
      </trkpt>
      <trkpt lat="43.91224" lon="-1.32167">
        <ele>27.05</ele>
        <time>2016-04-29T09:04:59Z</time>
      </trkpt>
      <trkpt lat="43.91233" lon="-1.3226">
        <ele>27.53</ele>
        <time>2016-04-29T09:05:10Z</time>
      </trkpt>
      <trkpt lat="43.91235" lon="-1.32268">
        <ele>27.05</ele>
        <time>2016-04-29T09:05:11Z</time>
      </trkpt>
      <trkpt lat="43.91241" lon="-1.32288">
        <ele>27.05</ele>
        <time>2016-04-29T09:05:14Z</time>
      </trkpt>
      <trkpt lat="43.91243" lon="-1.32294">
        <ele>27.53</ele>
        <time>2016-04-29T09:05:15Z</time>
      </trkpt>
      <trkpt lat="43.91244" lon="-1.32301">
        <ele>27.53</ele>
        <time>2016-04-29T09:05:16Z</time>
      </trkpt>
      <trkpt lat="43.91244" lon="-1.32308">
        <ele>27.05</ele>
        <time>2016-04-29T09:05:17Z</time>
      </trkpt>
      <trkpt lat="43.91243" lon="-1.32316">
        <ele>26.57</ele>
        <time>2016-04-29T09:05:18Z</time>
      </trkpt>
      <trkpt lat="43.91243" lon="-1.32323">
        <ele>27.05</ele>
        <time>2016-04-29T09:05:19Z</time>
      </trkpt>
      <trkpt lat="43.91243" lon="-1.32331">
        <ele>27.53</ele>
        <time>2016-04-29T09:05:20Z</time>
      </trkpt>
      <trkpt lat="43.91244" lon="-1.32338">
        <ele>27.53</ele>
        <time>2016-04-29T09:05:21Z</time>
      </trkpt>
      <trkpt lat="43.91247" lon="-1.32354">
        <ele>27.53</ele>
        <time>2016-04-29T09:05:23Z</time>
      </trkpt>
      <trkpt lat="43.91249" lon="-1.32361">
        <ele>27.53</ele>
        <time>2016-04-29T09:05:24Z</time>
      </trkpt>
      <trkpt lat="43.91253" lon="-1.32369">
        <ele>27.53</ele>
        <time>2016-04-29T09:05:25Z</time>
      </trkpt>
      <trkpt lat="43.91265" lon="-1.32398">
        <ele>27.53</ele>
        <time>2016-04-29T09:05:29Z</time>
      </trkpt>
      <trkpt lat="43.91268" lon="-1.32406">
        <ele>27.05</ele>
        <time>2016-04-29T09:05:30Z</time>
      </trkpt>
      <trkpt lat="43.91285" lon="-1.32451">
        <ele>27.53</ele>
        <time>2016-04-29T09:05:36Z</time>
      </trkpt>
      <trkpt lat="43.91288" lon="-1.32458">
        <ele>27.05</ele>
        <time>2016-04-29T09:05:37Z</time>
      </trkpt>
      <trkpt lat="43.91292" lon="-1.32464">
        <ele>27.53</ele>
        <time>2016-04-29T09:05:38Z</time>
      </trkpt>
      <trkpt lat="43.91299" lon="-1.32474">
        <ele>27.53</ele>
        <time>2016-04-29T09:05:40Z</time>
      </trkpt>
      <trkpt lat="43.913" lon="-1.32479">
        <ele>27.53</ele>
        <time>2016-04-29T09:05:41Z</time>
      </trkpt>
      <trkpt lat="43.913" lon="-1.32484">
        <ele>28.02</ele>
        <time>2016-04-29T09:05:42Z</time>
      </trkpt>
      <trkpt lat="43.91299" lon="-1.32489">
        <ele>27.53</ele>
        <time>2016-04-29T09:05:43Z</time>
      </trkpt>
      <trkpt lat="43.91298" lon="-1.32494">
        <ele>27.53</ele>
        <time>2016-04-29T09:05:44Z</time>
      </trkpt>
      <trkpt lat="43.91296" lon="-1.325">
        <ele>27.53</ele>
        <time>2016-04-29T09:05:45Z</time>
      </trkpt>
      <trkpt lat="43.91294" lon="-1.32506">
        <ele>27.53</ele>
        <time>2016-04-29T09:05:46Z</time>
      </trkpt>
      <trkpt lat="43.91289" lon="-1.32512">
        <ele>27.05</ele>
        <time>2016-04-29T09:05:47Z</time>
      </trkpt>
      <trkpt lat="43.91285" lon="-1.32519">
        <ele>27.05</ele>
        <time>2016-04-29T09:05:48Z</time>
      </trkpt>
      <trkpt lat="43.91266" lon="-1.32553">
        <ele>26.57</ele>
        <time>2016-04-29T09:05:53Z</time>
      </trkpt>
      <trkpt lat="43.91265" lon="-1.32563">
        <ele>26.57</ele>
        <time>2016-04-29T09:05:55Z</time>
      </trkpt>
      <trkpt lat="43.91264" lon="-1.32569">
        <ele>26.09</ele>
        <time>2016-04-29T09:05:56Z</time>
      </trkpt>
      <trkpt lat="43.91264" lon="-1.32576">
        <ele>26.09</ele>
        <time>2016-04-29T09:05:57Z</time>
      </trkpt>
      <trkpt lat="43.91261" lon="-1.32583">
        <ele>26.09</ele>
        <time>2016-04-29T09:05:58Z</time>
      </trkpt>
      <trkpt lat="43.91259" lon="-1.3259">
        <ele>26.57</ele>
        <time>2016-04-29T09:05:59Z</time>
      </trkpt>
      <trkpt lat="43.91256" lon="-1.32597">
        <ele>26.57</ele>
        <time>2016-04-29T09:06:00Z</time>
      </trkpt>
      <trkpt lat="43.91234" lon="-1.32649">
        <ele>27.53</ele>
        <time>2016-04-29T09:06:08Z</time>
      </trkpt>
      <trkpt lat="43.91213" lon="-1.32706">
        <ele>28.02</ele>
        <time>2016-04-29T09:06:16Z</time>
      </trkpt>
      <trkpt lat="43.91203" lon="-1.32755">
        <ele>27.53</ele>
        <time>2016-04-29T09:06:22Z</time>
      </trkpt>
      <trkpt lat="43.91203" lon="-1.32764">
        <ele>27.53</ele>
        <time>2016-04-29T09:06:23Z</time>
      </trkpt>
      <trkpt lat="43.91208" lon="-1.32838">
        <ele>27.53</ele>
        <time>2016-04-29T09:06:32Z</time>
      </trkpt>
      <trkpt lat="43.91216" lon="-1.32918">
        <ele>27.05</ele>
        <time>2016-04-29T09:06:41Z</time>
      </trkpt>
      <trkpt lat="43.91221" lon="-1.32988">
        <ele>27.53</ele>
        <time>2016-04-29T09:06:49Z</time>
      </trkpt>
      <trkpt lat="43.91222" lon="-1.33023">
        <ele>28.02</ele>
        <time>2016-04-29T09:06:53Z</time>
      </trkpt>
      <trkpt lat="43.91222" lon="-1.33031">
        <ele>28.5</ele>
        <time>2016-04-29T09:06:54Z</time>
      </trkpt>
      <trkpt lat="43.91222" lon="-1.33039">
        <ele>28.98</ele>
        <time>2016-04-29T09:06:55Z</time>
      </trkpt>
      <trkpt lat="43.91221" lon="-1.33085">
        <ele>30.9</ele>
        <time>2016-04-29T09:07:01Z</time>
      </trkpt>
      <trkpt lat="43.91222" lon="-1.33099">
        <ele>32.34</ele>
        <time>2016-04-29T09:07:03Z</time>
      </trkpt>
      <trkpt lat="43.91223" lon="-1.33105">
        <ele>26.57</ele>
        <time>2016-04-29T09:07:04Z</time>
      </trkpt>
      <trkpt lat="43.91225" lon="-1.33111">
        <ele>32.82</ele>
        <time>2016-04-29T09:07:05Z</time>
      </trkpt>
      <trkpt lat="43.9123" lon="-1.33137">
        <ele>34.26</ele>
        <time>2016-04-29T09:07:10Z</time>
      </trkpt>
      <trkpt lat="43.91235" lon="-1.33169">
        <ele>36.19</ele>
        <time>2016-04-29T09:07:17Z</time>
      </trkpt>
      <trkpt lat="43.91245" lon="-1.33207">
        <ele>38.11</ele>
        <time>2016-04-29T09:07:26Z</time>
      </trkpt>
      <trkpt lat="43.9125" lon="-1.33238">
        <ele>41.47</ele>
        <time>2016-04-29T09:07:34Z</time>
      </trkpt>
      <trkpt lat="43.91251" lon="-1.33242">
        <ele>41.95</ele>
        <time>2016-04-29T09:07:35Z</time>
      </trkpt>
      <trkpt lat="43.91246" lon="-1.33269">
        <ele>42.92</ele>
        <time>2016-04-29T09:07:41Z</time>
      </trkpt>
      <trkpt lat="43.91231" lon="-1.3331">
        <ele>44.84</ele>
        <time>2016-04-29T09:07:51Z</time>
      </trkpt>
      <trkpt lat="43.91226" lon="-1.33347">
        <ele>45.32</ele>
        <time>2016-04-29T09:07:58Z</time>
      </trkpt>
      <trkpt lat="43.91224" lon="-1.33398">
        <ele>46.28</ele>
        <time>2016-04-29T09:08:06Z</time>
      </trkpt>
      <trkpt lat="43.9122" lon="-1.33442">
        <ele>46.76</ele>
        <time>2016-04-29T09:08:13Z</time>
      </trkpt>
      <trkpt lat="43.91221" lon="-1.3345">
        <ele>47.24</ele>
        <time>2016-04-29T09:08:14Z</time>
      </trkpt>
      <trkpt lat="43.91224" lon="-1.33528">
        <ele>46.28</ele>
        <time>2016-04-29T09:08:24Z</time>
      </trkpt>
      <trkpt lat="43.91224" lon="-1.33599">
        <ele>46.76</ele>
        <time>2016-04-29T09:08:33Z</time>
      </trkpt>
      <trkpt lat="43.9122" lon="-1.33656">
        <ele>48.2</ele>
        <time>2016-04-29T09:08:42Z</time>
      </trkpt>
      <trkpt lat="43.91215" lon="-1.33701">
        <ele>49.16</ele>
        <time>2016-04-29T09:08:49Z</time>
      </trkpt>
      <trkpt lat="43.91214" lon="-1.33707">
        <ele>49.16</ele>
        <time>2016-04-29T09:08:50Z</time>
      </trkpt>
      <trkpt lat="43.91196" lon="-1.33761">
        <ele>50.61</ele>
        <time>2016-04-29T09:08:59Z</time>
      </trkpt>
      <trkpt lat="43.91172" lon="-1.33826">
        <ele>51.09</ele>
        <time>2016-04-29T09:09:09Z</time>
      </trkpt>
      <trkpt lat="43.91159" lon="-1.33875">
        <ele>51.09</ele>
        <time>2016-04-29T09:09:15Z</time>
      </trkpt>
      <trkpt lat="43.91158" lon="-1.33883">
        <ele>51.09</ele>
        <time>2016-04-29T09:09:16Z</time>
      </trkpt>
      <trkpt lat="43.91152" lon="-1.33955">
        <ele>51.57</ele>
        <time>2016-04-29T09:09:25Z</time>
      </trkpt>
      <trkpt lat="43.91152" lon="-1.33993">
        <ele>53.01</ele>
        <time>2016-04-29T09:09:30Z</time>
      </trkpt>
      <trkpt lat="43.91153" lon="-1.34">
        <ele>53.49</ele>
        <time>2016-04-29T09:09:31Z</time>
      </trkpt>
      <trkpt lat="43.91157" lon="-1.3402">
        <ele>53.97</ele>
        <time>2016-04-29T09:09:34Z</time>
      </trkpt>
      <trkpt lat="43.91159" lon="-1.34027">
        <ele>54.45</ele>
        <time>2016-04-29T09:09:35Z</time>
      </trkpt>
      <trkpt lat="43.91187" lon="-1.34086">
        <ele>54.45</ele>
        <time>2016-04-29T09:09:44Z</time>
      </trkpt>
      <trkpt lat="43.91197" lon="-1.34111">
        <ele>53.49</ele>
        <time>2016-04-29T09:09:47Z</time>
      </trkpt>
      <trkpt lat="43.91208" lon="-1.34148">
        <ele>53.01</ele>
        <time>2016-04-29T09:09:51Z</time>
      </trkpt>
      <trkpt lat="43.9121" lon="-1.34158">
        <ele>52.53</ele>
        <time>2016-04-29T09:09:52Z</time>
      </trkpt>
      <trkpt lat="43.91228" lon="-1.34245">
        <ele>49.65</ele>
        <time>2016-04-29T09:10:00Z</time>
      </trkpt>
      <trkpt lat="43.91247" lon="-1.34345">
        <ele>47.72</ele>
        <time>2016-04-29T09:10:09Z</time>
      </trkpt>
      <trkpt lat="43.91267" lon="-1.34444">
        <ele>46.76</ele>
        <time>2016-04-29T09:10:19Z</time>
      </trkpt>
      <trkpt lat="43.91274" lon="-1.34502">
        <ele>43.4</ele>
        <time>2016-04-29T09:10:24Z</time>
      </trkpt>
      <trkpt lat="43.91275" lon="-1.34527">
        <ele>42.44</ele>
        <time>2016-04-29T09:10:26Z</time>
      </trkpt>
      <trkpt lat="43.91277" lon="-1.3459">
        <ele>40.51</ele>
        <time>2016-04-29T09:10:31Z</time>
      </trkpt>
      <trkpt lat="43.91273" lon="-1.34688">
        <ele>38.11</ele>
        <time>2016-04-29T09:10:39Z</time>
      </trkpt>
      <trkpt lat="43.91261" lon="-1.34795">
        <ele>37.15</ele>
        <time>2016-04-29T09:10:48Z</time>
      </trkpt>
      <trkpt lat="43.91253" lon="-1.34861">
        <ele>37.63</ele>
        <time>2016-04-29T09:10:55Z</time>
      </trkpt>
      <trkpt lat="43.9124" lon="-1.34925">
        <ele>37.15</ele>
        <time>2016-04-29T09:11:02Z</time>
      </trkpt>
      <trkpt lat="43.91233" lon="-1.34955">
        <ele>36.19</ele>
        <time>2016-04-29T09:11:05Z</time>
      </trkpt>
      <trkpt lat="43.91231" lon="-1.34966">
        <ele>35.23</ele>
        <time>2016-04-29T09:11:06Z</time>
      </trkpt>
      <trkpt lat="43.91231" lon="-1.34977">
        <ele>35.71</ele>
        <time>2016-04-29T09:11:07Z</time>
      </trkpt>
      <trkpt lat="43.9123" lon="-1.34998">
        <ele>34.74</ele>
        <time>2016-04-29T09:11:09Z</time>
      </trkpt>
      <trkpt lat="43.91225" lon="-1.35053">
        <ele>32.34</ele>
        <time>2016-04-29T09:11:14Z</time>
      </trkpt>
      <trkpt lat="43.91219" lon="-1.35145">
        <ele>29.94</ele>
        <time>2016-04-29T09:11:22Z</time>
      </trkpt>
      <trkpt lat="43.91219" lon="-1.35168">
        <ele>28.98</ele>
        <time>2016-04-29T09:11:24Z</time>
      </trkpt>
      <trkpt lat="43.91221" lon="-1.3518">
        <ele>28.5</ele>
        <time>2016-04-29T09:11:25Z</time>
      </trkpt>
      <trkpt lat="43.91225" lon="-1.35191">
        <ele>27.53</ele>
        <time>2016-04-29T09:11:26Z</time>
      </trkpt>
      <trkpt lat="43.9123" lon="-1.35202">
        <ele>27.05</ele>
        <time>2016-04-29T09:11:27Z</time>
      </trkpt>
      <trkpt lat="43.91237" lon="-1.35213">
        <ele>26.09</ele>
        <time>2016-04-29T09:11:28Z</time>
      </trkpt>
      <trkpt lat="43.91244" lon="-1.35221">
        <ele>25.61</ele>
        <time>2016-04-29T09:11:29Z</time>
      </trkpt>
      <trkpt lat="43.9125" lon="-1.35228">
        <ele>24.65</ele>
        <time>2016-04-29T09:11:30Z</time>
      </trkpt>
      <trkpt lat="43.91256" lon="-1.35232">
        <ele>23.21</ele>
        <time>2016-04-29T09:11:31Z</time>
      </trkpt>
      <trkpt lat="43.91265" lon="-1.35244">
        <ele>21.29</ele>
        <time>2016-04-29T09:11:44Z</time>
      </trkpt>
      <trkpt lat="43.91264" lon="-1.35247">
        <ele>20.81</ele>
        <time>2016-04-29T09:11:45Z</time>
      </trkpt>
      <trkpt lat="43.91252" lon="-1.35263">
        <ele>20.81</ele>
        <time>2016-04-29T09:11:50Z</time>
      </trkpt>
      <trkpt lat="43.91235" lon="-1.35291">
        <ele>22.73</ele>
        <time>2016-04-29T09:11:56Z</time>
      </trkpt>
      <trkpt lat="43.91233" lon="-1.35297">
        <ele>23.21</ele>
        <time>2016-04-29T09:11:57Z</time>
      </trkpt>
      <trkpt lat="43.91231" lon="-1.35303">
        <ele>23.69</ele>
        <time>2016-04-29T09:11:58Z</time>
      </trkpt>
      <trkpt lat="43.91231" lon="-1.3531">
        <ele>23.69</ele>
        <time>2016-04-29T09:11:59Z</time>
      </trkpt>
      <trkpt lat="43.91232" lon="-1.35318">
        <ele>24.17</ele>
        <time>2016-04-29T09:12:00Z</time>
      </trkpt>
      <trkpt lat="43.91234" lon="-1.35325">
        <ele>23.21</ele>
        <time>2016-04-29T09:12:01Z</time>
      </trkpt>
      <trkpt lat="43.91235" lon="-1.35332">
        <ele>25.13</ele>
        <time>2016-04-29T09:12:02Z</time>
      </trkpt>
      <trkpt lat="43.91236" lon="-1.35339">
        <ele>24.65</ele>
        <time>2016-04-29T09:12:03Z</time>
      </trkpt>
      <trkpt lat="43.9124" lon="-1.35386">
        <ele>25.13</ele>
        <time>2016-04-29T09:12:10Z</time>
      </trkpt>
      <trkpt lat="43.9124" lon="-1.35393">
        <ele>25.13</ele>
        <time>2016-04-29T09:12:11Z</time>
      </trkpt>
      <trkpt lat="43.91232" lon="-1.35442">
        <ele>25.13</ele>
        <time>2016-04-29T09:12:17Z</time>
      </trkpt>
      <trkpt lat="43.9123" lon="-1.3545">
        <ele>25.13</ele>
        <time>2016-04-29T09:12:18Z</time>
      </trkpt>
      <trkpt lat="43.91214" lon="-1.35519">
        <ele>25.13</ele>
        <time>2016-04-29T09:12:27Z</time>
      </trkpt>
      <trkpt lat="43.91195" lon="-1.35578">
        <ele>23.21</ele>
        <time>2016-04-29T09:12:34Z</time>
      </trkpt>
      <trkpt lat="43.91178" lon="-1.35622">
        <ele>21.29</ele>
        <time>2016-04-29T09:12:39Z</time>
      </trkpt>
      <trkpt lat="43.91175" lon="-1.35628">
        <ele>21.29</ele>
        <time>2016-04-29T09:12:40Z</time>
      </trkpt>
      <trkpt lat="43.91172" lon="-1.35632">
        <ele>21.29</ele>
        <time>2016-04-29T09:12:41Z</time>
      </trkpt>
      <trkpt lat="43.9117" lon="-1.35636">
        <ele>21.77</ele>
        <time>2016-04-29T09:12:42Z</time>
      </trkpt>
      <trkpt lat="43.91167" lon="-1.3564">
        <ele>21.29</ele>
        <time>2016-04-29T09:12:43Z</time>
      </trkpt>
      <trkpt lat="43.9116" lon="-1.3565">
        <ele>21.77</ele>
        <time>2016-04-29T09:12:48Z</time>
      </trkpt>
      <trkpt lat="43.91162" lon="-1.35668">
        <ele>23.21</ele>
        <time>2016-04-29T09:15:37Z</time>
      </trkpt>
      <trkpt lat="43.91165" lon="-1.35678">
        <ele>23.21</ele>
        <time>2016-04-29T09:15:44Z</time>
      </trkpt>
      <trkpt lat="43.91166" lon="-1.35685">
        <ele>24.17</ele>
        <time>2016-04-29T09:15:47Z</time>
      </trkpt>
      <trkpt lat="43.9117" lon="-1.35705">
        <ele>25.13</ele>
        <time>2016-04-29T09:15:57Z</time>
      </trkpt>
      <trkpt lat="43.91173" lon="-1.35721">
        <ele>27.05</ele>
        <time>2016-04-29T09:16:07Z</time>
      </trkpt>
      <trkpt lat="43.91178" lon="-1.3574">
        <ele>28.02</ele>
        <time>2016-04-29T09:16:17Z</time>
      </trkpt>
      <trkpt lat="43.9118" lon="-1.35753">
        <ele>28.5</ele>
        <time>2016-04-29T09:16:26Z</time>
      </trkpt>
      <trkpt lat="43.91184" lon="-1.3577">
        <ele>28.98</ele>
        <time>2016-04-29T09:16:34Z</time>
      </trkpt>
      <trkpt lat="43.91189" lon="-1.35798">
        <ele>28.02</ele>
        <time>2016-04-29T09:16:41Z</time>
      </trkpt>
      <trkpt lat="43.91192" lon="-1.3584">
        <ele>27.53</ele>
        <time>2016-04-29T09:16:49Z</time>
      </trkpt>
      <trkpt lat="43.91185" lon="-1.35885">
        <ele>26.57</ele>
        <time>2016-04-29T09:16:57Z</time>
      </trkpt>
      <trkpt lat="43.91183" lon="-1.35926">
        <ele>24.17</ele>
        <time>2016-04-29T09:17:04Z</time>
      </trkpt>
      <trkpt lat="43.9118" lon="-1.35971">
        <ele>22.73</ele>
        <time>2016-04-29T09:17:12Z</time>
      </trkpt>
      <trkpt lat="43.9118" lon="-1.35977">
        <ele>21.77</ele>
        <time>2016-04-29T09:17:13Z</time>
      </trkpt>
      <trkpt lat="43.9118" lon="-1.35984">
        <ele>23.21</ele>
        <time>2016-04-29T09:17:14Z</time>
      </trkpt>
      <trkpt lat="43.91179" lon="-1.36035">
        <ele>21.77</ele>
        <time>2016-04-29T09:17:23Z</time>
      </trkpt>
      <trkpt lat="43.91171" lon="-1.36062">
        <ele>20.81</ele>
        <time>2016-04-29T09:17:28Z</time>
      </trkpt>
      <trkpt lat="43.9117" lon="-1.36069">
        <ele>20.32</ele>
        <time>2016-04-29T09:17:29Z</time>
      </trkpt>
      <trkpt lat="43.9117" lon="-1.36075">
        <ele>20.32</ele>
        <time>2016-04-29T09:17:30Z</time>
      </trkpt>
      <trkpt lat="43.91169" lon="-1.36095">
        <ele>18.88</ele>
        <time>2016-04-29T09:17:33Z</time>
      </trkpt>
      <trkpt lat="43.9117" lon="-1.36102">
        <ele>19.36</ele>
        <time>2016-04-29T09:17:34Z</time>
      </trkpt>
      <trkpt lat="43.91172" lon="-1.36109">
        <ele>19.36</ele>
        <time>2016-04-29T09:17:35Z</time>
      </trkpt>
      <trkpt lat="43.91174" lon="-1.36115">
        <ele>18.4</ele>
        <time>2016-04-29T09:17:36Z</time>
      </trkpt>
      <trkpt lat="43.91175" lon="-1.36121">
        <ele>18.88</ele>
        <time>2016-04-29T09:17:37Z</time>
      </trkpt>
      <trkpt lat="43.91178" lon="-1.36143">
        <ele>18.4</ele>
        <time>2016-04-29T09:17:41Z</time>
      </trkpt>
      <trkpt lat="43.9118" lon="-1.36148">
        <ele>18.4</ele>
        <time>2016-04-29T09:17:42Z</time>
      </trkpt>
      <trkpt lat="43.91182" lon="-1.36154">
        <ele>17.92</ele>
        <time>2016-04-29T09:17:43Z</time>
      </trkpt>
      <trkpt lat="43.91185" lon="-1.36158">
        <ele>17.44</ele>
        <time>2016-04-29T09:17:44Z</time>
      </trkpt>
      <trkpt lat="43.91188" lon="-1.36163">
        <ele>17.44</ele>
        <time>2016-04-29T09:17:45Z</time>
      </trkpt>
      <trkpt lat="43.91197" lon="-1.36178">
        <ele>16.48</ele>
        <time>2016-04-29T09:17:48Z</time>
      </trkpt>
      <trkpt lat="43.912" lon="-1.36184">
        <ele>16.48</ele>
        <time>2016-04-29T09:17:49Z</time>
      </trkpt>
      <trkpt lat="43.91223" lon="-1.36233">
        <ele>16.48</ele>
        <time>2016-04-29T09:17:57Z</time>
      </trkpt>
      <trkpt lat="43.91226" lon="-1.36237">
        <ele>16.48</ele>
        <time>2016-04-29T09:17:58Z</time>
      </trkpt>
      <trkpt lat="43.91242" lon="-1.3626">
        <ele>16</ele>
        <time>2016-04-29T09:18:04Z</time>
      </trkpt>
      <trkpt lat="43.9125" lon="-1.36275">
        <ele>16</ele>
        <time>2016-04-29T09:18:07Z</time>
      </trkpt>
      <trkpt lat="43.9126" lon="-1.36296">
        <ele>16</ele>
        <time>2016-04-29T09:18:11Z</time>
      </trkpt>
      <trkpt lat="43.91276" lon="-1.36326">
        <ele>16</ele>
        <time>2016-04-29T09:18:17Z</time>
      </trkpt>
      <trkpt lat="43.91288" lon="-1.36354">
        <ele>16.48</ele>
        <time>2016-04-29T09:18:23Z</time>
      </trkpt>
      <trkpt lat="43.91293" lon="-1.36365">
        <ele>16</ele>
        <time>2016-04-29T09:18:25Z</time>
      </trkpt>
      <trkpt lat="43.91298" lon="-1.36387">
        <ele>16.96</ele>
        <time>2016-04-29T09:18:29Z</time>
      </trkpt>
      <trkpt lat="43.91299" lon="-1.36393">
        <ele>16.96</ele>
        <time>2016-04-29T09:18:30Z</time>
      </trkpt>
      <trkpt lat="43.91301" lon="-1.36405">
        <ele>16.96</ele>
        <time>2016-04-29T09:18:32Z</time>
      </trkpt>
      <trkpt lat="43.91305" lon="-1.36485">
        <ele>16.48</ele>
        <time>2016-04-29T09:19:39Z</time>
      </trkpt>
      <trkpt lat="43.91282" lon="-1.36541">
        <ele>16</ele>
        <time>2016-04-29T09:20:15Z</time>
      </trkpt>
      <trkpt lat="43.9128" lon="-1.36585">
        <ele>16</ele>
        <time>2016-04-29T09:20:24Z</time>
      </trkpt>
      <trkpt lat="43.91279" lon="-1.36618">
        <ele>16.48</ele>
        <time>2016-04-29T09:20:31Z</time>
      </trkpt>
      <trkpt lat="43.91279" lon="-1.36643">
        <ele>16.48</ele>
        <time>2016-04-29T09:20:37Z</time>
      </trkpt>
      <trkpt lat="43.91281" lon="-1.36671">
        <ele>17.44</ele>
        <time>2016-04-29T09:20:44Z</time>
      </trkpt>
      <trkpt lat="43.91281" lon="-1.36707">
        <ele>16.96</ele>
        <time>2016-04-29T09:20:52Z</time>
      </trkpt>
      <trkpt lat="43.91282" lon="-1.36728">
        <ele>17.44</ele>
        <time>2016-04-29T09:20:57Z</time>
      </trkpt>
      <trkpt lat="43.91279" lon="-1.36771">
        <ele>16.96</ele>
        <time>2016-04-29T09:21:06Z</time>
      </trkpt>
      <trkpt lat="43.91274" lon="-1.36799">
        <ele>17.44</ele>
        <time>2016-04-29T09:21:13Z</time>
      </trkpt>
      <trkpt lat="43.91271" lon="-1.36819">
        <ele>17.92</ele>
        <time>2016-04-29T09:21:20Z</time>
      </trkpt>
      <trkpt lat="43.91272" lon="-1.3682">
        <ele>17.92</ele>
        <time>2016-04-29T09:21:25Z</time>
      </trkpt>
      <trkpt lat="43.9128" lon="-1.36834">
        <ele>19.36</ele>
        <time>2016-04-29T09:21:34Z</time>
      </trkpt>
      <trkpt lat="43.91286" lon="-1.36845">
        <ele>20.32</ele>
        <time>2016-04-29T09:21:42Z</time>
      </trkpt>
      <trkpt lat="43.91295" lon="-1.36854">
        <ele>21.29</ele>
        <time>2016-04-29T09:21:50Z</time>
      </trkpt>
      <trkpt lat="43.91305" lon="-1.36864">
        <ele>21.77</ele>
        <time>2016-04-29T09:21:59Z</time>
      </trkpt>
      <trkpt lat="43.91314" lon="-1.36873">
        <ele>20.81</ele>
        <time>2016-04-29T09:22:07Z</time>
      </trkpt>
      <trkpt lat="43.91315" lon="-1.36874">
        <ele>20.81</ele>
        <time>2016-04-29T09:22:08Z</time>
      </trkpt>
      <trkpt lat="43.91324" lon="-1.36882">
        <ele>20.81</ele>
        <time>2016-04-29T09:22:15Z</time>
      </trkpt>
      <trkpt lat="43.91332" lon="-1.36893">
        <ele>20.81</ele>
        <time>2016-04-29T09:22:23Z</time>
      </trkpt>
      <trkpt lat="43.91341" lon="-1.36905">
        <ele>19.84</ele>
        <time>2016-04-29T09:22:32Z</time>
      </trkpt>
      <trkpt lat="43.91347" lon="-1.36912">
        <ele>19.84</ele>
        <time>2016-04-29T09:22:39Z</time>
      </trkpt>
      <trkpt lat="43.91358" lon="-1.36925">
        <ele>17.92</ele>
        <time>2016-04-29T09:22:49Z</time>
      </trkpt>
      <trkpt lat="43.91365" lon="-1.36934">
        <ele>17.92</ele>
        <time>2016-04-29T09:22:56Z</time>
      </trkpt>
      <trkpt lat="43.91373" lon="-1.36947">
        <ele>17.44</ele>
        <time>2016-04-29T09:23:05Z</time>
      </trkpt>
      <trkpt lat="43.91381" lon="-1.36958">
        <ele>16.96</ele>
        <time>2016-04-29T09:23:14Z</time>
      </trkpt>
      <trkpt lat="43.91388" lon="-1.36965">
        <ele>16.48</ele>
        <time>2016-04-29T09:23:22Z</time>
      </trkpt>
      <trkpt lat="43.91395" lon="-1.36972">
        <ele>16</ele>
        <time>2016-04-29T09:23:29Z</time>
      </trkpt>
      <trkpt lat="43.91397" lon="-1.36972">
        <ele>15.52</ele>
        <time>2016-04-29T09:23:31Z</time>
      </trkpt>
      <trkpt lat="43.91398" lon="-1.36972">
        <ele>15.52</ele>
        <time>2016-04-29T09:23:32Z</time>
      </trkpt>
      <trkpt lat="43.91413" lon="-1.36988">
        <ele>13.6</ele>
        <time>2016-04-29T09:25:11Z</time>
      </trkpt>
      <trkpt lat="43.91421" lon="-1.37006">
        <ele>13.6</ele>
        <time>2016-04-29T09:25:17Z</time>
      </trkpt>
      <trkpt lat="43.9143" lon="-1.37021">
        <ele>13.6</ele>
        <time>2016-04-29T09:25:21Z</time>
      </trkpt>
      <trkpt lat="43.91431" lon="-1.37025">
        <ele>13.6</ele>
        <time>2016-04-29T09:25:27Z</time>
      </trkpt>
      <trkpt lat="43.91431" lon="-1.37031">
        <ele>13.6</ele>
        <time>2016-04-29T09:25:33Z</time>
      </trkpt>
      <trkpt lat="43.9143" lon="-1.37034">
        <ele>14.56</ele>
        <time>2016-04-29T09:25:38Z</time>
      </trkpt>
      <trkpt lat="43.91421" lon="-1.37035">
        <ele>16.48</ele>
        <time>2016-04-29T09:25:48Z</time>
      </trkpt>
      <trkpt lat="43.91409" lon="-1.37038">
        <ele>18.4</ele>
        <time>2016-04-29T09:25:59Z</time>
      </trkpt>
      <trkpt lat="43.91394" lon="-1.37041">
        <ele>18.88</ele>
        <time>2016-04-29T09:26:10Z</time>
      </trkpt>
      <trkpt lat="43.9138" lon="-1.37043">
        <ele>19.36</ele>
        <time>2016-04-29T09:26:20Z</time>
      </trkpt>
      <trkpt lat="43.91369" lon="-1.37044">
        <ele>19.36</ele>
        <time>2016-04-29T09:26:30Z</time>
      </trkpt>
      <trkpt lat="43.91367" lon="-1.37044">
        <ele>18.88</ele>
        <time>2016-04-29T09:26:39Z</time>
      </trkpt>
      <trkpt lat="43.91365" lon="-1.37045">
        <ele>18.88</ele>
        <time>2016-04-29T09:26:41Z</time>
      </trkpt>
      <trkpt lat="43.91354" lon="-1.37048">
        <ele>17.44</ele>
        <time>2016-04-29T09:26:48Z</time>
      </trkpt>
      <trkpt lat="43.91321" lon="-1.37057">
        <ele>17.44</ele>
        <time>2016-04-29T09:26:58Z</time>
      </trkpt>
      <trkpt lat="43.91297" lon="-1.37066">
        <ele>18.88</ele>
        <time>2016-04-29T09:27:07Z</time>
      </trkpt>
      <trkpt lat="43.91271" lon="-1.37073">
        <ele>20.32</ele>
        <time>2016-04-29T09:27:16Z</time>
      </trkpt>
      <trkpt lat="43.91245" lon="-1.3708">
        <ele>21.29</ele>
        <time>2016-04-29T09:27:25Z</time>
      </trkpt>
      <trkpt lat="43.91218" lon="-1.37088">
        <ele>22.73</ele>
        <time>2016-04-29T09:27:35Z</time>
      </trkpt>
      <trkpt lat="43.91196" lon="-1.37094">
        <ele>21.29</ele>
        <time>2016-04-29T09:27:41Z</time>
      </trkpt>
      <trkpt lat="43.91192" lon="-1.37096">
        <ele>20.32</ele>
        <time>2016-04-29T09:27:42Z</time>
      </trkpt>
      <trkpt lat="43.91187" lon="-1.37098">
        <ele>20.81</ele>
        <time>2016-04-29T09:27:43Z</time>
      </trkpt>
      <trkpt lat="43.91165" lon="-1.37106">
        <ele>20.32</ele>
        <time>2016-04-29T09:27:50Z</time>
      </trkpt>
      <trkpt lat="43.91149" lon="-1.3711">
        <ele>18.88</ele>
        <time>2016-04-29T09:27:56Z</time>
      </trkpt>
      <trkpt lat="43.9114" lon="-1.37114">
        <ele>19.36</ele>
        <time>2016-04-29T09:28:02Z</time>
      </trkpt>
      <trkpt lat="43.91133" lon="-1.37118">
        <ele>19.84</ele>
        <time>2016-04-29T09:28:09Z</time>
      </trkpt>
      <trkpt lat="43.9112" lon="-1.37122">
        <ele>20.32</ele>
        <time>2016-04-29T09:28:19Z</time>
      </trkpt>
      <trkpt lat="43.91111" lon="-1.37123">
        <ele>20.81</ele>
        <time>2016-04-29T09:28:27Z</time>
      </trkpt>
      <trkpt lat="43.91101" lon="-1.37128">
        <ele>20.32</ele>
        <time>2016-04-29T09:28:32Z</time>
      </trkpt>
      <trkpt lat="43.91081" lon="-1.37134">
        <ele>19.84</ele>
        <time>2016-04-29T09:28:40Z</time>
      </trkpt>
      <trkpt lat="43.91076" lon="-1.37136">
        <ele>20.32</ele>
        <time>2016-04-29T09:28:45Z</time>
      </trkpt>
      <trkpt lat="43.91075" lon="-1.37137">
        <ele>19.36</ele>
        <time>2016-04-29T09:28:46Z</time>
      </trkpt>
      <trkpt lat="43.91073" lon="-1.37141">
        <ele>19.84</ele>
        <time>2016-04-29T09:28:50Z</time>
      </trkpt>
      <trkpt lat="43.91074" lon="-1.37142">
        <ele>19.84</ele>
        <time>2016-04-29T09:28:51Z</time>
      </trkpt>
      <trkpt lat="43.91076" lon="-1.37144">
        <ele>20.32</ele>
        <time>2016-04-29T09:28:52Z</time>
      </trkpt>
      <trkpt lat="43.91077" lon="-1.37145">
        <ele>20.32</ele>
        <time>2016-04-29T09:28:53Z</time>
      </trkpt>
      <trkpt lat="43.91077" lon="-1.37147">
        <ele>20.32</ele>
        <time>2016-04-29T09:28:54Z</time>
      </trkpt>
      <trkpt lat="43.91077" lon="-1.37148">
        <ele>20.32</ele>
        <time>2016-04-29T09:28:55Z</time>
      </trkpt>
      <trkpt lat="43.91076" lon="-1.37153">
        <ele>19.84</ele>
        <time>2016-04-29T09:29:00Z</time>
      </trkpt>
      <trkpt lat="43.91082" lon="-1.37174">
        <ele>18.88</ele>
        <time>2016-04-29T09:29:06Z</time>
      </trkpt>
      <trkpt lat="43.91084" lon="-1.37207">
        <ele>18.88</ele>
        <time>2016-04-29T09:29:13Z</time>
      </trkpt>
      <trkpt lat="43.91085" lon="-1.37258">
        <ele>16.96</ele>
        <time>2016-04-29T09:29:21Z</time>
      </trkpt>
      <trkpt lat="43.91088" lon="-1.37288">
        <ele>17.92</ele>
        <time>2016-04-29T09:29:28Z</time>
      </trkpt>
      <trkpt lat="43.91093" lon="-1.37322">
        <ele>21.29</ele>
        <time>2016-04-29T09:29:37Z</time>
      </trkpt>
      <trkpt lat="43.91098" lon="-1.37346">
        <ele>24.65</ele>
        <time>2016-04-29T09:29:44Z</time>
      </trkpt>
      <trkpt lat="43.911" lon="-1.37359">
        <ele>25.61</ele>
        <time>2016-04-29T09:29:48Z</time>
      </trkpt>
      <trkpt lat="43.91107" lon="-1.37398">
        <ele>28.02</ele>
        <time>2016-04-29T09:30:00Z</time>
      </trkpt>
      <trkpt lat="43.91117" lon="-1.3744">
        <ele>28.02</ele>
        <time>2016-04-29T09:30:12Z</time>
      </trkpt>
      <trkpt lat="43.91121" lon="-1.37466">
        <ele>24.65</ele>
        <time>2016-04-29T09:30:17Z</time>
      </trkpt>
      <trkpt lat="43.91125" lon="-1.3748">
        <ele>22.73</ele>
        <time>2016-04-29T09:30:20Z</time>
      </trkpt>
      <trkpt lat="43.91127" lon="-1.37483">
        <ele>22.25</ele>
        <time>2016-04-29T09:30:24Z</time>
      </trkpt>
      <trkpt lat="43.91126" lon="-1.37484">
        <ele>21.77</ele>
        <time>2016-04-29T09:30:31Z</time>
      </trkpt>
      <trkpt lat="43.91125" lon="-1.37483">
        <ele>20.81</ele>
        <time>2016-04-29T09:30:55Z</time>
      </trkpt>
      <trkpt lat="43.91125" lon="-1.37483">
        <ele>20.32</ele>
        <time>2016-04-29T09:31:18Z</time>
      </trkpt>
      <trkpt lat="43.91125" lon="-1.37484">
        <ele>21.29</ele>
        <time>2016-04-29T09:31:45Z</time>
      </trkpt>
      <trkpt lat="43.91126" lon="-1.37485">
        <ele>21.29</ele>
        <time>2016-04-29T09:32:07Z</time>
      </trkpt>
      <trkpt lat="43.91126" lon="-1.37483">
        <ele>21.29</ele>
        <time>2016-04-29T09:32:19Z</time>
      </trkpt>
      <trkpt lat="43.91125" lon="-1.37483">
        <ele>21.29</ele>
        <time>2016-04-29T09:32:21Z</time>
      </trkpt>
      <trkpt lat="43.91124" lon="-1.37482">
        <ele>21.29</ele>
        <time>2016-04-29T09:32:22Z</time>
      </trkpt>
      <trkpt lat="43.91123" lon="-1.37478">
        <ele>21.77</ele>
        <time>2016-04-29T09:32:26Z</time>
      </trkpt>
      <trkpt lat="43.91123" lon="-1.37477">
        <ele>21.29</ele>
        <time>2016-04-29T09:32:27Z</time>
      </trkpt>
      <trkpt lat="43.91118" lon="-1.37455">
        <ele>24.17</ele>
        <time>2016-04-29T09:32:36Z</time>
      </trkpt>
      <trkpt lat="43.91117" lon="-1.37446">
        <ele>25.61</ele>
        <time>2016-04-29T09:32:40Z</time>
      </trkpt>
      <trkpt lat="43.91111" lon="-1.37415">
        <ele>27.05</ele>
        <time>2016-04-29T09:32:51Z</time>
      </trkpt>
      <trkpt lat="43.91104" lon="-1.3738">
        <ele>26.09</ele>
        <time>2016-04-29T09:32:59Z</time>
      </trkpt>
      <trkpt lat="43.91096" lon="-1.37334">
        <ele>24.17</ele>
        <time>2016-04-29T09:33:05Z</time>
      </trkpt>
      <trkpt lat="43.9109" lon="-1.37296">
        <ele>19.84</ele>
        <time>2016-04-29T09:33:08Z</time>
      </trkpt>
      <trkpt lat="43.91087" lon="-1.37267">
        <ele>18.4</ele>
        <time>2016-04-29T09:33:10Z</time>
      </trkpt>
      <trkpt lat="43.91084" lon="-1.37239">
        <ele>16.96</ele>
        <time>2016-04-29T09:33:12Z</time>
      </trkpt>
      <trkpt lat="43.91083" lon="-1.37184">
        <ele>17.92</ele>
        <time>2016-04-29T09:33:17Z</time>
      </trkpt>
      <trkpt lat="43.91082" lon="-1.37176">
        <ele>18.4</ele>
        <time>2016-04-29T09:33:18Z</time>
      </trkpt>
      <trkpt lat="43.91081" lon="-1.37169">
        <ele>18.4</ele>
        <time>2016-04-29T09:33:19Z</time>
      </trkpt>
      <trkpt lat="43.91075" lon="-1.37142">
        <ele>18.88</ele>
        <time>2016-04-29T09:33:24Z</time>
      </trkpt>
      <trkpt lat="43.91073" lon="-1.3714">
        <ele>19.36</ele>
        <time>2016-04-29T09:33:25Z</time>
      </trkpt>
      <trkpt lat="43.9107" lon="-1.3714">
        <ele>18.4</ele>
        <time>2016-04-29T09:33:26Z</time>
      </trkpt>
      <trkpt lat="43.91067" lon="-1.3714">
        <ele>18.88</ele>
        <time>2016-04-29T09:33:27Z</time>
      </trkpt>
      <trkpt lat="43.91065" lon="-1.37141">
        <ele>19.36</ele>
        <time>2016-04-29T09:33:28Z</time>
      </trkpt>
      <trkpt lat="43.91062" lon="-1.37141">
        <ele>19.36</ele>
        <time>2016-04-29T09:33:29Z</time>
      </trkpt>
      <trkpt lat="43.9106" lon="-1.37142">
        <ele>18.88</ele>
        <time>2016-04-29T09:33:30Z</time>
      </trkpt>
      <trkpt lat="43.91057" lon="-1.37144">
        <ele>19.36</ele>
        <time>2016-04-29T09:33:31Z</time>
      </trkpt>
      <trkpt lat="43.91054" lon="-1.37145">
        <ele>18.4</ele>
        <time>2016-04-29T09:33:32Z</time>
      </trkpt>
      <trkpt lat="43.91051" lon="-1.37146">
        <ele>18.4</ele>
        <time>2016-04-29T09:33:33Z</time>
      </trkpt>
      <trkpt lat="43.91028" lon="-1.37152">
        <ele>17.44</ele>
        <time>2016-04-29T09:33:41Z</time>
      </trkpt>
      <trkpt lat="43.91025" lon="-1.37153">
        <ele>17.44</ele>
        <time>2016-04-29T09:33:46Z</time>
      </trkpt>
      <trkpt lat="43.9102" lon="-1.37156">
        <ele>16.96</ele>
        <time>2016-04-29T09:33:52Z</time>
      </trkpt>
      <trkpt lat="43.91008" lon="-1.3716">
        <ele>16.48</ele>
        <time>2016-04-29T09:34:00Z</time>
      </trkpt>
      <trkpt lat="43.90992" lon="-1.37164">
        <ele>15.52</ele>
        <time>2016-04-29T09:34:11Z</time>
      </trkpt>
      <trkpt lat="43.90989" lon="-1.37164">
        <ele>14.08</ele>
        <time>2016-04-29T09:34:18Z</time>
      </trkpt>
      <trkpt lat="43.90984" lon="-1.37167">
        <ele>13.6</ele>
        <time>2016-04-29T09:34:24Z</time>
      </trkpt>
      <trkpt lat="43.90974" lon="-1.3717">
        <ele>12.63</ele>
        <time>2016-04-29T09:34:33Z</time>
      </trkpt>
      <trkpt lat="43.9096" lon="-1.37175">
        <ele>11.67</ele>
        <time>2016-04-29T09:34:38Z</time>
      </trkpt>
      <trkpt lat="43.90956" lon="-1.37177">
        <ele>11.19</ele>
        <time>2016-04-29T09:34:39Z</time>
      </trkpt>
      <trkpt lat="43.90952" lon="-1.37178">
        <ele>11.19</ele>
        <time>2016-04-29T09:34:40Z</time>
      </trkpt>
      <trkpt lat="43.90948" lon="-1.3718">
        <ele>10.71</ele>
        <time>2016-04-29T09:34:41Z</time>
      </trkpt>
      <trkpt lat="43.90924" lon="-1.37187">
        <ele>9.75</ele>
        <time>2016-04-29T09:34:46Z</time>
      </trkpt>
      <trkpt lat="43.9092" lon="-1.37187">
        <ele>9.75</ele>
        <time>2016-04-29T09:34:47Z</time>
      </trkpt>
      <trkpt lat="43.90916" lon="-1.37188">
        <ele>9.75</ele>
        <time>2016-04-29T09:34:48Z</time>
      </trkpt>
      <trkpt lat="43.90912" lon="-1.3719">
        <ele>9.75</ele>
        <time>2016-04-29T09:34:49Z</time>
      </trkpt>
      <trkpt lat="43.90908" lon="-1.37192">
        <ele>9.27</ele>
        <time>2016-04-29T09:34:50Z</time>
      </trkpt>
      <trkpt lat="43.90904" lon="-1.37193">
        <ele>9.75</ele>
        <time>2016-04-29T09:34:51Z</time>
      </trkpt>
      <trkpt lat="43.909" lon="-1.37193">
        <ele>10.23</ele>
        <time>2016-04-29T09:34:52Z</time>
      </trkpt>
      <trkpt lat="43.90896" lon="-1.37195">
        <ele>10.23</ele>
        <time>2016-04-29T09:34:53Z</time>
      </trkpt>
      <trkpt lat="43.90893" lon="-1.37196">
        <ele>9.75</ele>
        <time>2016-04-29T09:34:54Z</time>
      </trkpt>
      <trkpt lat="43.90889" lon="-1.37197">
        <ele>10.23</ele>
        <time>2016-04-29T09:34:55Z</time>
      </trkpt>
      <trkpt lat="43.90867" lon="-1.37208">
        <ele>10.71</ele>
        <time>2016-04-29T09:35:01Z</time>
      </trkpt>
      <trkpt lat="43.90842" lon="-1.37218">
        <ele>13.12</ele>
        <time>2016-04-29T09:35:08Z</time>
      </trkpt>
      <trkpt lat="43.90819" lon="-1.37227">
        <ele>14.56</ele>
        <time>2016-04-29T09:35:15Z</time>
      </trkpt>
      <trkpt lat="43.90784" lon="-1.37239">
        <ele>13.12</ele>
        <time>2016-04-29T09:35:23Z</time>
      </trkpt>
      <trkpt lat="43.90744" lon="-1.37252">
        <ele>11.19</ele>
        <time>2016-04-29T09:35:30Z</time>
      </trkpt>
      <trkpt lat="43.90724" lon="-1.37259">
        <ele>12.63</ele>
        <time>2016-04-29T09:35:35Z</time>
      </trkpt>
      <trkpt lat="43.90707" lon="-1.37266">
        <ele>15.04</ele>
        <time>2016-04-29T09:35:41Z</time>
      </trkpt>
      <trkpt lat="43.90684" lon="-1.37274">
        <ele>15.52</ele>
        <time>2016-04-29T09:35:48Z</time>
      </trkpt>
      <trkpt lat="43.90666" lon="-1.37282">
        <ele>16.48</ele>
        <time>2016-04-29T09:35:54Z</time>
      </trkpt>
      <trkpt lat="43.90641" lon="-1.37291">
        <ele>15.04</ele>
        <time>2016-04-29T09:36:00Z</time>
      </trkpt>
      <trkpt lat="43.90617" lon="-1.37298">
        <ele>13.12</ele>
        <time>2016-04-29T09:36:04Z</time>
      </trkpt>
      <trkpt lat="43.90583" lon="-1.37309">
        <ele>13.6</ele>
        <time>2016-04-29T09:36:10Z</time>
      </trkpt>
      <trkpt lat="43.90548" lon="-1.37321">
        <ele>14.08</ele>
        <time>2016-04-29T09:36:19Z</time>
      </trkpt>
      <trkpt lat="43.90535" lon="-1.37326">
        <ele>13.6</ele>
        <time>2016-04-29T09:36:22Z</time>
      </trkpt>
      <trkpt lat="43.90505" lon="-1.37337">
        <ele>12.63</ele>
        <time>2016-04-29T09:36:29Z</time>
      </trkpt>
      <trkpt lat="43.905" lon="-1.37339">
        <ele>12.63</ele>
        <time>2016-04-29T09:36:30Z</time>
      </trkpt>
      <trkpt lat="43.90496" lon="-1.3734">
        <ele>12.15</ele>
        <time>2016-04-29T09:36:31Z</time>
      </trkpt>
      <trkpt lat="43.90486" lon="-1.37344">
        <ele>11.67</ele>
        <time>2016-04-29T09:36:33Z</time>
      </trkpt>
      <trkpt lat="43.90466" lon="-1.37351">
        <ele>12.63</ele>
        <time>2016-04-29T09:36:39Z</time>
      </trkpt>
      <trkpt lat="43.90449" lon="-1.37356">
        <ele>12.15</ele>
        <time>2016-04-29T09:36:45Z</time>
      </trkpt>
      <trkpt lat="43.90431" lon="-1.37361">
        <ele>13.12</ele>
        <time>2016-04-29T09:36:51Z</time>
      </trkpt>
      <trkpt lat="43.904" lon="-1.3737">
        <ele>14.08</ele>
        <time>2016-04-29T09:37:00Z</time>
      </trkpt>
      <trkpt lat="43.90369" lon="-1.37383">
        <ele>13.12</ele>
        <time>2016-04-29T09:37:08Z</time>
      </trkpt>
      <trkpt lat="43.90363" lon="-1.37386">
        <ele>12.63</ele>
        <time>2016-04-29T09:37:09Z</time>
      </trkpt>
      <trkpt lat="43.90334" lon="-1.37397">
        <ele>11.67</ele>
        <time>2016-04-29T09:37:15Z</time>
      </trkpt>
      <trkpt lat="43.9029" lon="-1.37412">
        <ele>10.23</ele>
        <time>2016-04-29T09:37:23Z</time>
      </trkpt>
      <trkpt lat="43.90269" lon="-1.3742">
        <ele>11.67</ele>
        <time>2016-04-29T09:37:29Z</time>
      </trkpt>
      <trkpt lat="43.90252" lon="-1.37425">
        <ele>14.08</ele>
        <time>2016-04-29T09:37:34Z</time>
      </trkpt>
      <trkpt lat="43.9023" lon="-1.37434">
        <ele>14.08</ele>
        <time>2016-04-29T09:37:41Z</time>
      </trkpt>
      <trkpt lat="43.90204" lon="-1.37441">
        <ele>13.6</ele>
        <time>2016-04-29T09:37:48Z</time>
      </trkpt>
      <trkpt lat="43.90194" lon="-1.37443">
        <ele>12.63</ele>
        <time>2016-04-29T09:37:53Z</time>
      </trkpt>
      <trkpt lat="43.9019" lon="-1.37444">
        <ele>12.15</ele>
        <time>2016-04-29T09:38:03Z</time>
      </trkpt>
      <trkpt lat="43.90179" lon="-1.37448">
        <ele>11.67</ele>
        <time>2016-04-29T09:38:07Z</time>
      </trkpt>
      <trkpt lat="43.90151" lon="-1.37457">
        <ele>10.23</ele>
        <time>2016-04-29T09:38:14Z</time>
      </trkpt>
      <trkpt lat="43.90118" lon="-1.37471">
        <ele>10.71</ele>
        <time>2016-04-29T09:38:22Z</time>
      </trkpt>
      <trkpt lat="43.90098" lon="-1.37478">
        <ele>12.63</ele>
        <time>2016-04-29T09:38:28Z</time>
      </trkpt>
      <trkpt lat="43.90071" lon="-1.37486">
        <ele>12.63</ele>
        <time>2016-04-29T09:38:36Z</time>
      </trkpt>
      <trkpt lat="43.90045" lon="-1.37494">
        <ele>12.15</ele>
        <time>2016-04-29T09:38:44Z</time>
      </trkpt>
      <trkpt lat="43.90042" lon="-1.37493">
        <ele>11.67</ele>
        <time>2016-04-29T09:38:50Z</time>
      </trkpt>
      <trkpt lat="43.90042" lon="-1.37492">
        <ele>11.67</ele>
        <time>2016-04-29T09:38:51Z</time>
      </trkpt>
      <trkpt lat="43.90042" lon="-1.37491">
        <ele>11.19</ele>
        <time>2016-04-29T09:38:52Z</time>
      </trkpt>
      <trkpt lat="43.90038" lon="-1.37477">
        <ele>11.19</ele>
        <time>2016-04-29T09:39:01Z</time>
      </trkpt>
      <trkpt lat="43.90036" lon="-1.37463">
        <ele>10.71</ele>
        <time>2016-04-29T09:39:10Z</time>
      </trkpt>
      <trkpt lat="43.90036" lon="-1.37452">
        <ele>10.23</ele>
        <time>2016-04-29T09:39:17Z</time>
      </trkpt>
      <trkpt lat="43.90038" lon="-1.37441">
        <ele>11.19</ele>
        <time>2016-04-29T09:39:25Z</time>
      </trkpt>
      <trkpt lat="43.90038" lon="-1.37439">
        <ele>10.71</ele>
        <time>2016-04-29T09:39:27Z</time>
      </trkpt>
      <trkpt lat="43.90039" lon="-1.37437">
        <ele>10.71</ele>
        <time>2016-04-29T09:39:28Z</time>
      </trkpt>
      <trkpt lat="43.90039" lon="-1.37434">
        <ele>11.19</ele>
        <time>2016-04-29T09:39:35Z</time>
      </trkpt>
      <trkpt lat="43.90039" lon="-1.37432">
        <ele>11.19</ele>
        <time>2016-04-29T09:39:49Z</time>
      </trkpt>
      <trkpt lat="43.90035" lon="-1.37418">
        <ele>12.15</ele>
        <time>2016-04-29T09:39:55Z</time>
      </trkpt>
      <trkpt lat="43.90029" lon="-1.37397">
        <ele>14.56</ele>
        <time>2016-04-29T09:40:02Z</time>
      </trkpt>
      <trkpt lat="43.90026" lon="-1.37381">
        <ele>16</ele>
        <time>2016-04-29T09:40:07Z</time>
      </trkpt>
      <trkpt lat="43.90025" lon="-1.37372">
        <ele>16.48</ele>
        <time>2016-04-29T09:40:10Z</time>
      </trkpt>
      <trkpt lat="43.90025" lon="-1.37369">
        <ele>16.96</ele>
        <time>2016-04-29T09:40:11Z</time>
      </trkpt>
      <trkpt lat="43.90025" lon="-1.37366">
        <ele>16.96</ele>
        <time>2016-04-29T09:40:12Z</time>
      </trkpt>
      <trkpt lat="43.90024" lon="-1.37363">
        <ele>16.96</ele>
        <time>2016-04-29T09:40:13Z</time>
      </trkpt>
      <trkpt lat="43.90024" lon="-1.3736">
        <ele>17.44</ele>
        <time>2016-04-29T09:40:14Z</time>
      </trkpt>
      <trkpt lat="43.90019" lon="-1.37326">
        <ele>19.84</ele>
        <time>2016-04-29T09:40:24Z</time>
      </trkpt>
      <trkpt lat="43.90014" lon="-1.3729">
        <ele>21.77</ele>
        <time>2016-04-29T09:40:34Z</time>
      </trkpt>
      <trkpt lat="43.9001" lon="-1.37258">
        <ele>22.25</ele>
        <time>2016-04-29T09:40:42Z</time>
      </trkpt>
      <trkpt lat="43.90005" lon="-1.3722">
        <ele>23.21</ele>
        <time>2016-04-29T09:40:51Z</time>
      </trkpt>
      <trkpt lat="43.89999" lon="-1.37179">
        <ele>22.73</ele>
        <time>2016-04-29T09:40:58Z</time>
      </trkpt>
      <trkpt lat="43.89993" lon="-1.37126">
        <ele>20.81</ele>
        <time>2016-04-29T09:41:04Z</time>
      </trkpt>
      <trkpt lat="43.89985" lon="-1.37068">
        <ele>17.44</ele>
        <time>2016-04-29T09:41:09Z</time>
      </trkpt>
      <trkpt lat="43.89981" lon="-1.37043">
        <ele>16.48</ele>
        <time>2016-04-29T09:41:11Z</time>
      </trkpt>
      <trkpt lat="43.89976" lon="-1.37007">
        <ele>15.04</ele>
        <time>2016-04-29T09:41:14Z</time>
      </trkpt>
      <trkpt lat="43.89965" lon="-1.36915">
        <ele>13.6</ele>
        <time>2016-04-29T09:41:22Z</time>
      </trkpt>
      <trkpt lat="43.89957" lon="-1.36867">
        <ele>13.12</ele>
        <time>2016-04-29T09:41:27Z</time>
      </trkpt>
      <trkpt lat="43.89955" lon="-1.3685">
        <ele>13.12</ele>
        <time>2016-04-29T09:41:29Z</time>
      </trkpt>
      <trkpt lat="43.89954" lon="-1.36843">
        <ele>13.6</ele>
        <time>2016-04-29T09:41:30Z</time>
      </trkpt>
      <trkpt lat="43.89946" lon="-1.36786">
        <ele>13.12</ele>
        <time>2016-04-29T09:41:37Z</time>
      </trkpt>
      <trkpt lat="43.89937" lon="-1.36714">
        <ele>13.6</ele>
        <time>2016-04-29T09:41:46Z</time>
      </trkpt>
      <trkpt lat="43.89927" lon="-1.36643">
        <ele>14.08</ele>
        <time>2016-04-29T09:41:54Z</time>
      </trkpt>
      <trkpt lat="43.89922" lon="-1.36606">
        <ele>13.6</ele>
        <time>2016-04-29T09:41:58Z</time>
      </trkpt>
      <trkpt lat="43.89919" lon="-1.36588">
        <ele>13.12</ele>
        <time>2016-04-29T09:42:00Z</time>
      </trkpt>
      <trkpt lat="43.89909" lon="-1.3651">
        <ele>12.15</ele>
        <time>2016-04-29T09:42:09Z</time>
      </trkpt>
      <trkpt lat="43.89905" lon="-1.36489">
        <ele>12.63</ele>
        <time>2016-04-29T09:42:12Z</time>
      </trkpt>
      <trkpt lat="43.89902" lon="-1.36484">
        <ele>12.15</ele>
        <time>2016-04-29T09:42:13Z</time>
      </trkpt>
      <trkpt lat="43.89898" lon="-1.36483">
        <ele>12.63</ele>
        <time>2016-04-29T09:42:14Z</time>
      </trkpt>
      <trkpt lat="43.89894" lon="-1.36483">
        <ele>11.67</ele>
        <time>2016-04-29T09:42:15Z</time>
      </trkpt>
      <trkpt lat="43.8989" lon="-1.36485">
        <ele>11.19</ele>
        <time>2016-04-29T09:42:16Z</time>
      </trkpt>
      <trkpt lat="43.89846" lon="-1.36498">
        <ele>12.15</ele>
        <time>2016-04-29T09:42:24Z</time>
      </trkpt>
      <trkpt lat="43.8978" lon="-1.36518">
        <ele>12.63</ele>
        <time>2016-04-29T09:42:35Z</time>
      </trkpt>
      <trkpt lat="43.89711" lon="-1.36542">
        <ele>13.12</ele>
        <time>2016-04-29T09:42:47Z</time>
      </trkpt>
      <trkpt lat="43.89646" lon="-1.3657">
        <ele>13.12</ele>
        <time>2016-04-29T09:42:58Z</time>
      </trkpt>
      <trkpt lat="43.89594" lon="-1.3659">
        <ele>13.12</ele>
        <time>2016-04-29T09:43:07Z</time>
      </trkpt>
      <trkpt lat="43.89577" lon="-1.36596">
        <ele>13.6</ele>
        <time>2016-04-29T09:43:10Z</time>
      </trkpt>
      <trkpt lat="43.89571" lon="-1.36597">
        <ele>13.6</ele>
        <time>2016-04-29T09:43:11Z</time>
      </trkpt>
      <trkpt lat="43.89516" lon="-1.36617">
        <ele>14.56</ele>
        <time>2016-04-29T09:43:21Z</time>
      </trkpt>
      <trkpt lat="43.89477" lon="-1.36632">
        <ele>14.08</ele>
        <time>2016-04-29T09:43:29Z</time>
      </trkpt>
      <trkpt lat="43.89459" lon="-1.36639">
        <ele>13.6</ele>
        <time>2016-04-29T09:43:36Z</time>
      </trkpt>
      <trkpt lat="43.89459" lon="-1.36638">
        <ele>14.08</ele>
        <time>2016-04-29T09:43:47Z</time>
      </trkpt>
      <trkpt lat="43.89454" lon="-1.3664">
        <ele>13.6</ele>
        <time>2016-04-29T09:43:55Z</time>
      </trkpt>
      <trkpt lat="43.89431" lon="-1.36649">
        <ele>13.6</ele>
        <time>2016-04-29T09:44:00Z</time>
      </trkpt>
      <trkpt lat="43.89375" lon="-1.36669">
        <ele>12.63</ele>
        <time>2016-04-29T09:44:10Z</time>
      </trkpt>
      <trkpt lat="43.89303" lon="-1.36694">
        <ele>12.63</ele>
        <time>2016-04-29T09:44:22Z</time>
      </trkpt>
      <trkpt lat="43.8925" lon="-1.36713">
        <ele>12.63</ele>
        <time>2016-04-29T09:44:31Z</time>
      </trkpt>
      <trkpt lat="43.89196" lon="-1.3673">
        <ele>11.67</ele>
        <time>2016-04-29T09:44:40Z</time>
      </trkpt>
      <trkpt lat="43.89144" lon="-1.36749">
        <ele>12.63</ele>
        <time>2016-04-29T09:44:49Z</time>
      </trkpt>
      <trkpt lat="43.89096" lon="-1.36767">
        <ele>13.6</ele>
        <time>2016-04-29T09:44:58Z</time>
      </trkpt>
      <trkpt lat="43.89059" lon="-1.36783">
        <ele>15.04</ele>
        <time>2016-04-29T09:45:06Z</time>
      </trkpt>
      <trkpt lat="43.8905" lon="-1.36787">
        <ele>15.52</ele>
        <time>2016-04-29T09:45:08Z</time>
      </trkpt>
      <trkpt lat="43.89046" lon="-1.36788">
        <ele>16</ele>
        <time>2016-04-29T09:45:09Z</time>
      </trkpt>
      <trkpt lat="43.89005" lon="-1.36803">
        <ele>17.92</ele>
        <time>2016-04-29T09:45:18Z</time>
      </trkpt>
      <trkpt lat="43.8897" lon="-1.36816">
        <ele>16.96</ele>
        <time>2016-04-29T09:45:25Z</time>
      </trkpt>
      <trkpt lat="43.88959" lon="-1.36816">
        <ele>16.48</ele>
        <time>2016-04-29T09:45:27Z</time>
      </trkpt>
      <trkpt lat="43.88954" lon="-1.36815">
        <ele>16</ele>
        <time>2016-04-29T09:45:28Z</time>
      </trkpt>
      <trkpt lat="43.88949" lon="-1.36813">
        <ele>15.04</ele>
        <time>2016-04-29T09:45:29Z</time>
      </trkpt>
      <trkpt lat="43.88913" lon="-1.3679">
        <ele>13.6</ele>
        <time>2016-04-29T09:45:35Z</time>
      </trkpt>
      <trkpt lat="43.8887" lon="-1.36762">
        <ele>12.63</ele>
        <time>2016-04-29T09:45:42Z</time>
      </trkpt>
      <trkpt lat="43.88859" lon="-1.36755">
        <ele>12.15</ele>
        <time>2016-04-29T09:45:44Z</time>
      </trkpt>
      <trkpt lat="43.88841" lon="-1.36748">
        <ele>12.15</ele>
        <time>2016-04-29T09:45:47Z</time>
      </trkpt>
      <trkpt lat="43.88835" lon="-1.36746">
        <ele>12.15</ele>
        <time>2016-04-29T09:45:48Z</time>
      </trkpt>
      <trkpt lat="43.88828" lon="-1.36746">
        <ele>12.15</ele>
        <time>2016-04-29T09:45:49Z</time>
      </trkpt>
      <trkpt lat="43.88821" lon="-1.36747">
        <ele>12.63</ele>
        <time>2016-04-29T09:45:50Z</time>
      </trkpt>
      <trkpt lat="43.88816" lon="-1.36748">
        <ele>12.15</ele>
        <time>2016-04-29T09:45:51Z</time>
      </trkpt>
      <trkpt lat="43.8881" lon="-1.3675">
        <ele>12.63</ele>
        <time>2016-04-29T09:45:52Z</time>
      </trkpt>
      <trkpt lat="43.88789" lon="-1.36765">
        <ele>13.12</ele>
        <time>2016-04-29T09:45:57Z</time>
      </trkpt>
      <trkpt lat="43.88785" lon="-1.36768">
        <ele>13.12</ele>
        <time>2016-04-29T09:45:58Z</time>
      </trkpt>
      <trkpt lat="43.8878" lon="-1.36771">
        <ele>13.12</ele>
        <time>2016-04-29T09:45:59Z</time>
      </trkpt>
      <trkpt lat="43.88741" lon="-1.36798">
        <ele>14.08</ele>
        <time>2016-04-29T09:46:08Z</time>
      </trkpt>
      <trkpt lat="43.88714" lon="-1.36819">
        <ele>12.15</ele>
        <time>2016-04-29T09:46:15Z</time>
      </trkpt>
      <trkpt lat="43.88711" lon="-1.36824">
        <ele>12.15</ele>
        <time>2016-04-29T09:46:16Z</time>
      </trkpt>
      <trkpt lat="43.88709" lon="-1.36829">
        <ele>12.63</ele>
        <time>2016-04-29T09:46:17Z</time>
      </trkpt>
      <trkpt lat="43.88695" lon="-1.36863">
        <ele>12.63</ele>
        <time>2016-04-29T09:46:24Z</time>
      </trkpt>
      <trkpt lat="43.8868" lon="-1.3688">
        <ele>12.63</ele>
        <time>2016-04-29T09:46:30Z</time>
      </trkpt>
      <trkpt lat="43.88678" lon="-1.36884">
        <ele>11.67</ele>
        <time>2016-04-29T09:46:35Z</time>
      </trkpt>
      <trkpt lat="43.88675" lon="-1.36902">
        <ele>11.67</ele>
        <time>2016-04-29T09:47:37Z</time>
      </trkpt>
      <trkpt lat="43.88676" lon="-1.36907">
        <ele>9.75</ele>
        <time>2016-04-29T09:47:38Z</time>
      </trkpt>
      <trkpt lat="43.88677" lon="-1.36912">
        <ele>13.12</ele>
        <time>2016-04-29T09:47:39Z</time>
      </trkpt>
      <trkpt lat="43.88678" lon="-1.36917">
        <ele>13.12</ele>
        <time>2016-04-29T09:47:40Z</time>
      </trkpt>
      <trkpt lat="43.88681" lon="-1.36949">
        <ele>11.67</ele>
        <time>2016-04-29T09:47:46Z</time>
      </trkpt>
      <trkpt lat="43.8868" lon="-1.36983">
        <ele>11.67</ele>
        <time>2016-04-29T09:47:52Z</time>
      </trkpt>
      <trkpt lat="43.88683" lon="-1.37031">
        <ele>11.67</ele>
        <time>2016-04-29T09:48:00Z</time>
      </trkpt>
      <trkpt lat="43.88682" lon="-1.37068">
        <ele>11.67</ele>
        <time>2016-04-29T09:48:06Z</time>
      </trkpt>
      <trkpt lat="43.88682" lon="-1.37075">
        <ele>12.15</ele>
        <time>2016-04-29T09:48:07Z</time>
      </trkpt>
      <trkpt lat="43.88681" lon="-1.37081">
        <ele>11.67</ele>
        <time>2016-04-29T09:48:08Z</time>
      </trkpt>
      <trkpt lat="43.88679" lon="-1.37099">
        <ele>11.67</ele>
        <time>2016-04-29T09:48:11Z</time>
      </trkpt>
      <trkpt lat="43.88679" lon="-1.37153">
        <ele>11.67</ele>
        <time>2016-04-29T09:48:19Z</time>
      </trkpt>
      <trkpt lat="43.88679" lon="-1.37196">
        <ele>12.15</ele>
        <time>2016-04-29T09:48:25Z</time>
      </trkpt>
      <trkpt lat="43.88676" lon="-1.37217">
        <ele>12.15</ele>
        <time>2016-04-29T09:48:28Z</time>
      </trkpt>
      <trkpt lat="43.88676" lon="-1.37223">
        <ele>11.67</ele>
        <time>2016-04-29T09:48:29Z</time>
      </trkpt>
      <trkpt lat="43.88675" lon="-1.3723">
        <ele>12.15</ele>
        <time>2016-04-29T09:48:30Z</time>
      </trkpt>
      <trkpt lat="43.88674" lon="-1.37237">
        <ele>12.15</ele>
        <time>2016-04-29T09:48:31Z</time>
      </trkpt>
      <trkpt lat="43.88674" lon="-1.37243">
        <ele>11.67</ele>
        <time>2016-04-29T09:48:32Z</time>
      </trkpt>
      <trkpt lat="43.88674" lon="-1.37249">
        <ele>12.15</ele>
        <time>2016-04-29T09:48:33Z</time>
      </trkpt>
      <trkpt lat="43.88675" lon="-1.37256">
        <ele>12.15</ele>
        <time>2016-04-29T09:48:34Z</time>
      </trkpt>
      <trkpt lat="43.88676" lon="-1.37261">
        <ele>12.15</ele>
        <time>2016-04-29T09:48:35Z</time>
      </trkpt>
      <trkpt lat="43.88676" lon="-1.37267">
        <ele>12.63</ele>
        <time>2016-04-29T09:48:36Z</time>
      </trkpt>
      <trkpt lat="43.88677" lon="-1.37273">
        <ele>11.67</ele>
        <time>2016-04-29T09:48:37Z</time>
      </trkpt>
      <trkpt lat="43.88678" lon="-1.37279">
        <ele>12.15</ele>
        <time>2016-04-29T09:48:38Z</time>
      </trkpt>
      <trkpt lat="43.8868" lon="-1.37292">
        <ele>11.67</ele>
        <time>2016-04-29T09:48:40Z</time>
      </trkpt>
      <trkpt lat="43.88679" lon="-1.373">
        <ele>11.67</ele>
        <time>2016-04-29T09:48:41Z</time>
      </trkpt>
      <trkpt lat="43.88678" lon="-1.37313">
        <ele>11.67</ele>
        <time>2016-04-29T09:48:43Z</time>
      </trkpt>
      <trkpt lat="43.88676" lon="-1.37328">
        <ele>11.19</ele>
        <time>2016-04-29T09:48:45Z</time>
      </trkpt>
      <trkpt lat="43.88674" lon="-1.37335">
        <ele>11.19</ele>
        <time>2016-04-29T09:48:46Z</time>
      </trkpt>
      <trkpt lat="43.88672" lon="-1.37342">
        <ele>10.71</ele>
        <time>2016-04-29T09:48:47Z</time>
      </trkpt>
      <trkpt lat="43.8867" lon="-1.37349">
        <ele>11.19</ele>
        <time>2016-04-29T09:48:48Z</time>
      </trkpt>
      <trkpt lat="43.88667" lon="-1.37355">
        <ele>10.71</ele>
        <time>2016-04-29T09:48:49Z</time>
      </trkpt>
      <trkpt lat="43.88665" lon="-1.37361">
        <ele>10.71</ele>
        <time>2016-04-29T09:48:50Z</time>
      </trkpt>
      <trkpt lat="43.8866" lon="-1.37373">
        <ele>11.19</ele>
        <time>2016-04-29T09:48:52Z</time>
      </trkpt>
      <trkpt lat="43.88659" lon="-1.37378">
        <ele>10.71</ele>
        <time>2016-04-29T09:48:53Z</time>
      </trkpt>
      <trkpt lat="43.88647" lon="-1.37429">
        <ele>10.71</ele>
        <time>2016-04-29T09:49:01Z</time>
      </trkpt>
      <trkpt lat="43.88646" lon="-1.37435">
        <ele>10.71</ele>
        <time>2016-04-29T09:49:02Z</time>
      </trkpt>
      <trkpt lat="43.88643" lon="-1.37442">
        <ele>10.23</ele>
        <time>2016-04-29T09:49:03Z</time>
      </trkpt>
      <trkpt lat="43.88641" lon="-1.37449">
        <ele>10.71</ele>
        <time>2016-04-29T09:49:04Z</time>
      </trkpt>
      <trkpt lat="43.88628" lon="-1.37478">
        <ele>10.23</ele>
        <time>2016-04-29T09:49:09Z</time>
      </trkpt>
      <trkpt lat="43.88626" lon="-1.37484">
        <ele>10.71</ele>
        <time>2016-04-29T09:49:10Z</time>
      </trkpt>
      <trkpt lat="43.88624" lon="-1.37491">
        <ele>10.71</ele>
        <time>2016-04-29T09:49:11Z</time>
      </trkpt>
      <trkpt lat="43.88618" lon="-1.37524">
        <ele>10.23</ele>
        <time>2016-04-29T09:49:17Z</time>
      </trkpt>
      <trkpt lat="43.88607" lon="-1.37569">
        <ele>10.23</ele>
        <time>2016-04-29T09:49:24Z</time>
      </trkpt>
      <trkpt lat="43.88606" lon="-1.37575">
        <ele>10.23</ele>
        <time>2016-04-29T09:49:25Z</time>
      </trkpt>
      <trkpt lat="43.886" lon="-1.37605">
        <ele>10.23</ele>
        <time>2016-04-29T09:49:30Z</time>
      </trkpt>
      <trkpt lat="43.88597" lon="-1.37611">
        <ele>9.75</ele>
        <time>2016-04-29T09:49:31Z</time>
      </trkpt>
      <trkpt lat="43.88594" lon="-1.37616">
        <ele>10.23</ele>
        <time>2016-04-29T09:49:32Z</time>
      </trkpt>
      <trkpt lat="43.88588" lon="-1.37629">
        <ele>10.71</ele>
        <time>2016-04-29T09:49:35Z</time>
      </trkpt>
      <trkpt lat="43.88587" lon="-1.37634">
        <ele>10.71</ele>
        <time>2016-04-29T09:49:36Z</time>
      </trkpt>
      <trkpt lat="43.88579" lon="-1.37657">
        <ele>9.75</ele>
        <time>2016-04-29T09:49:42Z</time>
      </trkpt>
      <trkpt lat="43.88565" lon="-1.37666">
        <ele>9.75</ele>
        <time>2016-04-29T09:49:47Z</time>
      </trkpt>
      <trkpt lat="43.8855" lon="-1.3767">
        <ele>11.67</ele>
        <time>2016-04-29T09:49:52Z</time>
      </trkpt>
      <trkpt lat="43.8853" lon="-1.3767">
        <ele>12.63</ele>
        <time>2016-04-29T09:49:57Z</time>
      </trkpt>
      <trkpt lat="43.88507" lon="-1.37669">
        <ele>13.6</ele>
        <time>2016-04-29T09:50:03Z</time>
      </trkpt>
      <trkpt lat="43.88494" lon="-1.37668">
        <ele>12.63</ele>
        <time>2016-04-29T09:50:08Z</time>
      </trkpt>
      <trkpt lat="43.88465" lon="-1.37666">
        <ele>10.23</ele>
        <time>2016-04-29T09:52:18Z</time>
      </trkpt>
      <trkpt lat="43.88459" lon="-1.37665">
        <ele>9.75</ele>
        <time>2016-04-29T09:52:19Z</time>
      </trkpt>
      <trkpt lat="43.88453" lon="-1.37664">
        <ele>9.27</ele>
        <time>2016-04-29T09:52:20Z</time>
      </trkpt>
      <trkpt lat="43.88447" lon="-1.37664">
        <ele>9.27</ele>
        <time>2016-04-29T09:52:21Z</time>
      </trkpt>
      <trkpt lat="43.88441" lon="-1.37664">
        <ele>9.75</ele>
        <time>2016-04-29T09:52:22Z</time>
      </trkpt>
      <trkpt lat="43.88435" lon="-1.37663">
        <ele>8.79</ele>
        <time>2016-04-29T09:52:23Z</time>
      </trkpt>
      <trkpt lat="43.88426" lon="-1.37661">
        <ele>8.79</ele>
        <time>2016-04-29T09:52:25Z</time>
      </trkpt>
      <trkpt lat="43.88421" lon="-1.37661">
        <ele>8.79</ele>
        <time>2016-04-29T09:52:26Z</time>
      </trkpt>
      <trkpt lat="43.88418" lon="-1.37661">
        <ele>8.79</ele>
        <time>2016-04-29T09:52:27Z</time>
      </trkpt>
      <trkpt lat="43.88394" lon="-1.37658">
        <ele>9.75</ele>
        <time>2016-04-29T09:52:33Z</time>
      </trkpt>
      <trkpt lat="43.88371" lon="-1.37657">
        <ele>12.63</ele>
        <time>2016-04-29T09:52:40Z</time>
      </trkpt>
      <trkpt lat="43.88344" lon="-1.37656">
        <ele>14.56</ele>
        <time>2016-04-29T09:52:47Z</time>
      </trkpt>
      <trkpt lat="43.88316" lon="-1.37654">
        <ele>16.48</ele>
        <time>2016-04-29T09:52:54Z</time>
      </trkpt>
      <trkpt lat="43.88291" lon="-1.37655">
        <ele>16.48</ele>
        <time>2016-04-29T09:53:00Z</time>
      </trkpt>
      <trkpt lat="43.88259" lon="-1.37656">
        <ele>17.44</ele>
        <time>2016-04-29T09:53:08Z</time>
      </trkpt>
      <trkpt lat="43.88246" lon="-1.37659">
        <ele>17.44</ele>
        <time>2016-04-29T09:53:13Z</time>
      </trkpt>
      <trkpt lat="43.88244" lon="-1.37662">
        <ele>17.44</ele>
        <time>2016-04-29T09:53:14Z</time>
      </trkpt>
      <trkpt lat="43.88241" lon="-1.37665">
        <ele>16.96</ele>
        <time>2016-04-29T09:53:15Z</time>
      </trkpt>
      <trkpt lat="43.88237" lon="-1.37667">
        <ele>17.44</ele>
        <time>2016-04-29T09:53:16Z</time>
      </trkpt>
      <trkpt lat="43.88233" lon="-1.3767">
        <ele>17.44</ele>
        <time>2016-04-29T09:53:17Z</time>
      </trkpt>
      <trkpt lat="43.88203" lon="-1.37686">
        <ele>17.92</ele>
        <time>2016-04-29T09:53:24Z</time>
      </trkpt>
      <trkpt lat="43.88195" lon="-1.37693">
        <ele>17.92</ele>
        <time>2016-04-29T09:53:26Z</time>
      </trkpt>
      <trkpt lat="43.88181" lon="-1.37701">
        <ele>17.44</ele>
        <time>2016-04-29T09:53:29Z</time>
      </trkpt>
      <trkpt lat="43.88151" lon="-1.37726">
        <ele>16</ele>
        <time>2016-04-29T09:53:37Z</time>
      </trkpt>
      <trkpt lat="43.88135" lon="-1.37738">
        <ele>16.96</ele>
        <time>2016-04-29T09:53:43Z</time>
      </trkpt>
      <trkpt lat="43.88123" lon="-1.37742">
        <ele>17.92</ele>
        <time>2016-04-29T09:53:49Z</time>
      </trkpt>
      <trkpt lat="43.88121" lon="-1.37744">
        <ele>17.92</ele>
        <time>2016-04-29T09:53:50Z</time>
      </trkpt>
      <trkpt lat="43.88119" lon="-1.37746">
        <ele>17.44</ele>
        <time>2016-04-29T09:53:51Z</time>
      </trkpt>
      <trkpt lat="43.88101" lon="-1.37766">
        <ele>17.92</ele>
        <time>2016-04-29T09:53:59Z</time>
      </trkpt>
      <trkpt lat="43.88076" lon="-1.37785">
        <ele>18.4</ele>
        <time>2016-04-29T09:54:06Z</time>
      </trkpt>
      <trkpt lat="43.88046" lon="-1.37809">
        <ele>17.92</ele>
        <time>2016-04-29T09:54:14Z</time>
      </trkpt>
      <trkpt lat="43.88042" lon="-1.37812">
        <ele>17.92</ele>
        <time>2016-04-29T09:54:15Z</time>
      </trkpt>
      <trkpt lat="43.8803" lon="-1.37822">
        <ele>17.44</ele>
        <time>2016-04-29T09:54:18Z</time>
      </trkpt>
      <trkpt lat="43.88025" lon="-1.37826">
        <ele>17.44</ele>
        <time>2016-04-29T09:54:19Z</time>
      </trkpt>
      <trkpt lat="43.87989" lon="-1.37853">
        <ele>15.04</ele>
        <time>2016-04-29T09:54:27Z</time>
      </trkpt>
      <trkpt lat="43.87948" lon="-1.37872">
        <ele>13.12</ele>
        <time>2016-04-29T09:54:34Z</time>
      </trkpt>
      <trkpt lat="43.87922" lon="-1.37885">
        <ele>13.12</ele>
        <time>2016-04-29T09:54:39Z</time>
      </trkpt>
      <trkpt lat="43.87888" lon="-1.37907">
        <ele>13.6</ele>
        <time>2016-04-29T09:54:47Z</time>
      </trkpt>
      <trkpt lat="43.87864" lon="-1.3792">
        <ele>15.04</ele>
        <time>2016-04-29T09:54:54Z</time>
      </trkpt>
      <trkpt lat="43.87836" lon="-1.37934">
        <ele>16.96</ele>
        <time>2016-04-29T09:55:02Z</time>
      </trkpt>
      <trkpt lat="43.8782" lon="-1.37942">
        <ele>17.92</ele>
        <time>2016-04-29T09:55:07Z</time>
      </trkpt>
      <trkpt lat="43.87791" lon="-1.37955">
        <ele>18.88</ele>
        <time>2016-04-29T09:55:15Z</time>
      </trkpt>
      <trkpt lat="43.87764" lon="-1.37969">
        <ele>17.92</ele>
        <time>2016-04-29T09:55:22Z</time>
      </trkpt>
      <trkpt lat="43.8776" lon="-1.37971">
        <ele>17.44</ele>
        <time>2016-04-29T09:55:23Z</time>
      </trkpt>
      <trkpt lat="43.87722" lon="-1.37985">
        <ele>17.44</ele>
        <time>2016-04-29T09:55:31Z</time>
      </trkpt>
      <trkpt lat="43.87691" lon="-1.37997">
        <ele>16.96</ele>
        <time>2016-04-29T09:55:38Z</time>
      </trkpt>
      <trkpt lat="43.87674" lon="-1.38007">
        <ele>16</ele>
        <time>2016-04-29T09:55:43Z</time>
      </trkpt>
      <trkpt lat="43.87641" lon="-1.38024">
        <ele>14.56</ele>
        <time>2016-04-29T09:55:50Z</time>
      </trkpt>
      <trkpt lat="43.87603" lon="-1.38041">
        <ele>13.12</ele>
        <time>2016-04-29T09:55:57Z</time>
      </trkpt>
      <trkpt lat="43.87567" lon="-1.38054">
        <ele>13.12</ele>
        <time>2016-04-29T09:56:04Z</time>
      </trkpt>
      <trkpt lat="43.87553" lon="-1.38061">
        <ele>12.15</ele>
        <time>2016-04-29T09:56:07Z</time>
      </trkpt>
      <trkpt lat="43.87528" lon="-1.38071">
        <ele>12.63</ele>
        <time>2016-04-29T09:56:12Z</time>
      </trkpt>
      <trkpt lat="43.87522" lon="-1.38072">
        <ele>12.15</ele>
        <time>2016-04-29T09:56:13Z</time>
      </trkpt>
      <trkpt lat="43.87506" lon="-1.38077">
        <ele>11.67</ele>
        <time>2016-04-29T09:56:16Z</time>
      </trkpt>
      <trkpt lat="43.87468" lon="-1.38091">
        <ele>11.19</ele>
        <time>2016-04-29T09:56:23Z</time>
      </trkpt>
      <trkpt lat="43.87427" lon="-1.38101">
        <ele>11.19</ele>
        <time>2016-04-29T09:56:31Z</time>
      </trkpt>
      <trkpt lat="43.87419" lon="-1.38102">
        <ele>10.71</ele>
        <time>2016-04-29T09:56:35Z</time>
      </trkpt>
      <trkpt lat="43.87416" lon="-1.38105">
        <ele>11.67</ele>
        <time>2016-04-29T09:56:44Z</time>
      </trkpt>
      <trkpt lat="43.87413" lon="-1.38106">
        <ele>12.15</ele>
        <time>2016-04-29T09:56:45Z</time>
      </trkpt>
      <trkpt lat="43.87392" lon="-1.38115">
        <ele>11.67</ele>
        <time>2016-04-29T09:56:50Z</time>
      </trkpt>
      <trkpt lat="43.8736" lon="-1.38127">
        <ele>12.15</ele>
        <time>2016-04-29T09:56:58Z</time>
      </trkpt>
      <trkpt lat="43.87214" lon="-1.38177">
        <ele>17.92</ele>
        <time>2016-04-29T09:58:44Z</time>
      </trkpt>
      <trkpt lat="43.87177" lon="-1.38189">
        <ele>16.96</ele>
        <time>2016-04-29T09:58:52Z</time>
      </trkpt>
      <trkpt lat="43.87151" lon="-1.38199">
        <ele>19.84</ele>
        <time>2016-04-29T09:58:59Z</time>
      </trkpt>
      <trkpt lat="43.87116" lon="-1.3821">
        <ele>20.32</ele>
        <time>2016-04-29T09:59:08Z</time>
      </trkpt>
      <trkpt lat="43.8709" lon="-1.3822">
        <ele>21.29</ele>
        <time>2016-04-29T09:59:15Z</time>
      </trkpt>
      <trkpt lat="43.87087" lon="-1.38221">
        <ele>21.29</ele>
        <time>2016-04-29T09:59:16Z</time>
      </trkpt>
      <trkpt lat="43.87066" lon="-1.38229">
        <ele>22.25</ele>
        <time>2016-04-29T09:59:22Z</time>
      </trkpt>
      <trkpt lat="43.87062" lon="-1.38231">
        <ele>22.25</ele>
        <time>2016-04-29T09:59:23Z</time>
      </trkpt>
      <trkpt lat="43.87032" lon="-1.38248">
        <ele>22.73</ele>
        <time>2016-04-29T09:59:31Z</time>
      </trkpt>
      <trkpt lat="43.86992" lon="-1.38265">
        <ele>21.77</ele>
        <time>2016-04-29T09:59:40Z</time>
      </trkpt>
      <trkpt lat="43.86967" lon="-1.38274">
        <ele>21.29</ele>
        <time>2016-04-29T09:59:46Z</time>
      </trkpt>
      <trkpt lat="43.86962" lon="-1.38276">
        <ele>21.29</ele>
        <time>2016-04-29T09:59:47Z</time>
      </trkpt>
      <trkpt lat="43.86957" lon="-1.38278">
        <ele>20.81</ele>
        <time>2016-04-29T09:59:48Z</time>
      </trkpt>
      <trkpt lat="43.86923" lon="-1.38292">
        <ele>17.92</ele>
        <time>2016-04-29T09:59:54Z</time>
      </trkpt>
      <trkpt lat="43.86895" lon="-1.38303">
        <ele>16.96</ele>
        <time>2016-04-29T09:59:59Z</time>
      </trkpt>
      <trkpt lat="43.86868" lon="-1.38313">
        <ele>14.08</ele>
        <time>2016-04-29T10:00:04Z</time>
      </trkpt>
      <trkpt lat="43.86862" lon="-1.38315">
        <ele>14.56</ele>
        <time>2016-04-29T10:00:05Z</time>
      </trkpt>
      <trkpt lat="43.86827" lon="-1.38327">
        <ele>12.63</ele>
        <time>2016-04-29T10:00:12Z</time>
      </trkpt>
      <trkpt lat="43.86765" lon="-1.3835">
        <ele>13.6</ele>
        <time>2016-04-29T10:01:03Z</time>
      </trkpt>
      <trkpt lat="43.86762" lon="-1.38351">
        <ele>13.12</ele>
        <time>2016-04-29T10:01:04Z</time>
      </trkpt>
      <trkpt lat="43.86757" lon="-1.38352">
        <ele>13.12</ele>
        <time>2016-04-29T10:01:05Z</time>
      </trkpt>
      <trkpt lat="43.86753" lon="-1.38353">
        <ele>13.12</ele>
        <time>2016-04-29T10:01:06Z</time>
      </trkpt>
      <trkpt lat="43.86745" lon="-1.38356">
        <ele>13.12</ele>
        <time>2016-04-29T10:01:08Z</time>
      </trkpt>
      <trkpt lat="43.86714" lon="-1.3837">
        <ele>13.6</ele>
        <time>2016-04-29T10:01:16Z</time>
      </trkpt>
      <trkpt lat="43.8671" lon="-1.38371">
        <ele>14.08</ele>
        <time>2016-04-29T10:01:17Z</time>
      </trkpt>
      <trkpt lat="43.86681" lon="-1.38384">
        <ele>14.08</ele>
        <time>2016-04-29T10:01:24Z</time>
      </trkpt>
      <trkpt lat="43.86647" lon="-1.38396">
        <ele>12.63</ele>
        <time>2016-04-29T10:01:31Z</time>
      </trkpt>
      <trkpt lat="43.86603" lon="-1.38413">
        <ele>11.19</ele>
        <time>2016-04-29T10:01:40Z</time>
      </trkpt>
      <trkpt lat="43.86567" lon="-1.38425">
        <ele>13.12</ele>
        <time>2016-04-29T10:01:48Z</time>
      </trkpt>
      <trkpt lat="43.8653" lon="-1.38438">
        <ele>14.08</ele>
        <time>2016-04-29T10:01:57Z</time>
      </trkpt>
      <trkpt lat="43.86491" lon="-1.38452">
        <ele>14.08</ele>
        <time>2016-04-29T10:02:06Z</time>
      </trkpt>
      <trkpt lat="43.86453" lon="-1.38466">
        <ele>12.15</ele>
        <time>2016-04-29T10:02:14Z</time>
      </trkpt>
      <trkpt lat="43.86431" lon="-1.38472">
        <ele>12.63</ele>
        <time>2016-04-29T10:02:20Z</time>
      </trkpt>
      <trkpt lat="43.86409" lon="-1.38481">
        <ele>13.12</ele>
        <time>2016-04-29T10:02:27Z</time>
      </trkpt>
      <trkpt lat="43.86392" lon="-1.38488">
        <ele>13.6</ele>
        <time>2016-04-29T10:02:33Z</time>
      </trkpt>
      <trkpt lat="43.8637" lon="-1.38499">
        <ele>15.52</ele>
        <time>2016-04-29T10:02:41Z</time>
      </trkpt>
      <trkpt lat="43.86353" lon="-1.38505">
        <ele>16.48</ele>
        <time>2016-04-29T10:02:48Z</time>
      </trkpt>
      <trkpt lat="43.86328" lon="-1.38516">
        <ele>17.92</ele>
        <time>2016-04-29T10:02:57Z</time>
      </trkpt>
      <trkpt lat="43.86294" lon="-1.38529">
        <ele>18.4</ele>
        <time>2016-04-29T10:03:07Z</time>
      </trkpt>
      <trkpt lat="43.86273" lon="-1.38541">
        <ele>18.4</ele>
        <time>2016-04-29T10:03:13Z</time>
      </trkpt>
      <trkpt lat="43.86269" lon="-1.38543">
        <ele>18.4</ele>
        <time>2016-04-29T10:03:14Z</time>
      </trkpt>
      <trkpt lat="43.86265" lon="-1.38545">
        <ele>17.44</ele>
        <time>2016-04-29T10:03:15Z</time>
      </trkpt>
      <trkpt lat="43.86228" lon="-1.38558">
        <ele>15.04</ele>
        <time>2016-04-29T10:03:22Z</time>
      </trkpt>
      <trkpt lat="43.86222" lon="-1.38561">
        <ele>14.56</ele>
        <time>2016-04-29T10:03:23Z</time>
      </trkpt>
      <trkpt lat="43.86199" lon="-1.3857">
        <ele>12.63</ele>
        <time>2016-04-29T10:03:27Z</time>
      </trkpt>
      <trkpt lat="43.86162" lon="-1.38584">
        <ele>11.67</ele>
        <time>2016-04-29T10:03:33Z</time>
      </trkpt>
      <trkpt lat="43.86134" lon="-1.38593">
        <ele>12.63</ele>
        <time>2016-04-29T10:03:39Z</time>
      </trkpt>
      <trkpt lat="43.86094" lon="-1.38607">
        <ele>13.12</ele>
        <time>2016-04-29T10:03:48Z</time>
      </trkpt>
      <trkpt lat="43.86057" lon="-1.38623">
        <ele>12.15</ele>
        <time>2016-04-29T10:03:56Z</time>
      </trkpt>
      <trkpt lat="43.86038" lon="-1.38631">
        <ele>12.15</ele>
        <time>2016-04-29T10:04:00Z</time>
      </trkpt>
      <trkpt lat="43.86005" lon="-1.38642">
        <ele>12.63</ele>
        <time>2016-04-29T10:04:08Z</time>
      </trkpt>
      <trkpt lat="43.85968" lon="-1.38655">
        <ele>13.12</ele>
        <time>2016-04-29T10:04:17Z</time>
      </trkpt>
      <trkpt lat="43.85948" lon="-1.38664">
        <ele>15.52</ele>
        <time>2016-04-29T10:04:24Z</time>
      </trkpt>
      <trkpt lat="43.85921" lon="-1.38677">
        <ele>17.92</ele>
        <time>2016-04-29T10:04:33Z</time>
      </trkpt>
      <trkpt lat="43.85901" lon="-1.38687">
        <ele>16.96</ele>
        <time>2016-04-29T10:04:40Z</time>
      </trkpt>
      <trkpt lat="43.85891" lon="-1.38694">
        <ele>16.48</ele>
        <time>2016-04-29T10:04:47Z</time>
      </trkpt>
      <trkpt lat="43.85883" lon="-1.38699">
        <ele>16.48</ele>
        <time>2016-04-29T10:04:53Z</time>
      </trkpt>
      <trkpt lat="43.85858" lon="-1.38712">
        <ele>13.6</ele>
        <time>2016-04-29T10:05:00Z</time>
      </trkpt>
      <trkpt lat="43.85853" lon="-1.38714">
        <ele>13.6</ele>
        <time>2016-04-29T10:05:01Z</time>
      </trkpt>
      <trkpt lat="43.85846" lon="-1.38718">
        <ele>12.63</ele>
        <time>2016-04-29T10:05:04Z</time>
      </trkpt>
      <trkpt lat="43.85842" lon="-1.38723">
        <ele>12.63</ele>
        <time>2016-04-29T10:05:10Z</time>
      </trkpt>
      <trkpt lat="43.85829" lon="-1.38731">
        <ele>13.12</ele>
        <time>2016-04-29T10:05:19Z</time>
      </trkpt>
      <trkpt lat="43.85822" lon="-1.38734">
        <ele>14.56</ele>
        <time>2016-04-29T10:05:27Z</time>
      </trkpt>
      <trkpt lat="43.85813" lon="-1.38741">
        <ele>16</ele>
        <time>2016-04-29T10:05:37Z</time>
      </trkpt>
      <trkpt lat="43.85805" lon="-1.38745">
        <ele>16.96</ele>
        <time>2016-04-29T10:05:46Z</time>
      </trkpt>
      <trkpt lat="43.85794" lon="-1.38749">
        <ele>18.88</ele>
        <time>2016-04-29T10:05:58Z</time>
      </trkpt>
      <trkpt lat="43.85785" lon="-1.38754">
        <ele>18.88</ele>
        <time>2016-04-29T10:06:08Z</time>
      </trkpt>
      <trkpt lat="43.85784" lon="-1.38756">
        <ele>18.88</ele>
        <time>2016-04-29T10:06:09Z</time>
      </trkpt>
      <trkpt lat="43.85783" lon="-1.3876">
        <ele>19.84</ele>
        <time>2016-04-29T10:06:13Z</time>
      </trkpt>
      <trkpt lat="43.85782" lon="-1.3876">
        <ele>18.88</ele>
        <time>2016-04-29T10:06:14Z</time>
      </trkpt>
      <trkpt lat="43.85781" lon="-1.3876">
        <ele>18.88</ele>
        <time>2016-04-29T10:06:15Z</time>
      </trkpt>
      <trkpt lat="43.85779" lon="-1.38761">
        <ele>18.88</ele>
        <time>2016-04-29T10:06:16Z</time>
      </trkpt>
      <trkpt lat="43.85778" lon="-1.38761">
        <ele>18.88</ele>
        <time>2016-04-29T10:06:17Z</time>
      </trkpt>
      <trkpt lat="43.85773" lon="-1.38761">
        <ele>18.88</ele>
        <time>2016-04-29T10:06:22Z</time>
      </trkpt>
      <trkpt lat="43.85772" lon="-1.3876">
        <ele>18.4</ele>
        <time>2016-04-29T10:06:23Z</time>
      </trkpt>
      <trkpt lat="43.85772" lon="-1.38758">
        <ele>18.4</ele>
        <time>2016-04-29T10:06:24Z</time>
      </trkpt>
      <trkpt lat="43.8577" lon="-1.38754">
        <ele>19.36</ele>
        <time>2016-04-29T10:06:29Z</time>
      </trkpt>
      <trkpt lat="43.85763" lon="-1.38737">
        <ele>19.84</ele>
        <time>2016-04-29T10:06:35Z</time>
      </trkpt>
      <trkpt lat="43.85746" lon="-1.38696">
        <ele>22.73</ele>
        <time>2016-04-29T10:06:46Z</time>
      </trkpt>
      <trkpt lat="43.85733" lon="-1.38659">
        <ele>24.65</ele>
        <time>2016-04-29T10:06:56Z</time>
      </trkpt>
      <trkpt lat="43.8572" lon="-1.38632">
        <ele>26.09</ele>
        <time>2016-04-29T10:07:03Z</time>
      </trkpt>
      <trkpt lat="43.85707" lon="-1.38601">
        <ele>25.61</ele>
        <time>2016-04-29T10:07:10Z</time>
      </trkpt>
      <trkpt lat="43.85688" lon="-1.38556">
        <ele>24.17</ele>
        <time>2016-04-29T10:07:17Z</time>
      </trkpt>
      <trkpt lat="43.85681" lon="-1.3854">
        <ele>23.21</ele>
        <time>2016-04-29T10:07:19Z</time>
      </trkpt>
      <trkpt lat="43.85654" lon="-1.3847">
        <ele>20.81</ele>
        <time>2016-04-29T10:07:27Z</time>
      </trkpt>
      <trkpt lat="43.85624" lon="-1.38392">
        <ele>18.88</ele>
        <time>2016-04-29T10:07:36Z</time>
      </trkpt>
      <trkpt lat="43.85607" lon="-1.3835">
        <ele>16</ele>
        <time>2016-04-29T10:07:40Z</time>
      </trkpt>
      <trkpt lat="43.85602" lon="-1.38339">
        <ele>16</ele>
        <time>2016-04-29T10:07:41Z</time>
      </trkpt>
      <trkpt lat="43.85572" lon="-1.38268">
        <ele>14.56</ele>
        <time>2016-04-29T10:07:48Z</time>
      </trkpt>
      <trkpt lat="43.85554" lon="-1.38228">
        <ele>15.04</ele>
        <time>2016-04-29T10:07:53Z</time>
      </trkpt>
      <trkpt lat="43.85551" lon="-1.38221">
        <ele>15.04</ele>
        <time>2016-04-29T10:07:54Z</time>
      </trkpt>
      <trkpt lat="43.85528" lon="-1.38165">
        <ele>15.04</ele>
        <time>2016-04-29T10:08:02Z</time>
      </trkpt>
      <trkpt lat="43.85494" lon="-1.3808">
        <ele>16</ele>
        <time>2016-04-29T10:08:14Z</time>
      </trkpt>
      <trkpt lat="43.85471" lon="-1.38027">
        <ele>15.04</ele>
        <time>2016-04-29T10:08:22Z</time>
      </trkpt>
      <trkpt lat="43.85445" lon="-1.37963">
        <ele>15.04</ele>
        <time>2016-04-29T10:08:31Z</time>
      </trkpt>
      <trkpt lat="43.85415" lon="-1.3789">
        <ele>14.56</ele>
        <time>2016-04-29T10:08:41Z</time>
      </trkpt>
      <trkpt lat="43.85392" lon="-1.37832">
        <ele>14.56</ele>
        <time>2016-04-29T10:08:49Z</time>
      </trkpt>
      <trkpt lat="43.85381" lon="-1.37801">
        <ele>15.04</ele>
        <time>2016-04-29T10:08:53Z</time>
      </trkpt>
      <trkpt lat="43.85355" lon="-1.37742">
        <ele>14.56</ele>
        <time>2016-04-29T10:09:01Z</time>
      </trkpt>
      <trkpt lat="43.85343" lon="-1.37713">
        <ele>14.56</ele>
        <time>2016-04-29T10:09:05Z</time>
      </trkpt>
      <trkpt lat="43.8534" lon="-1.37705">
        <ele>14.56</ele>
        <time>2016-04-29T10:09:06Z</time>
      </trkpt>
      <trkpt lat="43.85313" lon="-1.3764">
        <ele>15.04</ele>
        <time>2016-04-29T10:09:15Z</time>
      </trkpt>
      <trkpt lat="43.85289" lon="-1.37584">
        <ele>15.52</ele>
        <time>2016-04-29T10:09:23Z</time>
      </trkpt>
      <trkpt lat="43.85266" lon="-1.37527">
        <ele>15.04</ele>
        <time>2016-04-29T10:09:31Z</time>
      </trkpt>
      <trkpt lat="43.85248" lon="-1.3748">
        <ele>15.04</ele>
        <time>2016-04-29T10:09:38Z</time>
      </trkpt>
      <trkpt lat="43.85244" lon="-1.37477">
        <ele>15.52</ele>
        <time>2016-04-29T10:09:39Z</time>
      </trkpt>
      <trkpt lat="43.85239" lon="-1.37478">
        <ele>15.52</ele>
        <time>2016-04-29T10:09:40Z</time>
      </trkpt>
      <trkpt lat="43.85236" lon="-1.37483">
        <ele>16</ele>
        <time>2016-04-29T10:09:41Z</time>
      </trkpt>
      <trkpt lat="43.85234" lon="-1.37488">
        <ele>16</ele>
        <time>2016-04-29T10:09:42Z</time>
      </trkpt>
      <trkpt lat="43.85231" lon="-1.37493">
        <ele>16</ele>
        <time>2016-04-29T10:09:43Z</time>
      </trkpt>
      <trkpt lat="43.85225" lon="-1.37509">
        <ele>16.96</ele>
        <time>2016-04-29T10:09:46Z</time>
      </trkpt>
      <trkpt lat="43.85209" lon="-1.37571">
        <ele>17.92</ele>
        <time>2016-04-29T10:09:56Z</time>
      </trkpt>
      <trkpt lat="43.8519" lon="-1.37638">
        <ele>21.29</ele>
        <time>2016-04-29T10:10:07Z</time>
      </trkpt>
      <trkpt lat="43.85167" lon="-1.37709">
        <ele>22.25</ele>
        <time>2016-04-29T10:10:18Z</time>
      </trkpt>
      <trkpt lat="43.85136" lon="-1.37809">
        <ele>20.81</ele>
        <time>2016-04-29T10:10:32Z</time>
      </trkpt>
      <trkpt lat="43.85115" lon="-1.37891">
        <ele>19.36</ele>
        <time>2016-04-29T10:10:41Z</time>
      </trkpt>
      <trkpt lat="43.85113" lon="-1.37911">
        <ele>18.4</ele>
        <time>2016-04-29T10:10:43Z</time>
      </trkpt>
      <trkpt lat="43.85113" lon="-1.37921">
        <ele>18.4</ele>
        <time>2016-04-29T10:10:44Z</time>
      </trkpt>
      <trkpt lat="43.85118" lon="-1.3798">
        <ele>16.96</ele>
        <time>2016-04-29T10:10:50Z</time>
      </trkpt>
      <trkpt lat="43.85116" lon="-1.37987">
        <ele>16.96</ele>
        <time>2016-04-29T10:10:51Z</time>
      </trkpt>
      <trkpt lat="43.85111" lon="-1.37991">
        <ele>16</ele>
        <time>2016-04-29T10:10:52Z</time>
      </trkpt>
      <trkpt lat="43.85105" lon="-1.37993">
        <ele>16</ele>
        <time>2016-04-29T10:10:53Z</time>
      </trkpt>
      <trkpt lat="43.85099" lon="-1.37994">
        <ele>15.04</ele>
        <time>2016-04-29T10:10:54Z</time>
      </trkpt>
      <trkpt lat="43.85052" lon="-1.38003">
        <ele>14.56</ele>
        <time>2016-04-29T10:11:01Z</time>
      </trkpt>
      <trkpt lat="43.84989" lon="-1.38016">
        <ele>13.6</ele>
        <time>2016-04-29T10:11:10Z</time>
      </trkpt>
      <trkpt lat="43.84941" lon="-1.38025">
        <ele>14.08</ele>
        <time>2016-04-29T10:11:18Z</time>
      </trkpt>
      <trkpt lat="43.84888" lon="-1.3803">
        <ele>14.08</ele>
        <time>2016-04-29T10:11:28Z</time>
      </trkpt>
      <trkpt lat="43.84864" lon="-1.3803">
        <ele>14.56</ele>
        <time>2016-04-29T10:11:33Z</time>
      </trkpt>
      <trkpt lat="43.84861" lon="-1.38033">
        <ele>14.56</ele>
        <time>2016-04-29T10:11:34Z</time>
      </trkpt>
      <trkpt lat="43.84859" lon="-1.38038">
        <ele>13.6</ele>
        <time>2016-04-29T10:11:35Z</time>
      </trkpt>
      <trkpt lat="43.84857" lon="-1.38044">
        <ele>15.04</ele>
        <time>2016-04-29T10:11:36Z</time>
      </trkpt>
      <trkpt lat="43.84856" lon="-1.38051">
        <ele>15.04</ele>
        <time>2016-04-29T10:11:37Z</time>
      </trkpt>
      <trkpt lat="43.84856" lon="-1.38058">
        <ele>15.04</ele>
        <time>2016-04-29T10:11:38Z</time>
      </trkpt>
      <trkpt lat="43.84855" lon="-1.3809">
        <ele>17.92</ele>
        <time>2016-04-29T10:11:43Z</time>
      </trkpt>
      <trkpt lat="43.84852" lon="-1.38152">
        <ele>18.88</ele>
        <time>2016-04-29T10:11:52Z</time>
      </trkpt>
      <trkpt lat="43.84849" lon="-1.38203">
        <ele>18.88</ele>
        <time>2016-04-29T10:11:59Z</time>
      </trkpt>
      <trkpt lat="43.84849" lon="-1.38209">
        <ele>19.36</ele>
        <time>2016-04-29T10:12:00Z</time>
      </trkpt>
      <trkpt lat="43.84849" lon="-1.38215">
        <ele>18.88</ele>
        <time>2016-04-29T10:12:01Z</time>
      </trkpt>
      <trkpt lat="43.84848" lon="-1.38246">
        <ele>20.81</ele>
        <time>2016-04-29T10:12:07Z</time>
      </trkpt>
      <trkpt lat="43.84846" lon="-1.3825">
        <ele>20.81</ele>
        <time>2016-04-29T10:12:08Z</time>
      </trkpt>
      <trkpt lat="43.84843" lon="-1.38254">
        <ele>20.81</ele>
        <time>2016-04-29T10:12:09Z</time>
      </trkpt>
      <trkpt lat="43.84839" lon="-1.38257">
        <ele>20.32</ele>
        <time>2016-04-29T10:12:10Z</time>
      </trkpt>
      <trkpt lat="43.84836" lon="-1.3826">
        <ele>20.81</ele>
        <time>2016-04-29T10:12:11Z</time>
      </trkpt>
      <trkpt lat="43.84832" lon="-1.38264">
        <ele>20.81</ele>
        <time>2016-04-29T10:12:12Z</time>
      </trkpt>
      <trkpt lat="43.84829" lon="-1.38267">
        <ele>20.32</ele>
        <time>2016-04-29T10:12:13Z</time>
      </trkpt>
      <trkpt lat="43.84825" lon="-1.3827">
        <ele>20.81</ele>
        <time>2016-04-29T10:12:14Z</time>
      </trkpt>
      <trkpt lat="43.84821" lon="-1.38271">
        <ele>21.29</ele>
        <time>2016-04-29T10:12:15Z</time>
      </trkpt>
      <trkpt lat="43.84817" lon="-1.38273">
        <ele>20.32</ele>
        <time>2016-04-29T10:12:16Z</time>
      </trkpt>
      <trkpt lat="43.84813" lon="-1.38276">
        <ele>19.84</ele>
        <time>2016-04-29T10:12:17Z</time>
      </trkpt>
      <trkpt lat="43.84809" lon="-1.3828">
        <ele>20.81</ele>
        <time>2016-04-29T10:12:18Z</time>
      </trkpt>
      <trkpt lat="43.84805" lon="-1.38285">
        <ele>20.32</ele>
        <time>2016-04-29T10:12:19Z</time>
      </trkpt>
      <trkpt lat="43.84778" lon="-1.38332">
        <ele>18.88</ele>
        <time>2016-04-29T10:12:27Z</time>
      </trkpt>
      <trkpt lat="43.84776" lon="-1.38339">
        <ele>19.36</ele>
        <time>2016-04-29T10:12:28Z</time>
      </trkpt>
      <trkpt lat="43.84774" lon="-1.38346">
        <ele>19.36</ele>
        <time>2016-04-29T10:12:29Z</time>
      </trkpt>
      <trkpt lat="43.84774" lon="-1.38353">
        <ele>19.84</ele>
        <time>2016-04-29T10:12:30Z</time>
      </trkpt>
      <trkpt lat="43.84773" lon="-1.38359">
        <ele>19.36</ele>
        <time>2016-04-29T10:12:31Z</time>
      </trkpt>
      <trkpt lat="43.84774" lon="-1.38365">
        <ele>19.84</ele>
        <time>2016-04-29T10:12:32Z</time>
      </trkpt>
      <trkpt lat="43.84775" lon="-1.38371">
        <ele>19.36</ele>
        <time>2016-04-29T10:12:33Z</time>
      </trkpt>
      <trkpt lat="43.84774" lon="-1.38377">
        <ele>19.36</ele>
        <time>2016-04-29T10:12:34Z</time>
      </trkpt>
      <trkpt lat="43.84771" lon="-1.38381">
        <ele>19.84</ele>
        <time>2016-04-29T10:12:35Z</time>
      </trkpt>
      <trkpt lat="43.84768" lon="-1.38385">
        <ele>18.88</ele>
        <time>2016-04-29T10:12:36Z</time>
      </trkpt>
      <trkpt lat="43.84764" lon="-1.38389">
        <ele>18.88</ele>
        <time>2016-04-29T10:12:37Z</time>
      </trkpt>
      <trkpt lat="43.84742" lon="-1.38416">
        <ele>16.96</ele>
        <time>2016-04-29T10:12:44Z</time>
      </trkpt>
      <trkpt lat="43.84739" lon="-1.38421">
        <ele>16.96</ele>
        <time>2016-04-29T10:12:45Z</time>
      </trkpt>
      <trkpt lat="43.84735" lon="-1.38426">
        <ele>16.48</ele>
        <time>2016-04-29T10:12:46Z</time>
      </trkpt>
      <trkpt lat="43.84731" lon="-1.3843">
        <ele>16.48</ele>
        <time>2016-04-29T10:12:47Z</time>
      </trkpt>
      <trkpt lat="43.84726" lon="-1.38433">
        <ele>15.52</ele>
        <time>2016-04-29T10:12:48Z</time>
      </trkpt>
      <trkpt lat="43.84721" lon="-1.38436">
        <ele>15.04</ele>
        <time>2016-04-29T10:12:49Z</time>
      </trkpt>
      <trkpt lat="43.84716" lon="-1.38436">
        <ele>14.56</ele>
        <time>2016-04-29T10:12:50Z</time>
      </trkpt>
      <trkpt lat="43.84712" lon="-1.38431">
        <ele>14.56</ele>
        <time>2016-04-29T10:12:51Z</time>
      </trkpt>
      <trkpt lat="43.8471" lon="-1.38425">
        <ele>14.08</ele>
        <time>2016-04-29T10:12:52Z</time>
      </trkpt>
      <trkpt lat="43.8471" lon="-1.38419">
        <ele>14.56</ele>
        <time>2016-04-29T10:12:53Z</time>
      </trkpt>
      <trkpt lat="43.84711" lon="-1.38413">
        <ele>14.56</ele>
        <time>2016-04-29T10:12:54Z</time>
      </trkpt>
      <trkpt lat="43.84713" lon="-1.38408">
        <ele>15.04</ele>
        <time>2016-04-29T10:12:55Z</time>
      </trkpt>
      <trkpt lat="43.84715" lon="-1.38404">
        <ele>15.52</ele>
        <time>2016-04-29T10:12:56Z</time>
      </trkpt>
      <trkpt lat="43.84716" lon="-1.38399">
        <ele>15.52</ele>
        <time>2016-04-29T10:12:57Z</time>
      </trkpt>
      <trkpt lat="43.84714" lon="-1.38395">
        <ele>15.52</ele>
        <time>2016-04-29T10:12:58Z</time>
      </trkpt>
      <trkpt lat="43.84711" lon="-1.38392">
        <ele>15.52</ele>
        <time>2016-04-29T10:12:59Z</time>
      </trkpt>
      <trkpt lat="43.84706" lon="-1.3839">
        <ele>14.56</ele>
        <time>2016-04-29T10:13:00Z</time>
      </trkpt>
      <trkpt lat="43.847" lon="-1.38388">
        <ele>14.08</ele>
        <time>2016-04-29T10:13:01Z</time>
      </trkpt>
      <trkpt lat="43.84695" lon="-1.38388">
        <ele>13.6</ele>
        <time>2016-04-29T10:13:02Z</time>
      </trkpt>
      <trkpt lat="43.84654" lon="-1.38392">
        <ele>12.63</ele>
        <time>2016-04-29T10:13:09Z</time>
      </trkpt>
      <trkpt lat="43.84649" lon="-1.38395">
        <ele>12.15</ele>
        <time>2016-04-29T10:13:10Z</time>
      </trkpt>
      <trkpt lat="43.84645" lon="-1.384">
        <ele>12.15</ele>
        <time>2016-04-29T10:13:11Z</time>
      </trkpt>
      <trkpt lat="43.84642" lon="-1.38406">
        <ele>11.67</ele>
        <time>2016-04-29T10:13:12Z</time>
      </trkpt>
      <trkpt lat="43.84609" lon="-1.38407">
        <ele>12.15</ele>
        <time>2016-04-29T10:13:55Z</time>
      </trkpt>
      <trkpt lat="43.84578" lon="-1.38367">
        <ele>12.63</ele>
        <time>2016-04-29T10:14:03Z</time>
      </trkpt>
      <trkpt lat="43.84573" lon="-1.38365">
        <ele>12.15</ele>
        <time>2016-04-29T10:14:04Z</time>
      </trkpt>
      <trkpt lat="43.84568" lon="-1.38364">
        <ele>12.63</ele>
        <time>2016-04-29T10:14:05Z</time>
      </trkpt>
      <trkpt lat="43.84563" lon="-1.38364">
        <ele>11.67</ele>
        <time>2016-04-29T10:14:06Z</time>
      </trkpt>
      <trkpt lat="43.84557" lon="-1.38364">
        <ele>12.15</ele>
        <time>2016-04-29T10:14:07Z</time>
      </trkpt>
      <trkpt lat="43.84553" lon="-1.38366">
        <ele>13.12</ele>
        <time>2016-04-29T10:14:08Z</time>
      </trkpt>
      <trkpt lat="43.84548" lon="-1.38369">
        <ele>12.63</ele>
        <time>2016-04-29T10:14:09Z</time>
      </trkpt>
      <trkpt lat="43.84539" lon="-1.38375">
        <ele>14.08</ele>
        <time>2016-04-29T10:14:13Z</time>
      </trkpt>
      <trkpt lat="43.84536" lon="-1.38375">
        <ele>14.08</ele>
        <time>2016-04-29T10:14:14Z</time>
      </trkpt>
      <trkpt lat="43.84533" lon="-1.38376">
        <ele>14.56</ele>
        <time>2016-04-29T10:14:15Z</time>
      </trkpt>
      <trkpt lat="43.8453" lon="-1.38377">
        <ele>14.56</ele>
        <time>2016-04-29T10:14:16Z</time>
      </trkpt>
      <trkpt lat="43.84527" lon="-1.3838">
        <ele>14.56</ele>
        <time>2016-04-29T10:14:17Z</time>
      </trkpt>
      <trkpt lat="43.84525" lon="-1.38385">
        <ele>14.08</ele>
        <time>2016-04-29T10:14:18Z</time>
      </trkpt>
      <trkpt lat="43.84523" lon="-1.3839">
        <ele>13.6</ele>
        <time>2016-04-29T10:14:19Z</time>
      </trkpt>
      <trkpt lat="43.84519" lon="-1.38403">
        <ele>13.12</ele>
        <time>2016-04-29T10:14:21Z</time>
      </trkpt>
      <trkpt lat="43.84518" lon="-1.38411">
        <ele>12.63</ele>
        <time>2016-04-29T10:14:22Z</time>
      </trkpt>
      <trkpt lat="43.84518" lon="-1.38436">
        <ele>13.6</ele>
        <time>2016-04-29T10:14:25Z</time>
      </trkpt>
      <trkpt lat="43.84517" lon="-1.38443">
        <ele>14.08</ele>
        <time>2016-04-29T10:14:26Z</time>
      </trkpt>
      <trkpt lat="43.84516" lon="-1.3845">
        <ele>13.6</ele>
        <time>2016-04-29T10:14:27Z</time>
      </trkpt>
      <trkpt lat="43.84515" lon="-1.38476">
        <ele>13.12</ele>
        <time>2016-04-29T10:14:30Z</time>
      </trkpt>
      <trkpt lat="43.84517" lon="-1.38486">
        <ele>13.12</ele>
        <time>2016-04-29T10:14:31Z</time>
      </trkpt>
      <trkpt lat="43.84519" lon="-1.38493">
        <ele>13.12</ele>
        <time>2016-04-29T10:14:32Z</time>
      </trkpt>
      <trkpt lat="43.84521" lon="-1.38499">
        <ele>13.12</ele>
        <time>2016-04-29T10:14:33Z</time>
      </trkpt>
      <trkpt lat="43.84522" lon="-1.38506">
        <ele>13.6</ele>
        <time>2016-04-29T10:14:34Z</time>
      </trkpt>
      <trkpt lat="43.84522" lon="-1.38512">
        <ele>13.6</ele>
        <time>2016-04-29T10:14:35Z</time>
      </trkpt>
      <trkpt lat="43.84522" lon="-1.38517">
        <ele>14.08</ele>
        <time>2016-04-29T10:14:36Z</time>
      </trkpt>
      <trkpt lat="43.84521" lon="-1.38522">
        <ele>14.08</ele>
        <time>2016-04-29T10:14:37Z</time>
      </trkpt>
      <trkpt lat="43.8452" lon="-1.38527">
        <ele>14.08</ele>
        <time>2016-04-29T10:14:38Z</time>
      </trkpt>
      <trkpt lat="43.84517" lon="-1.38533">
        <ele>14.08</ele>
        <time>2016-04-29T10:14:39Z</time>
      </trkpt>
      <trkpt lat="43.84514" lon="-1.38539">
        <ele>13.6</ele>
        <time>2016-04-29T10:14:40Z</time>
      </trkpt>
      <trkpt lat="43.84513" lon="-1.38547">
        <ele>14.08</ele>
        <time>2016-04-29T10:14:41Z</time>
      </trkpt>
      <trkpt lat="43.84511" lon="-1.38554">
        <ele>13.6</ele>
        <time>2016-04-29T10:14:42Z</time>
      </trkpt>
      <trkpt lat="43.84511" lon="-1.38561">
        <ele>14.08</ele>
        <time>2016-04-29T10:14:43Z</time>
      </trkpt>
      <trkpt lat="43.84512" lon="-1.38569">
        <ele>14.08</ele>
        <time>2016-04-29T10:14:44Z</time>
      </trkpt>
      <trkpt lat="43.84512" lon="-1.38576">
        <ele>14.08</ele>
        <time>2016-04-29T10:14:45Z</time>
      </trkpt>
      <trkpt lat="43.84514" lon="-1.38582">
        <ele>13.6</ele>
        <time>2016-04-29T10:14:46Z</time>
      </trkpt>
      <trkpt lat="43.84516" lon="-1.38588">
        <ele>13.6</ele>
        <time>2016-04-29T10:14:47Z</time>
      </trkpt>
      <trkpt lat="43.84518" lon="-1.38595">
        <ele>13.12</ele>
        <time>2016-04-29T10:14:48Z</time>
      </trkpt>
      <trkpt lat="43.84524" lon="-1.38608">
        <ele>13.12</ele>
        <time>2016-04-29T10:14:50Z</time>
      </trkpt>
      <trkpt lat="43.84527" lon="-1.38615">
        <ele>13.6</ele>
        <time>2016-04-29T10:14:51Z</time>
      </trkpt>
      <trkpt lat="43.84529" lon="-1.38621">
        <ele>13.6</ele>
        <time>2016-04-29T10:14:52Z</time>
      </trkpt>
      <trkpt lat="43.84529" lon="-1.38629">
        <ele>13.6</ele>
        <time>2016-04-29T10:14:53Z</time>
      </trkpt>
      <trkpt lat="43.84527" lon="-1.38637">
        <ele>13.12</ele>
        <time>2016-04-29T10:14:54Z</time>
      </trkpt>
      <trkpt lat="43.84525" lon="-1.38645">
        <ele>13.12</ele>
        <time>2016-04-29T10:14:55Z</time>
      </trkpt>
      <trkpt lat="43.84516" lon="-1.38663">
        <ele>12.63</ele>
        <time>2016-04-29T10:14:57Z</time>
      </trkpt>
      <trkpt lat="43.84511" lon="-1.38688">
        <ele>12.63</ele>
        <time>2016-04-29T10:15:00Z</time>
      </trkpt>
      <trkpt lat="43.8451" lon="-1.38695">
        <ele>12.63</ele>
        <time>2016-04-29T10:15:01Z</time>
      </trkpt>
      <trkpt lat="43.84509" lon="-1.38702">
        <ele>12.63</ele>
        <time>2016-04-29T10:15:02Z</time>
      </trkpt>
      <trkpt lat="43.84507" lon="-1.38707">
        <ele>12.63</ele>
        <time>2016-04-29T10:15:03Z</time>
      </trkpt>
      <trkpt lat="43.84504" lon="-1.3871">
        <ele>12.63</ele>
        <time>2016-04-29T10:15:04Z</time>
      </trkpt>
      <trkpt lat="43.84501" lon="-1.38711">
        <ele>13.12</ele>
        <time>2016-04-29T10:15:05Z</time>
      </trkpt>
      <trkpt lat="43.84497" lon="-1.38711">
        <ele>13.6</ele>
        <time>2016-04-29T10:15:06Z</time>
      </trkpt>
      <trkpt lat="43.84493" lon="-1.38711">
        <ele>13.12</ele>
        <time>2016-04-29T10:15:07Z</time>
      </trkpt>
      <trkpt lat="43.84488" lon="-1.38711">
        <ele>13.6</ele>
        <time>2016-04-29T10:15:08Z</time>
      </trkpt>
      <trkpt lat="43.84479" lon="-1.38709">
        <ele>14.56</ele>
        <time>2016-04-29T10:15:10Z</time>
      </trkpt>
      <trkpt lat="43.84475" lon="-1.38708">
        <ele>15.04</ele>
        <time>2016-04-29T10:15:11Z</time>
      </trkpt>
      <trkpt lat="43.8447" lon="-1.38707">
        <ele>15.52</ele>
        <time>2016-04-29T10:15:12Z</time>
      </trkpt>
      <trkpt lat="43.84465" lon="-1.38707">
        <ele>15.52</ele>
        <time>2016-04-29T10:15:13Z</time>
      </trkpt>
      <trkpt lat="43.84461" lon="-1.38707">
        <ele>16</ele>
        <time>2016-04-29T10:15:14Z</time>
      </trkpt>
      <trkpt lat="43.84427" lon="-1.38718">
        <ele>17.92</ele>
        <time>2016-04-29T10:15:21Z</time>
      </trkpt>
      <trkpt lat="43.84411" lon="-1.38725">
        <ele>18.88</ele>
        <time>2016-04-29T10:15:24Z</time>
      </trkpt>
      <trkpt lat="43.84406" lon="-1.38728">
        <ele>17.92</ele>
        <time>2016-04-29T10:15:25Z</time>
      </trkpt>
      <trkpt lat="43.84388" lon="-1.38743">
        <ele>16.96</ele>
        <time>2016-04-29T10:15:30Z</time>
      </trkpt>
      <trkpt lat="43.84355" lon="-1.38753">
        <ele>15.52</ele>
        <time>2016-04-29T10:15:36Z</time>
      </trkpt>
      <trkpt lat="43.84343" lon="-1.38757">
        <ele>15.04</ele>
        <time>2016-04-29T10:15:38Z</time>
      </trkpt>
      <trkpt lat="43.84337" lon="-1.38762">
        <ele>15.04</ele>
        <time>2016-04-29T10:15:39Z</time>
      </trkpt>
      <trkpt lat="43.84333" lon="-1.3877">
        <ele>14.08</ele>
        <time>2016-04-29T10:15:40Z</time>
      </trkpt>
      <trkpt lat="43.84329" lon="-1.38778">
        <ele>14.08</ele>
        <time>2016-04-29T10:15:41Z</time>
      </trkpt>
      <trkpt lat="43.84325" lon="-1.38786">
        <ele>13.6</ele>
        <time>2016-04-29T10:15:42Z</time>
      </trkpt>
      <trkpt lat="43.84322" lon="-1.38794">
        <ele>13.6</ele>
        <time>2016-04-29T10:15:43Z</time>
      </trkpt>
      <trkpt lat="43.84321" lon="-1.38803">
        <ele>13.12</ele>
        <time>2016-04-29T10:15:44Z</time>
      </trkpt>
      <trkpt lat="43.8432" lon="-1.38811">
        <ele>13.12</ele>
        <time>2016-04-29T10:15:45Z</time>
      </trkpt>
      <trkpt lat="43.84321" lon="-1.38818">
        <ele>13.6</ele>
        <time>2016-04-29T10:15:46Z</time>
      </trkpt>
      <trkpt lat="43.84322" lon="-1.38826">
        <ele>13.6</ele>
        <time>2016-04-29T10:15:47Z</time>
      </trkpt>
      <trkpt lat="43.84324" lon="-1.38834">
        <ele>13.6</ele>
        <time>2016-04-29T10:15:48Z</time>
      </trkpt>
      <trkpt lat="43.84327" lon="-1.3885">
        <ele>14.08</ele>
        <time>2016-04-29T10:15:50Z</time>
      </trkpt>
      <trkpt lat="43.84327" lon="-1.38859">
        <ele>13.6</ele>
        <time>2016-04-29T10:15:51Z</time>
      </trkpt>
      <trkpt lat="43.84327" lon="-1.38867">
        <ele>14.08</ele>
        <time>2016-04-29T10:15:52Z</time>
      </trkpt>
      <trkpt lat="43.84325" lon="-1.38875">
        <ele>14.08</ele>
        <time>2016-04-29T10:15:53Z</time>
      </trkpt>
      <trkpt lat="43.84323" lon="-1.38882">
        <ele>15.04</ele>
        <time>2016-04-29T10:15:54Z</time>
      </trkpt>
      <trkpt lat="43.84317" lon="-1.38918">
        <ele>14.08</ele>
        <time>2016-04-29T10:15:59Z</time>
      </trkpt>
      <trkpt lat="43.84317" lon="-1.38957">
        <ele>13.12</ele>
        <time>2016-04-29T10:16:03Z</time>
      </trkpt>
      <trkpt lat="43.84319" lon="-1.38965">
        <ele>13.12</ele>
        <time>2016-04-29T10:16:04Z</time>
      </trkpt>
      <trkpt lat="43.84322" lon="-1.38972">
        <ele>13.12</ele>
        <time>2016-04-29T10:16:05Z</time>
      </trkpt>
      <trkpt lat="43.84325" lon="-1.38979">
        <ele>13.6</ele>
        <time>2016-04-29T10:16:06Z</time>
      </trkpt>
      <trkpt lat="43.84329" lon="-1.38986">
        <ele>13.12</ele>
        <time>2016-04-29T10:16:07Z</time>
      </trkpt>
      <trkpt lat="43.84332" lon="-1.38991">
        <ele>13.6</ele>
        <time>2016-04-29T10:16:08Z</time>
      </trkpt>
      <trkpt lat="43.84342" lon="-1.3901">
        <ele>13.6</ele>
        <time>2016-04-29T10:16:11Z</time>
      </trkpt>
      <trkpt lat="43.84343" lon="-1.39015">
        <ele>13.6</ele>
        <time>2016-04-29T10:16:12Z</time>
      </trkpt>
      <trkpt lat="43.84342" lon="-1.39021">
        <ele>14.56</ele>
        <time>2016-04-29T10:16:13Z</time>
      </trkpt>
      <trkpt lat="43.84338" lon="-1.39033">
        <ele>15.52</ele>
        <time>2016-04-29T10:16:15Z</time>
      </trkpt>
      <trkpt lat="43.84336" lon="-1.3904">
        <ele>16</ele>
        <time>2016-04-29T10:16:16Z</time>
      </trkpt>
      <trkpt lat="43.84332" lon="-1.39052">
        <ele>16.96</ele>
        <time>2016-04-29T10:16:18Z</time>
      </trkpt>
      <trkpt lat="43.84329" lon="-1.39059">
        <ele>17.44</ele>
        <time>2016-04-29T10:16:19Z</time>
      </trkpt>
      <trkpt lat="43.84327" lon="-1.39066">
        <ele>17.92</ele>
        <time>2016-04-29T10:16:20Z</time>
      </trkpt>
      <trkpt lat="43.84326" lon="-1.39073">
        <ele>18.4</ele>
        <time>2016-04-29T10:16:21Z</time>
      </trkpt>
      <trkpt lat="43.84325" lon="-1.3908">
        <ele>17.92</ele>
        <time>2016-04-29T10:16:22Z</time>
      </trkpt>
      <trkpt lat="43.84324" lon="-1.39088">
        <ele>17.92</ele>
        <time>2016-04-29T10:16:23Z</time>
      </trkpt>
      <trkpt lat="43.84324" lon="-1.39096">
        <ele>17.44</ele>
        <time>2016-04-29T10:16:24Z</time>
      </trkpt>
      <trkpt lat="43.84325" lon="-1.39104">
        <ele>16.96</ele>
        <time>2016-04-29T10:16:25Z</time>
      </trkpt>
      <trkpt lat="43.84325" lon="-1.39113">
        <ele>16.48</ele>
        <time>2016-04-29T10:16:26Z</time>
      </trkpt>
      <trkpt lat="43.84324" lon="-1.39156">
        <ele>16</ele>
        <time>2016-04-29T10:16:31Z</time>
      </trkpt>
      <trkpt lat="43.84322" lon="-1.39164">
        <ele>16</ele>
        <time>2016-04-29T10:16:32Z</time>
      </trkpt>
      <trkpt lat="43.84301" lon="-1.3922">
        <ele>15.04</ele>
        <time>2016-04-29T10:16:39Z</time>
      </trkpt>
      <trkpt lat="43.84286" lon="-1.39259">
        <ele>13.6</ele>
        <time>2016-04-29T10:16:44Z</time>
      </trkpt>
      <trkpt lat="43.84282" lon="-1.39272">
        <ele>12.63</ele>
        <time>2016-04-29T10:16:46Z</time>
      </trkpt>
      <trkpt lat="43.8428" lon="-1.39277">
        <ele>12.63</ele>
        <time>2016-04-29T10:16:47Z</time>
      </trkpt>
      <trkpt lat="43.84277" lon="-1.3928">
        <ele>12.63</ele>
        <time>2016-04-29T10:16:48Z</time>
      </trkpt>
      <trkpt lat="43.84274" lon="-1.39282">
        <ele>12.15</ele>
        <time>2016-04-29T10:16:49Z</time>
      </trkpt>
      <trkpt lat="43.84272" lon="-1.39283">
        <ele>12.15</ele>
        <time>2016-04-29T10:16:50Z</time>
      </trkpt>
      <trkpt lat="43.8427" lon="-1.39283">
        <ele>12.15</ele>
        <time>2016-04-29T10:16:51Z</time>
      </trkpt>
      <trkpt lat="43.84268" lon="-1.39283">
        <ele>11.67</ele>
        <time>2016-04-29T10:16:52Z</time>
      </trkpt>
      <trkpt lat="43.84266" lon="-1.39283">
        <ele>12.15</ele>
        <time>2016-04-29T10:16:53Z</time>
      </trkpt>
      <trkpt lat="43.84244" lon="-1.3929">
        <ele>11.19</ele>
        <time>2016-04-29T10:17:00Z</time>
      </trkpt>
      <trkpt lat="43.84216" lon="-1.39297">
        <ele>10.71</ele>
        <time>2016-04-29T10:17:06Z</time>
      </trkpt>
      <trkpt lat="43.84176" lon="-1.39305">
        <ele>10.71</ele>
        <time>2016-04-29T10:17:15Z</time>
      </trkpt>
      <trkpt lat="43.84153" lon="-1.39311">
        <ele>11.19</ele>
        <time>2016-04-29T10:17:21Z</time>
      </trkpt>
      <trkpt lat="43.84137" lon="-1.39315">
        <ele>12.63</ele>
        <time>2016-04-29T10:17:28Z</time>
      </trkpt>
      <trkpt lat="43.84135" lon="-1.39316">
        <ele>13.12</ele>
        <time>2016-04-29T10:17:37Z</time>
      </trkpt>
      <trkpt lat="43.84129" lon="-1.39317">
        <ele>13.12</ele>
        <time>2016-04-29T10:17:44Z</time>
      </trkpt>
      <trkpt lat="43.84121" lon="-1.39319">
        <ele>14.56</ele>
        <time>2016-04-29T10:17:51Z</time>
      </trkpt>
      <trkpt lat="43.84109" lon="-1.39322">
        <ele>16.48</ele>
        <time>2016-04-29T10:18:00Z</time>
      </trkpt>
      <trkpt lat="43.84103" lon="-1.39324">
        <ele>16.48</ele>
        <time>2016-04-29T10:18:05Z</time>
      </trkpt>
      <trkpt lat="43.84091" lon="-1.39325">
        <ele>17.92</ele>
        <time>2016-04-29T10:18:15Z</time>
      </trkpt>
      <trkpt lat="43.84079" lon="-1.39327">
        <ele>18.4</ele>
        <time>2016-04-29T10:18:25Z</time>
      </trkpt>
      <trkpt lat="43.84069" lon="-1.39329">
        <ele>19.84</ele>
        <time>2016-04-29T10:18:35Z</time>
      </trkpt>
      <trkpt lat="43.84067" lon="-1.39331">
        <ele>18.88</ele>
        <time>2016-04-29T10:18:43Z</time>
      </trkpt>
      <trkpt lat="43.84065" lon="-1.39332">
        <ele>20.32</ele>
        <time>2016-04-29T10:18:46Z</time>
      </trkpt>
      <trkpt lat="43.84051" lon="-1.39335">
        <ele>20.81</ele>
        <time>2016-04-29T10:18:57Z</time>
      </trkpt>
      <trkpt lat="43.84042" lon="-1.39336">
        <ele>20.32</ele>
        <time>2016-04-29T10:19:05Z</time>
      </trkpt>
      <trkpt lat="43.84039" lon="-1.39338">
        <ele>21.29</ele>
        <time>2016-04-29T10:19:08Z</time>
      </trkpt>
      <trkpt lat="43.84032" lon="-1.39342">
        <ele>22.25</ele>
        <time>2016-04-29T10:19:15Z</time>
      </trkpt>
      <trkpt lat="43.84022" lon="-1.39344">
        <ele>22.73</ele>
        <time>2016-04-29T10:19:25Z</time>
      </trkpt>
      <trkpt lat="43.84011" lon="-1.39347">
        <ele>21.77</ele>
        <time>2016-04-29T10:19:30Z</time>
      </trkpt>
      <trkpt lat="43.83986" lon="-1.39354">
        <ele>21.77</ele>
        <time>2016-04-29T10:19:37Z</time>
      </trkpt>
      <trkpt lat="43.83968" lon="-1.39357">
        <ele>24.17</ele>
        <time>2016-04-29T10:19:43Z</time>
      </trkpt>
      <trkpt lat="43.83953" lon="-1.39361">
        <ele>24.17</ele>
        <time>2016-04-29T10:19:47Z</time>
      </trkpt>
      <trkpt lat="43.83948" lon="-1.39363">
        <ele>23.69</ele>
        <time>2016-04-29T10:19:48Z</time>
      </trkpt>
      <trkpt lat="43.83943" lon="-1.39365">
        <ele>23.21</ele>
        <time>2016-04-29T10:19:49Z</time>
      </trkpt>
      <trkpt lat="43.83911" lon="-1.39372">
        <ele>24.65</ele>
        <time>2016-04-29T10:19:56Z</time>
      </trkpt>
      <trkpt lat="43.83898" lon="-1.39376">
        <ele>24.17</ele>
        <time>2016-04-29T10:19:59Z</time>
      </trkpt>
      <trkpt lat="43.83893" lon="-1.39377">
        <ele>24.17</ele>
        <time>2016-04-29T10:20:00Z</time>
      </trkpt>
      <trkpt lat="43.83883" lon="-1.3938">
        <ele>23.21</ele>
        <time>2016-04-29T10:20:02Z</time>
      </trkpt>
      <trkpt lat="43.83844" lon="-1.39389">
        <ele>21.77</ele>
        <time>2016-04-29T10:20:09Z</time>
      </trkpt>
      <trkpt lat="43.83823" lon="-1.39394">
        <ele>20.81</ele>
        <time>2016-04-29T10:20:13Z</time>
      </trkpt>
      <trkpt lat="43.83813" lon="-1.39398">
        <ele>19.84</ele>
        <time>2016-04-29T10:20:15Z</time>
      </trkpt>
      <trkpt lat="43.8379" lon="-1.39402">
        <ele>19.36</ele>
        <time>2016-04-29T10:20:20Z</time>
      </trkpt>
      <trkpt lat="43.83785" lon="-1.39403">
        <ele>18.88</ele>
        <time>2016-04-29T10:20:21Z</time>
      </trkpt>
      <trkpt lat="43.83765" lon="-1.39404">
        <ele>17.92</ele>
        <time>2016-04-29T10:20:27Z</time>
      </trkpt>
      <trkpt lat="43.8375" lon="-1.39406">
        <ele>16.48</ele>
        <time>2016-04-29T10:20:33Z</time>
      </trkpt>
      <trkpt lat="43.83741" lon="-1.39407">
        <ele>14.08</ele>
        <time>2016-04-29T10:20:39Z</time>
      </trkpt>
      <trkpt lat="43.83737" lon="-1.39406">
        <ele>14.56</ele>
        <time>2016-04-29T10:20:44Z</time>
      </trkpt>
      <trkpt lat="43.83736" lon="-1.39404">
        <ele>14.08</ele>
        <time>2016-04-29T10:20:45Z</time>
      </trkpt>
      <trkpt lat="43.83736" lon="-1.39402">
        <ele>14.08</ele>
        <time>2016-04-29T10:20:46Z</time>
      </trkpt>
      <trkpt lat="43.83736" lon="-1.394">
        <ele>14.08</ele>
        <time>2016-04-29T10:20:47Z</time>
      </trkpt>
      <trkpt lat="43.83736" lon="-1.39398">
        <ele>14.08</ele>
        <time>2016-04-29T10:20:48Z</time>
      </trkpt>
      <trkpt lat="43.83736" lon="-1.39397">
        <ele>13.6</ele>
        <time>2016-04-29T10:20:49Z</time>
      </trkpt>
      <trkpt lat="43.83736" lon="-1.39382">
        <ele>14.08</ele>
        <time>2016-04-29T10:20:58Z</time>
      </trkpt>
      <trkpt lat="43.83732" lon="-1.39366">
        <ele>12.63</ele>
        <time>2016-04-29T10:21:03Z</time>
      </trkpt>
      <trkpt lat="43.83721" lon="-1.39345">
        <ele>12.63</ele>
        <time>2016-04-29T10:21:08Z</time>
      </trkpt>
      <trkpt lat="43.83719" lon="-1.3934">
        <ele>12.63</ele>
        <time>2016-04-29T10:21:09Z</time>
      </trkpt>
      <trkpt lat="43.83718" lon="-1.39335">
        <ele>12.15</ele>
        <time>2016-04-29T10:21:10Z</time>
      </trkpt>
      <trkpt lat="43.83717" lon="-1.3933">
        <ele>13.12</ele>
        <time>2016-04-29T10:21:11Z</time>
      </trkpt>
      <trkpt lat="43.83717" lon="-1.39324">
        <ele>11.67</ele>
        <time>2016-04-29T10:21:12Z</time>
      </trkpt>
      <trkpt lat="43.83717" lon="-1.39318">
        <ele>12.15</ele>
        <time>2016-04-29T10:21:13Z</time>
      </trkpt>
      <trkpt lat="43.83716" lon="-1.39312">
        <ele>12.15</ele>
        <time>2016-04-29T10:21:14Z</time>
      </trkpt>
      <trkpt lat="43.83712" lon="-1.39253">
        <ele>10.71</ele>
        <time>2016-04-29T10:21:22Z</time>
      </trkpt>
      <trkpt lat="43.83707" lon="-1.39196">
        <ele>11.19</ele>
        <time>2016-04-29T10:21:29Z</time>
      </trkpt>
      <trkpt lat="43.83705" lon="-1.39189">
        <ele>11.19</ele>
        <time>2016-04-29T10:21:30Z</time>
      </trkpt>
      <trkpt lat="43.83687" lon="-1.39141">
        <ele>11.67</ele>
        <time>2016-04-29T10:21:37Z</time>
      </trkpt>
      <trkpt lat="43.83675" lon="-1.39125">
        <ele>10.23</ele>
        <time>2016-04-29T10:21:40Z</time>
      </trkpt>
      <trkpt lat="43.8367" lon="-1.39118">
        <ele>9.75</ele>
        <time>2016-04-29T10:21:41Z</time>
      </trkpt>
      <trkpt lat="43.83655" lon="-1.39098">
        <ele>9.27</ele>
        <time>2016-04-29T10:21:44Z</time>
      </trkpt>
      <trkpt lat="43.83638" lon="-1.39077">
        <ele>8.79</ele>
        <time>2016-04-29T10:21:48Z</time>
      </trkpt>
      <trkpt lat="43.83635" lon="-1.39072">
        <ele>8.79</ele>
        <time>2016-04-29T10:21:49Z</time>
      </trkpt>
      <trkpt lat="43.83632" lon="-1.39066">
        <ele>9.27</ele>
        <time>2016-04-29T10:21:50Z</time>
      </trkpt>
      <trkpt lat="43.8363" lon="-1.3906">
        <ele>9.27</ele>
        <time>2016-04-29T10:21:51Z</time>
      </trkpt>
      <trkpt lat="43.83628" lon="-1.39053">
        <ele>9.27</ele>
        <time>2016-04-29T10:21:52Z</time>
      </trkpt>
      <trkpt lat="43.83627" lon="-1.39047">
        <ele>9.75</ele>
        <time>2016-04-29T10:21:53Z</time>
      </trkpt>
      <trkpt lat="43.83626" lon="-1.39041">
        <ele>9.27</ele>
        <time>2016-04-29T10:21:54Z</time>
      </trkpt>
      <trkpt lat="43.83625" lon="-1.39035">
        <ele>9.75</ele>
        <time>2016-04-29T10:21:55Z</time>
      </trkpt>
      <trkpt lat="43.83623" lon="-1.39029">
        <ele>9.75</ele>
        <time>2016-04-29T10:21:56Z</time>
      </trkpt>
      <trkpt lat="43.83623" lon="-1.39023">
        <ele>9.75</ele>
        <time>2016-04-29T10:21:57Z</time>
      </trkpt>
      <trkpt lat="43.83624" lon="-1.38983">
        <ele>11.19</ele>
        <time>2016-04-29T10:22:04Z</time>
      </trkpt>
      <trkpt lat="43.83619" lon="-1.38951">
        <ele>12.63</ele>
        <time>2016-04-29T10:22:10Z</time>
      </trkpt>
      <trkpt lat="43.83618" lon="-1.38917">
        <ele>15.52</ele>
        <time>2016-04-29T10:22:17Z</time>
      </trkpt>
      <trkpt lat="43.83618" lon="-1.38908">
        <ele>16</ele>
        <time>2016-04-29T10:22:19Z</time>
      </trkpt>
      <trkpt lat="43.83618" lon="-1.38871">
        <ele>17.44</ele>
        <time>2016-04-29T10:22:27Z</time>
      </trkpt>
      <trkpt lat="43.83621" lon="-1.38836">
        <ele>16.48</ele>
        <time>2016-04-29T10:22:33Z</time>
      </trkpt>
      <trkpt lat="43.83621" lon="-1.38824">
        <ele>16.48</ele>
        <time>2016-04-29T10:22:35Z</time>
      </trkpt>
      <trkpt lat="43.83622" lon="-1.38818">
        <ele>16.48</ele>
        <time>2016-04-29T10:22:36Z</time>
      </trkpt>
      <trkpt lat="43.83622" lon="-1.38812">
        <ele>15.52</ele>
        <time>2016-04-29T10:22:37Z</time>
      </trkpt>
      <trkpt lat="43.83622" lon="-1.38806">
        <ele>15.52</ele>
        <time>2016-04-29T10:22:38Z</time>
      </trkpt>
      <trkpt lat="43.83622" lon="-1.38798">
        <ele>15.04</ele>
        <time>2016-04-29T10:22:39Z</time>
      </trkpt>
      <trkpt lat="43.83622" lon="-1.38791">
        <ele>15.52</ele>
        <time>2016-04-29T10:22:40Z</time>
      </trkpt>
      <trkpt lat="43.83624" lon="-1.38744">
        <ele>13.12</ele>
        <time>2016-04-29T10:22:46Z</time>
      </trkpt>
      <trkpt lat="43.83622" lon="-1.38704">
        <ele>12.63</ele>
        <time>2016-04-29T10:22:52Z</time>
      </trkpt>
      <trkpt lat="43.83622" lon="-1.38648">
        <ele>13.12</ele>
        <time>2016-04-29T10:23:01Z</time>
      </trkpt>
      <trkpt lat="43.8362" lon="-1.38627">
        <ele>13.6</ele>
        <time>2016-04-29T10:23:06Z</time>
      </trkpt>
      <trkpt lat="43.8362" lon="-1.38594">
        <ele>14.08</ele>
        <time>2016-04-29T10:23:13Z</time>
      </trkpt>
      <trkpt lat="43.83621" lon="-1.38564">
        <ele>14.56</ele>
        <time>2016-04-29T10:23:19Z</time>
      </trkpt>
      <trkpt lat="43.83621" lon="-1.38517">
        <ele>15.04</ele>
        <time>2016-04-29T10:23:27Z</time>
      </trkpt>
      <trkpt lat="43.83621" lon="-1.38482">
        <ele>16.48</ele>
        <time>2016-04-29T10:23:34Z</time>
      </trkpt>
      <trkpt lat="43.83623" lon="-1.38458">
        <ele>17.44</ele>
        <time>2016-04-29T10:23:39Z</time>
      </trkpt>
      <trkpt lat="43.83622" lon="-1.38449">
        <ele>18.4</ele>
        <time>2016-04-29T10:23:41Z</time>
      </trkpt>
      <trkpt lat="43.83622" lon="-1.38446">
        <ele>18.4</ele>
        <time>2016-04-29T10:23:42Z</time>
      </trkpt>
      <trkpt lat="43.83621" lon="-1.38442">
        <ele>19.36</ele>
        <time>2016-04-29T10:23:43Z</time>
      </trkpt>
      <trkpt lat="43.83621" lon="-1.38438">
        <ele>19.84</ele>
        <time>2016-04-29T10:23:44Z</time>
      </trkpt>
      <trkpt lat="43.83621" lon="-1.38433">
        <ele>19.84</ele>
        <time>2016-04-29T10:23:45Z</time>
      </trkpt>
      <trkpt lat="43.83622" lon="-1.38428">
        <ele>20.32</ele>
        <time>2016-04-29T10:23:46Z</time>
      </trkpt>
      <trkpt lat="43.83622" lon="-1.38423">
        <ele>20.81</ele>
        <time>2016-04-29T10:23:47Z</time>
      </trkpt>
      <trkpt lat="43.83621" lon="-1.38382">
        <ele>23.21</ele>
        <time>2016-04-29T10:23:55Z</time>
      </trkpt>
      <trkpt lat="43.83621" lon="-1.38362">
        <ele>24.65</ele>
        <time>2016-04-29T10:24:00Z</time>
      </trkpt>
      <trkpt lat="43.83621" lon="-1.38334">
        <ele>24.17</ele>
        <time>2016-04-29T10:24:06Z</time>
      </trkpt>
      <trkpt lat="43.83621" lon="-1.38295">
        <ele>23.69</ele>
        <time>2016-04-29T10:24:13Z</time>
      </trkpt>
      <trkpt lat="43.83622" lon="-1.38263">
        <ele>23.21</ele>
        <time>2016-04-29T10:24:18Z</time>
      </trkpt>
      <trkpt lat="43.83621" lon="-1.38257">
        <ele>22.25</ele>
        <time>2016-04-29T10:24:19Z</time>
      </trkpt>
      <trkpt lat="43.83621" lon="-1.38251">
        <ele>22.25</ele>
        <time>2016-04-29T10:24:20Z</time>
      </trkpt>
      <trkpt lat="43.8362" lon="-1.38228">
        <ele>20.81</ele>
        <time>2016-04-29T10:24:23Z</time>
      </trkpt>
      <trkpt lat="43.83621" lon="-1.38199">
        <ele>18.4</ele>
        <time>2016-04-29T10:24:26Z</time>
      </trkpt>
      <trkpt lat="43.83621" lon="-1.38166">
        <ele>14.56</ele>
        <time>2016-04-29T10:24:29Z</time>
      </trkpt>
      <trkpt lat="43.8362" lon="-1.38137">
        <ele>12.63</ele>
        <time>2016-04-29T10:24:32Z</time>
      </trkpt>
      <trkpt lat="43.8362" lon="-1.38117">
        <ele>11.67</ele>
        <time>2016-04-29T10:24:34Z</time>
      </trkpt>
      <trkpt lat="43.83619" lon="-1.38082">
        <ele>11.67</ele>
        <time>2016-04-29T10:24:38Z</time>
      </trkpt>
      <trkpt lat="43.8362" lon="-1.38075">
        <ele>11.67</ele>
        <time>2016-04-29T10:24:39Z</time>
      </trkpt>
      <trkpt lat="43.83621" lon="-1.38035">
        <ele>11.67</ele>
        <time>2016-04-29T10:24:45Z</time>
      </trkpt>
      <trkpt lat="43.83621" lon="-1.37983">
        <ele>12.63</ele>
        <time>2016-04-29T10:24:54Z</time>
      </trkpt>
      <trkpt lat="43.83621" lon="-1.37971">
        <ele>12.63</ele>
        <time>2016-04-29T10:24:58Z</time>
      </trkpt>
      <trkpt lat="43.83619" lon="-1.3795">
        <ele>13.6</ele>
        <time>2016-04-29T10:25:04Z</time>
      </trkpt>
      <trkpt lat="43.8362" lon="-1.37924">
        <ele>14.56</ele>
        <time>2016-04-29T10:25:11Z</time>
      </trkpt>
      <trkpt lat="43.8362" lon="-1.37896">
        <ele>15.04</ele>
        <time>2016-04-29T10:25:18Z</time>
      </trkpt>
      <trkpt lat="43.8362" lon="-1.37892">
        <ele>14.56</ele>
        <time>2016-04-29T10:25:19Z</time>
      </trkpt>
      <trkpt lat="43.8362" lon="-1.37888">
        <ele>14.56</ele>
        <time>2016-04-29T10:25:20Z</time>
      </trkpt>
      <trkpt lat="43.8362" lon="-1.37884">
        <ele>15.04</ele>
        <time>2016-04-29T10:25:21Z</time>
      </trkpt>
      <trkpt lat="43.8362" lon="-1.3788">
        <ele>15.52</ele>
        <time>2016-04-29T10:25:22Z</time>
      </trkpt>
      <trkpt lat="43.83621" lon="-1.37852">
        <ele>16.48</ele>
        <time>2016-04-29T10:25:30Z</time>
      </trkpt>
      <trkpt lat="43.83621" lon="-1.37829">
        <ele>17.92</ele>
        <time>2016-04-29T10:25:38Z</time>
      </trkpt>
      <trkpt lat="43.83622" lon="-1.37808">
        <ele>19.84</ele>
        <time>2016-04-29T10:25:46Z</time>
      </trkpt>
      <trkpt lat="43.83624" lon="-1.37802">
        <ele>19.84</ele>
        <time>2016-04-29T10:25:52Z</time>
      </trkpt>
      <trkpt lat="43.83624" lon="-1.37796">
        <ele>19.36</ele>
        <time>2016-04-29T10:25:55Z</time>
      </trkpt>
      <trkpt lat="43.83623" lon="-1.37782">
        <ele>20.81</ele>
        <time>2016-04-29T10:26:03Z</time>
      </trkpt>
      <trkpt lat="43.83624" lon="-1.37771">
        <ele>21.77</ele>
        <time>2016-04-29T10:26:11Z</time>
      </trkpt>
      <trkpt lat="43.83622" lon="-1.37762">
        <ele>22.73</ele>
        <time>2016-04-29T10:26:17Z</time>
      </trkpt>
      <trkpt lat="43.83622" lon="-1.37759">
        <ele>22.73</ele>
        <time>2016-04-29T10:26:24Z</time>
      </trkpt>
      <trkpt lat="43.83622" lon="-1.37755">
        <ele>22.73</ele>
        <time>2016-04-29T10:26:28Z</time>
      </trkpt>
      <trkpt lat="43.83622" lon="-1.37751">
        <ele>22.25</ele>
        <time>2016-04-29T10:26:29Z</time>
      </trkpt>
      <trkpt lat="43.83622" lon="-1.37746">
        <ele>22.25</ele>
        <time>2016-04-29T10:26:30Z</time>
      </trkpt>
      <trkpt lat="43.83624" lon="-1.37734">
        <ele>21.29</ele>
        <time>2016-04-29T10:26:32Z</time>
      </trkpt>
      <trkpt lat="43.83624" lon="-1.37728">
        <ele>20.81</ele>
        <time>2016-04-29T10:26:33Z</time>
      </trkpt>
      <trkpt lat="43.83624" lon="-1.37695">
        <ele>20.32</ele>
        <time>2016-04-29T10:26:39Z</time>
      </trkpt>
      <trkpt lat="43.83624" lon="-1.37673">
        <ele>21.29</ele>
        <time>2016-04-29T10:26:45Z</time>
      </trkpt>
      <trkpt lat="43.83622" lon="-1.3765">
        <ele>21.29</ele>
        <time>2016-04-29T10:26:52Z</time>
      </trkpt>
      <trkpt lat="43.83621" lon="-1.37614">
        <ele>18.88</ele>
        <time>2016-04-29T10:26:58Z</time>
      </trkpt>
      <trkpt lat="43.83621" lon="-1.376">
        <ele>18.88</ele>
        <time>2016-04-29T10:27:00Z</time>
      </trkpt>
      <trkpt lat="43.8362" lon="-1.37551">
        <ele>16</ele>
        <time>2016-04-29T10:27:07Z</time>
      </trkpt>
      <trkpt lat="43.83619" lon="-1.37524">
        <ele>14.56</ele>
        <time>2016-04-29T10:27:11Z</time>
      </trkpt>
      <trkpt lat="43.83618" lon="-1.37488">
        <ele>12.63</ele>
        <time>2016-04-29T10:27:17Z</time>
      </trkpt>
      <trkpt lat="43.83625" lon="-1.3746">
        <ele>12.63</ele>
        <time>2016-04-29T10:27:24Z</time>
      </trkpt>
      <trkpt lat="43.83641" lon="-1.37452">
        <ele>12.63</ele>
        <time>2016-04-29T10:27:29Z</time>
      </trkpt>
      <trkpt lat="43.83648" lon="-1.37452">
        <ele>12.63</ele>
        <time>2016-04-29T10:27:31Z</time>
      </trkpt>
      <trkpt lat="43.83651" lon="-1.3745">
        <ele>12.63</ele>
        <time>2016-04-29T10:27:32Z</time>
      </trkpt>
      <trkpt lat="43.83655" lon="-1.37446">
        <ele>13.12</ele>
        <time>2016-04-29T10:27:33Z</time>
      </trkpt>
      <trkpt lat="43.83658" lon="-1.37442">
        <ele>12.63</ele>
        <time>2016-04-29T10:27:34Z</time>
      </trkpt>
      <trkpt lat="43.83661" lon="-1.37438">
        <ele>12.63</ele>
        <time>2016-04-29T10:27:35Z</time>
      </trkpt>
      <trkpt lat="43.83674" lon="-1.37411">
        <ele>13.6</ele>
        <time>2016-04-29T10:27:41Z</time>
      </trkpt>
      <trkpt lat="43.83684" lon="-1.37384">
        <ele>14.08</ele>
        <time>2016-04-29T10:27:47Z</time>
      </trkpt>
      <trkpt lat="43.83694" lon="-1.37353">
        <ele>14.08</ele>
        <time>2016-04-29T10:27:55Z</time>
      </trkpt>
      <trkpt lat="43.83702" lon="-1.37327">
        <ele>15.04</ele>
        <time>2016-04-29T10:28:00Z</time>
      </trkpt>
      <trkpt lat="43.83717" lon="-1.37301">
        <ele>14.56</ele>
        <time>2016-04-29T10:28:36Z</time>
      </trkpt>
      <trkpt lat="43.8372" lon="-1.37298">
        <ele>14.56</ele>
        <time>2016-04-29T10:28:37Z</time>
      </trkpt>
      <trkpt lat="43.83723" lon="-1.37295">
        <ele>14.08</ele>
        <time>2016-04-29T10:28:38Z</time>
      </trkpt>
      <trkpt lat="43.83726" lon="-1.37292">
        <ele>15.04</ele>
        <time>2016-04-29T10:28:39Z</time>
      </trkpt>
      <trkpt lat="43.83752" lon="-1.37265">
        <ele>14.08</ele>
        <time>2016-04-29T10:28:47Z</time>
      </trkpt>
      <trkpt lat="43.83777" lon="-1.37239">
        <ele>13.6</ele>
        <time>2016-04-29T10:28:54Z</time>
      </trkpt>
      <trkpt lat="43.83781" lon="-1.37235">
        <ele>13.6</ele>
        <time>2016-04-29T10:28:55Z</time>
      </trkpt>
      <trkpt lat="43.83811" lon="-1.37205">
        <ele>13.12</ele>
        <time>2016-04-29T10:29:03Z</time>
      </trkpt>
      <trkpt lat="43.83821" lon="-1.37191">
        <ele>13.6</ele>
        <time>2016-04-29T10:29:06Z</time>
      </trkpt>
      <trkpt lat="43.83823" lon="-1.37186">
        <ele>13.12</ele>
        <time>2016-04-29T10:29:07Z</time>
      </trkpt>
      <trkpt lat="43.83825" lon="-1.37181">
        <ele>12.63</ele>
        <time>2016-04-29T10:29:08Z</time>
      </trkpt>
      <trkpt lat="43.83826" lon="-1.37176">
        <ele>12.63</ele>
        <time>2016-04-29T10:29:09Z</time>
      </trkpt>
      <trkpt lat="43.83827" lon="-1.37171">
        <ele>12.63</ele>
        <time>2016-04-29T10:29:10Z</time>
      </trkpt>
      <trkpt lat="43.83828" lon="-1.37166">
        <ele>13.12</ele>
        <time>2016-04-29T10:29:11Z</time>
      </trkpt>
      <trkpt lat="43.83838" lon="-1.37138">
        <ele>13.12</ele>
        <time>2016-04-29T10:29:17Z</time>
      </trkpt>
      <trkpt lat="43.83841" lon="-1.37133">
        <ele>12.63</ele>
        <time>2016-04-29T10:29:18Z</time>
      </trkpt>
      <trkpt lat="43.83868" lon="-1.37098">
        <ele>14.08</ele>
        <time>2016-04-29T10:29:26Z</time>
      </trkpt>
      <trkpt lat="43.83888" lon="-1.37073">
        <ele>14.08</ele>
        <time>2016-04-29T10:29:32Z</time>
      </trkpt>
      <trkpt lat="43.83894" lon="-1.37062">
        <ele>14.56</ele>
        <time>2016-04-29T10:29:34Z</time>
      </trkpt>
      <trkpt lat="43.83897" lon="-1.37056">
        <ele>14.56</ele>
        <time>2016-04-29T10:29:35Z</time>
      </trkpt>
      <trkpt lat="43.83901" lon="-1.37012">
        <ele>15.04</ele>
        <time>2016-04-29T10:29:42Z</time>
      </trkpt>
      <trkpt lat="43.83902" lon="-1.36984">
        <ele>14.08</ele>
        <time>2016-04-29T10:29:46Z</time>
      </trkpt>
      <trkpt lat="43.83907" lon="-1.36927">
        <ele>13.6</ele>
        <time>2016-04-29T10:29:54Z</time>
      </trkpt>
      <trkpt lat="43.8391" lon="-1.36899">
        <ele>13.6</ele>
        <time>2016-04-29T10:29:58Z</time>
      </trkpt>
      <trkpt lat="43.8391" lon="-1.36892">
        <ele>13.6</ele>
        <time>2016-04-29T10:29:59Z</time>
      </trkpt>
      <trkpt lat="43.8391" lon="-1.36884">
        <ele>13.12</ele>
        <time>2016-04-29T10:30:00Z</time>
      </trkpt>
      <trkpt lat="43.83909" lon="-1.36877">
        <ele>13.12</ele>
        <time>2016-04-29T10:30:01Z</time>
      </trkpt>
      <trkpt lat="43.83908" lon="-1.36869">
        <ele>12.63</ele>
        <time>2016-04-29T10:30:02Z</time>
      </trkpt>
      <trkpt lat="43.83901" lon="-1.36842">
        <ele>12.15</ele>
        <time>2016-04-29T10:30:06Z</time>
      </trkpt>
      <trkpt lat="43.83899" lon="-1.36837">
        <ele>12.63</ele>
        <time>2016-04-29T10:30:07Z</time>
      </trkpt>
      <trkpt lat="43.83895" lon="-1.36833">
        <ele>12.63</ele>
        <time>2016-04-29T10:30:08Z</time>
      </trkpt>
      <trkpt lat="43.83892" lon="-1.3683">
        <ele>13.12</ele>
        <time>2016-04-29T10:30:09Z</time>
      </trkpt>
      <trkpt lat="43.83889" lon="-1.36827">
        <ele>13.12</ele>
        <time>2016-04-29T10:30:10Z</time>
      </trkpt>
      <trkpt lat="43.83885" lon="-1.36825">
        <ele>13.12</ele>
        <time>2016-04-29T10:30:11Z</time>
      </trkpt>
      <trkpt lat="43.83881" lon="-1.36823">
        <ele>13.6</ele>
        <time>2016-04-29T10:30:12Z</time>
      </trkpt>
      <trkpt lat="43.83865" lon="-1.36805">
        <ele>14.56</ele>
        <time>2016-04-29T10:30:18Z</time>
      </trkpt>
      <trkpt lat="43.83858" lon="-1.36778">
        <ele>15.04</ele>
        <time>2016-04-29T10:30:23Z</time>
      </trkpt>
      <trkpt lat="43.83845" lon="-1.36749">
        <ele>15.52</ele>
        <time>2016-04-29T10:30:29Z</time>
      </trkpt>
      <trkpt lat="43.83834" lon="-1.36713">
        <ele>16.96</ele>
        <time>2016-04-29T10:30:36Z</time>
      </trkpt>
      <trkpt lat="43.83823" lon="-1.36671">
        <ele>17.44</ele>
        <time>2016-04-29T10:30:44Z</time>
      </trkpt>
      <trkpt lat="43.8381" lon="-1.36629">
        <ele>17.44</ele>
        <time>2016-04-29T10:30:52Z</time>
      </trkpt>
      <trkpt lat="43.83798" lon="-1.36599">
        <ele>16.48</ele>
        <time>2016-04-29T10:30:57Z</time>
      </trkpt>
      <trkpt lat="43.83797" lon="-1.36594">
        <ele>16.96</ele>
        <time>2016-04-29T10:30:58Z</time>
      </trkpt>
      <trkpt lat="43.83796" lon="-1.36588">
        <ele>16.96</ele>
        <time>2016-04-29T10:30:59Z</time>
      </trkpt>
      <trkpt lat="43.83796" lon="-1.36583">
        <ele>16.48</ele>
        <time>2016-04-29T10:31:00Z</time>
      </trkpt>
      <trkpt lat="43.83796" lon="-1.36579">
        <ele>16.96</ele>
        <time>2016-04-29T10:31:01Z</time>
      </trkpt>
      <trkpt lat="43.83795" lon="-1.36575">
        <ele>16.96</ele>
        <time>2016-04-29T10:31:06Z</time>
      </trkpt>
      <trkpt lat="43.83794" lon="-1.36573">
        <ele>16.96</ele>
        <time>2016-04-29T10:31:21Z</time>
      </trkpt>
      <trkpt lat="43.83794" lon="-1.36572">
        <ele>16.96</ele>
        <time>2016-04-29T10:31:26Z</time>
      </trkpt>
      <trkpt lat="43.83793" lon="-1.3657">
        <ele>16.48</ele>
        <time>2016-04-29T10:31:27Z</time>
      </trkpt>
      <trkpt lat="43.83794" lon="-1.36567">
        <ele>16.96</ele>
        <time>2016-04-29T10:31:28Z</time>
      </trkpt>
      <trkpt lat="43.83796" lon="-1.36565">
        <ele>16.96</ele>
        <time>2016-04-29T10:31:29Z</time>
      </trkpt>
      <trkpt lat="43.83799" lon="-1.36562">
        <ele>17.44</ele>
        <time>2016-04-29T10:31:30Z</time>
      </trkpt>
      <trkpt lat="43.83802" lon="-1.3656">
        <ele>16.96</ele>
        <time>2016-04-29T10:31:31Z</time>
      </trkpt>
      <trkpt lat="43.83806" lon="-1.36559">
        <ele>16.96</ele>
        <time>2016-04-29T10:31:32Z</time>
      </trkpt>
      <trkpt lat="43.8381" lon="-1.36557">
        <ele>16.96</ele>
        <time>2016-04-29T10:31:33Z</time>
      </trkpt>
      <trkpt lat="43.83826" lon="-1.36544">
        <ele>17.44</ele>
        <time>2016-04-29T10:31:38Z</time>
      </trkpt>
      <trkpt lat="43.83828" lon="-1.36539">
        <ele>17.44</ele>
        <time>2016-04-29T10:31:39Z</time>
      </trkpt>
      <trkpt lat="43.83827" lon="-1.36534">
        <ele>17.44</ele>
        <time>2016-04-29T10:31:40Z</time>
      </trkpt>
      <trkpt lat="43.83826" lon="-1.3653">
        <ele>17.44</ele>
        <time>2016-04-29T10:31:41Z</time>
      </trkpt>
      <trkpt lat="43.83824" lon="-1.36525">
        <ele>17.44</ele>
        <time>2016-04-29T10:31:42Z</time>
      </trkpt>
      <trkpt lat="43.83823" lon="-1.36519">
        <ele>16.96</ele>
        <time>2016-04-29T10:31:43Z</time>
      </trkpt>
      <trkpt lat="43.83822" lon="-1.36513">
        <ele>16.96</ele>
        <time>2016-04-29T10:31:44Z</time>
      </trkpt>
      <trkpt lat="43.83822" lon="-1.36507">
        <ele>16.96</ele>
        <time>2016-04-29T10:31:45Z</time>
      </trkpt>
      <trkpt lat="43.83821" lon="-1.36489">
        <ele>17.44</ele>
        <time>2016-04-29T10:31:48Z</time>
      </trkpt>
      <trkpt lat="43.83827" lon="-1.36436">
        <ele>17.44</ele>
        <time>2016-04-29T10:31:57Z</time>
      </trkpt>
      <trkpt lat="43.83834" lon="-1.36385">
        <ele>18.88</ele>
        <time>2016-04-29T10:32:06Z</time>
      </trkpt>
      <trkpt lat="43.83834" lon="-1.36378">
        <ele>18.88</ele>
        <time>2016-04-29T10:32:07Z</time>
      </trkpt>
      <trkpt lat="43.83834" lon="-1.36371">
        <ele>19.36</ele>
        <time>2016-04-29T10:32:08Z</time>
      </trkpt>
      <trkpt lat="43.83834" lon="-1.36365">
        <ele>18.88</ele>
        <time>2016-04-29T10:32:09Z</time>
      </trkpt>
      <trkpt lat="43.83832" lon="-1.36337">
        <ele>18.88</ele>
        <time>2016-04-29T10:32:13Z</time>
      </trkpt>
      <trkpt lat="43.83838" lon="-1.36286">
        <ele>19.84</ele>
        <time>2016-04-29T10:32:21Z</time>
      </trkpt>
      <trkpt lat="43.83839" lon="-1.36281">
        <ele>20.32</ele>
        <time>2016-04-29T10:32:22Z</time>
      </trkpt>
      <trkpt lat="43.83841" lon="-1.36275">
        <ele>19.84</ele>
        <time>2016-04-29T10:32:23Z</time>
      </trkpt>
      <trkpt lat="43.83843" lon="-1.3627">
        <ele>19.84</ele>
        <time>2016-04-29T10:32:24Z</time>
      </trkpt>
      <trkpt lat="43.83856" lon="-1.36238">
        <ele>20.81</ele>
        <time>2016-04-29T10:32:30Z</time>
      </trkpt>
      <trkpt lat="43.8387" lon="-1.36182">
        <ele>21.29</ele>
        <time>2016-04-29T10:32:39Z</time>
      </trkpt>
      <trkpt lat="43.8388" lon="-1.36132">
        <ele>21.29</ele>
        <time>2016-04-29T10:32:47Z</time>
      </trkpt>
      <trkpt lat="43.83881" lon="-1.36126">
        <ele>20.81</ele>
        <time>2016-04-29T10:32:48Z</time>
      </trkpt>
      <trkpt lat="43.83881" lon="-1.36119">
        <ele>20.81</ele>
        <time>2016-04-29T10:32:49Z</time>
      </trkpt>
      <trkpt lat="43.83881" lon="-1.36113">
        <ele>20.81</ele>
        <time>2016-04-29T10:32:50Z</time>
      </trkpt>
      <trkpt lat="43.83881" lon="-1.36099">
        <ele>20.81</ele>
        <time>2016-04-29T10:32:52Z</time>
      </trkpt>
      <trkpt lat="43.83883" lon="-1.3603">
        <ele>20.81</ele>
        <time>2016-04-29T10:33:02Z</time>
      </trkpt>
      <trkpt lat="43.83886" lon="-1.35981">
        <ele>20.81</ele>
        <time>2016-04-29T10:33:09Z</time>
      </trkpt>
      <trkpt lat="43.83894" lon="-1.35955">
        <ele>21.29</ele>
        <time>2016-04-29T10:33:13Z</time>
      </trkpt>
      <trkpt lat="43.83908" lon="-1.35902">
        <ele>21.29</ele>
        <time>2016-04-29T10:33:21Z</time>
      </trkpt>
      <trkpt lat="43.8392" lon="-1.35845">
        <ele>21.77</ele>
        <time>2016-04-29T10:33:30Z</time>
      </trkpt>
      <trkpt lat="43.83936" lon="-1.35801">
        <ele>21.77</ele>
        <time>2016-04-29T10:33:38Z</time>
      </trkpt>
      <trkpt lat="43.83941" lon="-1.35787">
        <ele>21.77</ele>
        <time>2016-04-29T10:33:42Z</time>
      </trkpt>
      <trkpt lat="43.83943" lon="-1.35786">
        <ele>21.77</ele>
        <time>2016-04-29T10:33:43Z</time>
      </trkpt>
      <trkpt lat="43.83945" lon="-1.35785">
        <ele>21.29</ele>
        <time>2016-04-29T10:33:44Z</time>
      </trkpt>
      <trkpt lat="43.83948" lon="-1.35784">
        <ele>21.29</ele>
        <time>2016-04-29T10:33:45Z</time>
      </trkpt>
      <trkpt lat="43.83951" lon="-1.35783">
        <ele>21.29</ele>
        <time>2016-04-29T10:33:46Z</time>
      </trkpt>
      <trkpt lat="43.83953" lon="-1.35781">
        <ele>21.29</ele>
        <time>2016-04-29T10:33:47Z</time>
      </trkpt>
      <trkpt lat="43.84046" lon="-1.3573">
        <ele>22.25</ele>
        <time>2016-04-29T10:34:32Z</time>
      </trkpt>
      <trkpt lat="43.84084" lon="-1.35708">
        <ele>22.25</ele>
        <time>2016-04-29T10:34:39Z</time>
      </trkpt>
      <trkpt lat="43.84129" lon="-1.3568">
        <ele>22.73</ele>
        <time>2016-04-29T10:34:47Z</time>
      </trkpt>
      <trkpt lat="43.8417" lon="-1.35656">
        <ele>22.73</ele>
        <time>2016-04-29T10:34:54Z</time>
      </trkpt>
      <trkpt lat="43.84201" lon="-1.35637">
        <ele>22.73</ele>
        <time>2016-04-29T10:35:00Z</time>
      </trkpt>
      <trkpt lat="43.84239" lon="-1.35614">
        <ele>22.25</ele>
        <time>2016-04-29T10:35:07Z</time>
      </trkpt>
      <trkpt lat="43.84295" lon="-1.35582">
        <ele>23.21</ele>
        <time>2016-04-29T10:35:16Z</time>
      </trkpt>
      <trkpt lat="43.84342" lon="-1.35555">
        <ele>23.21</ele>
        <time>2016-04-29T10:35:24Z</time>
      </trkpt>
      <trkpt lat="43.84381" lon="-1.35535">
        <ele>22.73</ele>
        <time>2016-04-29T10:35:31Z</time>
      </trkpt>
      <trkpt lat="43.84383" lon="-1.3553">
        <ele>22.73</ele>
        <time>2016-04-29T10:35:32Z</time>
      </trkpt>
      <trkpt lat="43.84383" lon="-1.35526">
        <ele>22.73</ele>
        <time>2016-04-29T10:35:33Z</time>
      </trkpt>
      <trkpt lat="43.8438" lon="-1.35522">
        <ele>23.21</ele>
        <time>2016-04-29T10:35:34Z</time>
      </trkpt>
      <trkpt lat="43.84377" lon="-1.35518">
        <ele>22.73</ele>
        <time>2016-04-29T10:35:35Z</time>
      </trkpt>
      <trkpt lat="43.84375" lon="-1.35513">
        <ele>23.21</ele>
        <time>2016-04-29T10:35:36Z</time>
      </trkpt>
      <trkpt lat="43.84347" lon="-1.35465">
        <ele>23.21</ele>
        <time>2016-04-29T10:35:44Z</time>
      </trkpt>
      <trkpt lat="43.84331" lon="-1.35439">
        <ele>23.21</ele>
        <time>2016-04-29T10:35:48Z</time>
      </trkpt>
      <trkpt lat="43.84283" lon="-1.35356">
        <ele>23.21</ele>
        <time>2016-04-29T10:36:01Z</time>
      </trkpt>
      <trkpt lat="43.84273" lon="-1.35338">
        <ele>23.21</ele>
        <time>2016-04-29T10:36:04Z</time>
      </trkpt>
      <trkpt lat="43.84271" lon="-1.35331">
        <ele>23.21</ele>
        <time>2016-04-29T10:36:05Z</time>
      </trkpt>
      <trkpt lat="43.8427" lon="-1.35324">
        <ele>23.69</ele>
        <time>2016-04-29T10:36:06Z</time>
      </trkpt>
      <trkpt lat="43.84271" lon="-1.35317">
        <ele>23.21</ele>
        <time>2016-04-29T10:36:07Z</time>
      </trkpt>
      <trkpt lat="43.84274" lon="-1.35311">
        <ele>23.21</ele>
        <time>2016-04-29T10:36:08Z</time>
      </trkpt>
      <trkpt lat="43.84278" lon="-1.35305">
        <ele>23.69</ele>
        <time>2016-04-29T10:36:09Z</time>
      </trkpt>
      <trkpt lat="43.84282" lon="-1.35299">
        <ele>23.69</ele>
        <time>2016-04-29T10:36:10Z</time>
      </trkpt>
      <trkpt lat="43.84286" lon="-1.35292">
        <ele>23.69</ele>
        <time>2016-04-29T10:36:11Z</time>
      </trkpt>
      <trkpt lat="43.84288" lon="-1.35285">
        <ele>23.69</ele>
        <time>2016-04-29T10:36:12Z</time>
      </trkpt>
      <trkpt lat="43.84289" lon="-1.35278">
        <ele>23.21</ele>
        <time>2016-04-29T10:36:13Z</time>
      </trkpt>
      <trkpt lat="43.84291" lon="-1.3527">
        <ele>23.69</ele>
        <time>2016-04-29T10:36:14Z</time>
      </trkpt>
      <trkpt lat="43.843" lon="-1.35226">
        <ele>23.69</ele>
        <time>2016-04-29T10:36:20Z</time>
      </trkpt>
      <trkpt lat="43.843" lon="-1.35219">
        <ele>24.17</ele>
        <time>2016-04-29T10:36:21Z</time>
      </trkpt>
      <trkpt lat="43.84299" lon="-1.35212">
        <ele>24.17</ele>
        <time>2016-04-29T10:36:22Z</time>
      </trkpt>
      <trkpt lat="43.84297" lon="-1.35206">
        <ele>24.17</ele>
        <time>2016-04-29T10:36:23Z</time>
      </trkpt>
      <trkpt lat="43.84294" lon="-1.35199">
        <ele>24.17</ele>
        <time>2016-04-29T10:36:24Z</time>
      </trkpt>
      <trkpt lat="43.84266" lon="-1.35152">
        <ele>24.17</ele>
        <time>2016-04-29T10:36:32Z</time>
      </trkpt>
      <trkpt lat="43.84236" lon="-1.35131">
        <ele>24.17</ele>
        <time>2016-04-29T10:36:57Z</time>
      </trkpt>
      <trkpt lat="43.84227" lon="-1.35146">
        <ele>24.65</ele>
        <time>2016-04-29T10:37:01Z</time>
      </trkpt>
      <trkpt lat="43.84215" lon="-1.35172">
        <ele>23.69</ele>
        <time>2016-04-29T10:37:07Z</time>
      </trkpt>
      <trkpt lat="43.84206" lon="-1.35189">
        <ele>23.69</ele>
        <time>2016-04-29T10:37:11Z</time>
      </trkpt>
      <trkpt lat="43.84202" lon="-1.3519">
        <ele>24.17</ele>
        <time>2016-04-29T10:37:12Z</time>
      </trkpt>
      <trkpt lat="43.84191" lon="-1.3519">
        <ele>24.17</ele>
        <time>2016-04-29T10:37:15Z</time>
      </trkpt>
      <trkpt lat="43.84188" lon="-1.35186">
        <ele>23.69</ele>
        <time>2016-04-29T10:37:16Z</time>
      </trkpt>
      <trkpt lat="43.84185" lon="-1.35181">
        <ele>24.17</ele>
        <time>2016-04-29T10:37:17Z</time>
      </trkpt>
      <trkpt lat="43.84182" lon="-1.35176">
        <ele>24.17</ele>
        <time>2016-04-29T10:37:18Z</time>
      </trkpt>
      <trkpt lat="43.84179" lon="-1.35172">
        <ele>24.17</ele>
        <time>2016-04-29T10:37:19Z</time>
      </trkpt>
      <trkpt lat="43.84162" lon="-1.35145">
        <ele>25.13</ele>
        <time>2016-04-29T10:37:24Z</time>
      </trkpt>
      <trkpt lat="43.84132" lon="-1.35091">
        <ele>24.65</ele>
        <time>2016-04-29T10:37:33Z</time>
      </trkpt>
      <trkpt lat="43.84103" lon="-1.35044">
        <ele>25.13</ele>
        <time>2016-04-29T10:37:41Z</time>
      </trkpt>
      <trkpt lat="43.84071" lon="-1.34989">
        <ele>25.61</ele>
        <time>2016-04-29T10:37:50Z</time>
      </trkpt>
      <trkpt lat="43.84063" lon="-1.34976">
        <ele>25.61</ele>
        <time>2016-04-29T10:37:52Z</time>
      </trkpt>
      <trkpt lat="43.84034" lon="-1.34926">
        <ele>25.61</ele>
        <time>2016-04-29T10:38:00Z</time>
      </trkpt>
      <trkpt lat="43.83999" lon="-1.34864">
        <ele>26.09</ele>
        <time>2016-04-29T10:38:10Z</time>
      </trkpt>
      <trkpt lat="43.83991" lon="-1.34846">
        <ele>26.09</ele>
        <time>2016-04-29T10:38:13Z</time>
      </trkpt>
      <trkpt lat="43.8399" lon="-1.3484">
        <ele>26.09</ele>
        <time>2016-04-29T10:38:14Z</time>
      </trkpt>
      <trkpt lat="43.83991" lon="-1.34834">
        <ele>25.61</ele>
        <time>2016-04-29T10:38:15Z</time>
      </trkpt>
      <trkpt lat="43.83994" lon="-1.34831">
        <ele>25.61</ele>
        <time>2016-04-29T10:38:16Z</time>
      </trkpt>
      <trkpt lat="43.83998" lon="-1.34829">
        <ele>25.61</ele>
        <time>2016-04-29T10:38:17Z</time>
      </trkpt>
      <trkpt lat="43.84002" lon="-1.34828">
        <ele>26.09</ele>
        <time>2016-04-29T10:38:18Z</time>
      </trkpt>
      <trkpt lat="43.84038" lon="-1.34822">
        <ele>26.09</ele>
        <time>2016-04-29T10:38:25Z</time>
      </trkpt>
      <trkpt lat="43.84078" lon="-1.34817">
        <ele>25.13</ele>
        <time>2016-04-29T10:38:33Z</time>
      </trkpt>
      <trkpt lat="43.84089" lon="-1.34817">
        <ele>25.13</ele>
        <time>2016-04-29T10:38:35Z</time>
      </trkpt>
      <trkpt lat="43.84095" lon="-1.34819">
        <ele>25.13</ele>
        <time>2016-04-29T10:38:36Z</time>
      </trkpt>
      <trkpt lat="43.841" lon="-1.34821">
        <ele>25.13</ele>
        <time>2016-04-29T10:38:37Z</time>
      </trkpt>
      <trkpt lat="43.84106" lon="-1.34824">
        <ele>25.13</ele>
        <time>2016-04-29T10:38:38Z</time>
      </trkpt>
      <trkpt lat="43.84111" lon="-1.34827">
        <ele>25.13</ele>
        <time>2016-04-29T10:38:39Z</time>
      </trkpt>
      <trkpt lat="43.84116" lon="-1.34831">
        <ele>25.13</ele>
        <time>2016-04-29T10:38:40Z</time>
      </trkpt>
      <trkpt lat="43.84121" lon="-1.34835">
        <ele>25.13</ele>
        <time>2016-04-29T10:38:41Z</time>
      </trkpt>
      <trkpt lat="43.8416" lon="-1.34864">
        <ele>25.13</ele>
        <time>2016-04-29T10:38:49Z</time>
      </trkpt>
      <trkpt lat="43.84248" lon="-1.34923">
        <ele>35.23</ele>
        <time>2016-04-29T10:46:45Z</time>
      </trkpt>
    </trkseg>
  </trk>
</gpx>